[[{"header":{"parameterUnit":"m.s-1","parameterCategory":1,"la1":31.0,"la2":29.5877,"lo1":-88.7671,"lo2":-86.6584,"dy":0.0162,"dx":0.0185,"nx":115,"ny":88,"refTime":"2024-02-29T18:00:00:Z","depth":0,"parameterNumber":2,"parameterNumberName":"U-component_of_WINDS"},"data":[0.0,0.0,0.0,0.0,0.0,0.0,0.0,0.0,0.0,0.0,0.0,0.0,0.0,0.0,0.0,0.0,0.0,0.0,0.0,0.0,0.0,0.0,0.0,0.0,0.0,0.0,0.0,0.0,0.0,0.0,0.0,0.0,0.0,0.0,0.0,0.0,0.0,0.0,0.0,0.0,0.0,0.0,0.0,0.0,0.0,0.0,0.0,0.0,0.0,0.0,0.0,0.0,0.0,0.0,0.0,0.0,0.0,0.0,0.0,0.0,0.0,0.0,0.0,0.0,0.0,0.0,0.0,0.0,0.0,0.0,0.0,0.0,0.0,0.0,0.0,0.0,0.0,0.0,0.0,0.0,0.0,0.0,0.0,0.0,0.0,0.0,0.0,0.0,0.0,0.0,0.0,0.0,0.0,0.0,0.0,0.0,0.0,0.0,0.0,0.0,0.0,0.0,0.0,0.0,0.0,0.0,0.0,0.0,0.0,0.0,0.0,0.0,0.0,0.0,0.0,0.0,0.0,0.0,0.0,0.0,0.0,0.0,0.0,0.0,0.0,0.0,0.0,0.0,0.0,0.0,0.0,0.0,0.0,0.0,0.0,0.0,0.0,0.0,0.0,0.0,0.0,0.0,0.0,0.0,0.0,0.0,0.0,0.0,0.0,0.0,0.0,0.0,0.0,0.0,0.0,0.0,0.0,0.0,0.0,0.0,0.0,0.0,0.0,0.0,0.0,0.0,0.0,0.0,0.0,0.0,0.0,0.0,0.0,0.0,0.0,0.0,0.0,0.0,0.0,0.0,0.0,0.0,0.0,0.0,0.0,0.0,0.0,0.0,0.0,0.0,0.0,0.0,0.0,0.0,0.0,0.0,0.0,0.0,0.0,0.0,0.0,0.0,0.0,0.0,0.0,0.0,0.0,0.0,0.0,0.0,0.0,0.0,0.0,0.0,0.0,0.0,0.0,0.0,0.0,0.0,0.0,0.0,0.0,0.0,0.0,0.0,0.0,0.0,0.0,0.0,0.0,0.0,0.0,0.0,0.0,0.0,0.0,0.0,0.0,0.0,0.0,0.0,0.0,0.0,0.0,0.0,0.0,0.0,0.0,0.0,0.0,0.0,0.0,0.0,0.0,0.0,0.0,0.0,0.0,0.0,0.0,0.0,0.0,0.0,0.0,0.0,0.0,0.0,0.0,0.0,0.0,0.0,0.0,0.0,0.0,0.0,0.0,0.0,0.0,0.0,0.0,0.0,0.0,0.0,0.0,0.0,0.0,0.0,0.0,0.0,0.0,0.0,0.0,0.0,0.0,0.0,0.0,0.0,0.0,0.0,0.0,0.0,0.0,0.0,0.0,0.0,0.0,0.0,0.0,0.0,0.0,0.0,0.0,0.0,0.0,0.0,0.0,0.0,0.0,0.0,0.0,0.0,0.0,0.0,0.0,0.0,0.0,0.0,0.0,0.0,0.0,0.0,0.0,0.0,0.0,0.0,0.0,0.0,0.0,0.0,0.0,0.0,0.0,0.0,0.0,0.0,0.0,0.0,0.0,0.0,0.0,0.0,0.0,0.0,0.0,0.0,0.0,0.0,0.0,0.0,0.0,0.0,0.0,0.0,0.0,0.0,0.0,0.0,0.0,0.0,0.0,0.0,0.0,0.0,0.0,0.0,0.0,0.0,0.0,0.0,0.0,0.0,0.0,0.0,0.0,0.0,0.0,0.0,0.0,0.0,0.0,0.0,0.0,0.0,0.0,0.0,0.0,0.0,0.0,0.0,0.0,0.0,0.0,0.0,0.0,0.0,0.0,0.0,0.0,0.0,0.0,0.0,0.0,0.0,0.0,0.0,0.0,0.0,0.0,0.0,0.0,0.0,0.0,0.0,0.0,0.0,0.0,0.0,0.0,0.0,0.0,0.0,0.0,0.0,0.0,0.0,0.0,0.0,0.0,0.0,0.0,0.0,0.0,0.0,0.0,0.0,0.0,0.0,0.0,0.0,0.0,0.0,0.0,0.0,0.0,0.0,0.0,0.0,0.0,0.0,0.0,0.0,0.0,0.0,0.0,0.0,0.0,0.0,0.0,0.0,0.0,0.0,0.0,0.0,0.0,0.0,0.0,0.0,0.0,0.0,0.0,0.0,0.0,0.0,0.0,0.0,0.0,0.0,0.0,0.0,0.0,0.0,0.0,0.0,0.0,0.0,0.0,0.0,0.0,0.0,0.0,0.0,0.0,0.0,0.0,0.0,0.0,0.0,0.0,0.0,0.0,0.0,0.0,0.0,0.0,0.0,0.0,0.0,0.0,0.0,0.0,0.0,0.0,0.0,0.0,0.0,0.0,0.0,0.0,0.0,0.0,0.0,0.0,0.0,0.0,0.0,0.0,0.0,0.0,0.0,0.0,0.0,0.0,0.0,0.0,0.0,0.0,0.0,0.0,0.0,0.0,0.0,0.0,0.0,0.0,0.0,0.0,0.0,0.0,0.0,0.0,0.0,0.0,0.0,0.0,0.0,0.0,0.0,0.0,0.0,0.0,0.0,0.0,0.0,0.0,0.0,0.0,0.0,0.0,0.0,0.0,0.0,0.0,0.0,0.0,0.0,0.0,0.0,0.0,0.0,0.0,0.0,0.0,0.0,0.0,0.0,0.0,0.0,0.0,0.0,0.0,0.0,0.0,0.0,0.0,0.0,0.0,0.0,0.0,0.0,0.0,0.0,0.0,0.0,0.0,0.0,0.0,0.0,0.0,0.0,0.0,0.0,0.0,0.0,0.0,0.0,0.0,0.0,0.0,0.0,0.0,0.0,0.0,0.0,0.0,0.0,0.0,0.0,0.0,0.0,0.0,0.0,0.0,0.0,0.0,0.0,0.0,0.0,0.0,0.0,0.0,0.0,0.0,0.0,0.0,0.0,0.0,0.0,0.0,0.0,0.0,0.0,0.0,0.0,0.0,0.0,0.0,0.0,0.0,0.0,0.0,0.0,0.0,0.0,0.0,0.0,0.0,0.0,0.0,0.0,0.0,0.0,0.0,0.0,0.0,0.0,0.0,0.0,0.0,0.0,0.0,0.0,0.0,0.0,0.0,0.0,0.0,0.0,0.0,0.0,0.0,0.0,0.0,0.0,0.0,0.0,0.0,0.0,0.0,0.0,0.0,0.0,0.0,0.0,0.0,0.0,0.0,0.0,0.0,0.0,0.0,0.0,0.0,0.0,0.0,0.0,0.0,0.0,0.0,0.0,0.0,0.0,0.0,0.0,0.0,0.0,0.0,0.0,0.0,0.0,0.0,0.0,0.0,0.0,0.0,0.0,0.0,0.0,0.0,0.0,0.0,0.0,0.0,0.0,0.0,0.0,0.0,0.0,0.0,0.0,0.0,0.0,0.0,0.0,0.0,0.0,0.0,0.0,0.0,0.0,0.0,0.0,0.0,0.0,0.0,0.0,0.0,0.0,0.0,0.0,0.0,0.0,0.0,0.0,0.0,0.0,0.0,0.0,0.0,0.0,0.0,0.0,0.0,0.0,0.0,0.0,0.0,0.0,0.0,0.0,0.0,0.0,0.0,0.0,0.0,0.0,0.0,0.0,0.0,0.0,0.0,0.0,0.0,0.0,0.0,0.0,0.0,0.0,0.0,0.0,0.0,0.0,0.0,0.0,0.0,0.0,0.0,0.0,0.0,0.0,0.0,0.0,0.0,0.0,0.0,0.0,0.0,0.0,0.0,0.0,0.0,0.0,0.0,0.0,0.0,0.0,0.0,0.0,0.0,0.0,0.0,0.0,0.0,0.0,0.0,0.0,0.0,0.0,0.0,0.0,0.0,0.0,0.0,0.0,0.0,0.0,0.0,0.0,0.0,0.0,0.0,0.0,0.0,0.0,0.0,0.0,0.0,0.0,0.0,0.0,0.0,0.0,0.0,0.0,0.0,0.0,0.0,0.0,0.0,0.0,0.0,0.0,0.0,0.0,0.0,0.0,0.0,0.0,0.0,0.0,0.0,0.0,0.0,0.0,0.0,0.0,0.0,0.0,0.0,0.0,0.0,0.0,0.0,0.0,0.0,0.0,0.0,0.0,0.0,0.0,0.0,0.0,0.0,0.0,0.0,0.0,0.0,0.0,0.0,0.0,0.0,0.0,0.0,0.0,0.0,0.0,0.0,0.0,0.0,0.0,0.0,0.0,0.0,0.0,0.0,0.0,0.0,0.0,0.0,0.0,0.0,0.0,0.0,0.0,0.0,0.0,0.0,0.0,0.0,0.0,0.0,0.0,0.0,0.0,0.0,0.0,-2.9114,0.0,0.0,0.0,0.0,0.0,0.0,0.0,0.0,0.0,0.0,0.0,0.0,0.0,0.0,0.0,0.0,0.0,0.0,0.0,0.0,0.0,0.0,0.0,0.0,0.0,0.0,0.0,0.0,0.0,0.0,0.0,0.0,0.0,0.0,0.0,0.0,0.0,0.0,0.0,0.0,0.0,0.0,0.0,0.0,0.0,0.0,0.0,0.0,0.0,0.0,0.0,0.0,0.0,0.0,0.0,0.0,0.0,0.0,0.0,0.0,0.0,0.0,0.0,0.0,0.0,0.0,0.0,0.0,0.0,0.0,0.0,0.0,0.0,0.0,0.0,0.0,0.0,0.0,0.0,0.0,0.0,0.0,0.0,0.0,0.0,0.0,0.0,0.0,0.0,0.0,0.0,0.0,0.0,0.0,0.0,0.0,0.0,0.0,0.0,0.0,0.0,0.0,0.0,0.0,0.0,0.0,0.0,0.0,0.0,0.0,-3.127,-3.0236,-2.9864,-2.9516,-2.9114,0.0,0.0,0.0,0.0,0.0,0.0,0.0,0.0,0.0,0.0,0.0,0.0,0.0,0.0,0.0,0.0,0.0,0.0,0.0,0.0,0.0,0.0,0.0,0.0,0.0,0.0,0.0,0.0,0.0,0.0,0.0,0.0,0.0,0.0,0.0,0.0,0.0,0.0,0.0,0.0,0.0,0.0,0.0,0.0,0.0,0.0,0.0,0.0,0.0,0.0,0.0,0.0,0.0,0.0,0.0,0.0,0.0,0.0,0.0,0.0,0.0,0.0,0.0,0.0,0.0,0.0,0.0,0.0,0.0,0.0,0.0,0.0,0.0,0.0,0.0,0.0,0.0,0.0,0.0,0.0,0.0,0.0,0.0,0.0,0.0,0.0,0.0,0.0,0.0,0.0,0.0,0.0,0.0,0.0,0.0,0.0,0.0,0.0,0.0,0.0,0.0,0.0,0.0,0.0,0.0,0.0,0.0,0.0,0.0,0.0,0.0,0.0,-3.0299,-2.9872,-2.9146,0.0,0.0,0.0,0.0,0.0,0.0,0.0,0.0,0.0,0.0,0.0,0.0,0.0,0.0,0.0,0.0,0.0,0.0,0.0,0.0,0.0,0.0,0.0,0.0,0.0,0.0,0.0,0.0,0.0,0.0,0.0,0.0,0.0,0.0,0.0,0.0,0.0,0.0,0.0,0.0,0.0,0.0,0.0,0.0,0.0,0.0,0.0,0.0,0.0,0.0,0.0,0.0,0.0,0.0,0.0,0.0,0.0,0.0,0.0,0.0,0.0,0.0,0.0,0.0,0.0,0.0,0.0,0.0,0.0,0.0,0.0,0.0,0.0,0.0,0.0,0.0,0.0,0.0,0.0,0.0,0.0,0.0,0.0,0.0,0.0,0.0,0.0,0.0,0.0,0.0,0.0,0.0,0.0,0.0,0.0,0.0,0.0,0.0,0.0,0.0,0.0,0.0,0.0,0.0,0.0,0.0,0.0,0.0,0.0,0.0,-3.1928,-3.1144,-3.0512,0.0,-2.9177,0.0,0.0,0.0,0.0,0.0,0.0,0.0,0.0,0.0,0.0,0.0,0.0,0.0,0.0,0.0,0.0,0.0,0.0,0.0,0.0,0.0,0.0,0.0,0.0,0.0,0.0,0.0,0.0,0.0,0.0,0.0,0.0,0.0,0.0,0.0,0.0,0.0,0.0,0.0,0.0,0.0,0.0,0.0,0.0,0.0,0.0,0.0,0.0,0.0,0.0,0.0,0.0,0.0,0.0,0.0,0.0,0.0,0.0,0.0,0.0,0.0,0.0,0.0,0.0,0.0,0.0,0.0,0.0,0.0,0.0,0.0,0.0,0.0,0.0,0.0,0.0,0.0,0.0,0.0,0.0,0.0,0.0,0.0,0.0,0.0,0.0,0.0,0.0,0.0,0.0,0.0,0.0,0.0,0.0,0.0,0.0,0.0,0.0,0.0,0.0,0.0,0.0,0.0,0.0,0.0,0.0,0.0,0.0,0.0,0.0,-3.255,-3.188,-3.0773,-2.9848,0.0,0.0,0.0,0.0,0.0,0.0,0.0,0.0,0.0,0.0,0.0,0.0,0.0,0.0,0.0,0.0,0.0,0.0,0.0,0.0,0.0,0.0,0.0,0.0,0.0,0.0,0.0,0.0,0.0,0.0,0.0,0.0,0.0,0.0,0.0,0.0,0.0,0.0,0.0,0.0,0.0,0.0,0.0,0.0,0.0,0.0,0.0,0.0,0.0,0.0,0.0,0.0,0.0,0.0,0.0,0.0,0.0,0.0,0.0,0.0,0.0,0.0,0.0,0.0,0.0,0.0,0.0,0.0,0.0,0.0,0.0,0.0,0.0,0.0,0.0,0.0,0.0,0.0,0.0,0.0,0.0,0.0,0.0,0.0,0.0,0.0,0.0,0.0,0.0,0.0,0.0,0.0,0.0,0.0,0.0,0.0,0.0,0.0,0.0,0.0,0.0,0.0,0.0,0.0,0.0,0.0,0.0,0.0,0.0,0.0,-3.3176,-3.2951,-3.2276,-3.0931,-2.9967,-2.9414,0.0,0.0,0.0,0.0,0.0,0.0,0.0,0.0,0.0,0.0,0.0,0.0,0.0,0.0,0.0,0.0,0.0,0.0,0.0,0.0,0.0,0.0,0.0,0.0,0.0,0.0,0.0,0.0,0.0,0.0,0.0,0.0,0.0,0.0,0.0,0.0,0.0,0.0,0.0,0.0,0.0,0.0,0.0,0.0,0.0,0.0,0.0,0.0,0.0,0.0,0.0,0.0,0.0,0.0,0.0,0.0,0.0,0.0,0.0,0.0,0.0,0.0,0.0,0.0,0.0,0.0,0.0,0.0,0.0,0.0,0.0,0.0,0.0,0.0,0.0,0.0,0.0,0.0,0.0,0.0,0.0,0.0,0.0,0.0,0.0,0.0,0.0,0.0,0.0,0.0,0.0,0.0,0.0,0.0,0.0,0.0,0.0,0.0,0.0,0.0,0.0,0.0,0.0,0.0,0.0,0.0,0.0,0.0,-3.2897,-3.3032,-3.2861,-3.2291,-3.0931,-3.0188,0.0,0.0,0.0,0.0,0.0,0.0,0.0,0.0,0.0,0.0,0.0,0.0,0.0,0.0,0.0,0.0,0.0,0.0,0.0,0.0,0.0,0.0,0.0,0.0,0.0,0.0,0.0,0.0,0.0,0.0,0.0,0.0,0.0,0.0,0.0,0.0,0.0,0.0,0.0,0.0,0.0,0.0,0.0,0.0,0.0,0.0,0.0,0.0,0.0,0.0,0.0,0.0,0.0,0.0,0.0,0.0,0.0,0.0,0.0,0.0,0.0,0.0,0.0,0.0,0.0,0.0,0.0,0.0,0.0,0.0,0.0,0.0,0.0,0.0,0.0,0.0,0.0,0.0,0.0,0.0,0.0,0.0,0.0,0.0,0.0,0.0,0.0,0.0,0.0,0.0,0.0,0.0,0.0,0.0,0.0,0.0,0.0,0.0,0.0,0.0,0.0,0.0,0.0,0.0,0.0,0.0,0.0,0.0,0.0,-3.2718,-3.2897,-3.266,-3.2008,-3.1465,-3.1011,0.0,0.0,0.0,0.0,0.0,0.0,0.0,0.0,0.0,0.0,0.0,0.0,0.0,0.0,0.0,0.0,0.0,0.0,0.0,0.0,0.0,0.0,0.0,0.0,0.0,0.0,0.0,0.0,0.0,0.0,0.0,0.0,0.0,0.0,0.0,0.0,0.0,0.0,0.0,0.0,0.0,0.0,0.0,0.0,0.0,0.0,0.0,0.0,0.0,0.0,0.0,0.0,0.0,0.0,0.0,0.0,0.0,0.0,0.0,0.0,0.0,0.0,0.0,0.0,0.0,0.0,0.0,0.0,0.0,0.0,0.0,0.0,0.0,0.0,0.0,0.0,0.0,0.0,0.0,0.0,0.0,0.0,0.0,0.0,0.0,0.0,0.0,0.0,0.0,0.0,0.0,0.0,0.0,0.0,0.0,0.0,0.0,0.0,0.0,0.0,0.0,0.0,0.0,0.0,0.0,0.0,0.0,0.0,0.0,-3.2605,0.0,-3.2609,-3.2153,-3.1919,-3.1592,0.0,0.0,0.0,0.0,0.0,0.0,0.0,0.0,0.0,0.0,0.0,0.0,0.0,0.0,0.0,0.0,0.0,0.0,0.0,0.0,0.0,0.0,0.0,0.0,0.0,0.0,0.0,0.0,0.0,0.0,0.0,0.0,0.0,0.0,0.0,0.0,0.0,0.0,0.0,0.0,0.0,0.0,0.0,0.0,0.0,0.0,0.0,0.0,0.0,0.0,0.0,0.0,0.0,0.0,0.0,0.0,0.0,0.0,0.0,0.0,0.0,0.0,0.0,0.0,0.0,0.0,0.0,0.0,0.0,0.0,0.0,0.0,0.0,0.0,0.0,0.0,0.0,0.0,0.0,0.0,0.0,0.0,0.0,0.0,0.0,0.0,0.0,0.0,0.0,0.0,0.0,0.0,0.0,0.0,0.0,0.0,0.0,0.0,0.0,0.0,0.0,0.0,0.0,0.0,0.0,0.0,0.0,0.0,-3.2484,-3.2594,-3.2594,-3.266,-3.2854,-3.2184,-3.181,0.0,0.0,0.0,0.0,0.0,0.0,0.0,0.0,0.0,0.0,0.0,0.0,0.0,0.0,0.0,0.0,0.0,0.0,0.0,0.0,0.0,0.0,0.0,0.0,0.0,0.0,0.0,0.0,0.0,0.0,0.0,0.0,0.0,0.0,0.0,0.0,0.0,0.0,0.0,0.0,0.0,0.0,0.0,0.0,0.0,0.0,0.0,0.0,0.0,0.0,0.0,0.0,0.0,0.0,0.0,0.0,0.0,0.0,0.0,0.0,0.0,0.0,0.0,0.0,0.0,0.0,0.0,0.0,0.0,0.0,0.0,0.0,0.0,0.0,0.0,0.0,0.0,0.0,0.0,0.0,0.0,0.0,0.0,0.0,0.0,0.0,0.0,0.0,0.0,0.0,0.0,0.0,0.0,0.0,0.0,0.0,0.0,0.0,0.0,0.0,0.0,0.0,0.0,0.0,0.0,0.0,0.0,0.0,0.0,-3.2468,-3.2453,-3.2496,-3.2551,-3.2334,-3.2226,0.0,0.0,0.0,0.0,0.0,0.0,0.0,0.0,0.0,0.0,0.0,0.0,0.0,0.0,0.0,0.0,0.0,0.0,0.0,0.0,0.0,0.0,0.0,0.0,0.0,0.0,0.0,0.0,0.0,0.0,0.0,0.0,0.0,0.0,0.0,0.0,0.0,0.0,0.0,0.0,0.0,0.0,0.0,0.0,0.0,0.0,0.0,0.0,0.0,0.0,0.0,0.0,0.0,0.0,0.0,0.0,0.0,0.0,0.0,0.0,0.0,0.0,0.0,0.0,0.0,0.0,0.0,0.0,0.0,0.0,0.0,0.0,0.0,0.0,0.0,0.0,0.0,0.0,0.0,0.0,0.0,0.0,0.0,0.0,0.0,0.0,0.0,0.0,0.0,0.0,0.0,0.0,0.0,0.0,0.0,0.0,0.0,0.0,0.0,0.0,0.0,0.0,0.0,0.0,0.0,0.0,0.0,0.0,0.0,-3.3195,-3.2906,-3.2767,-3.2767,-3.2536,-3.2521,-3.2736,0.0,0.0,0.0,0.0,0.0,0.0,0.0,0.0,0.0,0.0,0.0,0.0,0.0,0.0,0.0,0.0,0.0,0.0,0.0,0.0,0.0,0.0,0.0,0.0,0.0,0.0,0.0,0.0,0.0,0.0,0.0,0.0,0.0,0.0,0.0,0.0,0.0,0.0,0.0,0.0,0.0,0.0,0.0,0.0,0.0,0.0,0.0,0.0,0.0,0.0,0.0,0.0,0.0,0.0,0.0,0.0,0.0,0.0,0.0,0.0,0.0,0.0,0.0,0.0,0.0,0.0,0.0,0.0,0.0,0.0,0.0,0.0,0.0,0.0,0.0,0.0,0.0,0.0,0.0,0.0,0.0,0.0,0.0,0.0,0.0,0.0,0.0,0.0,0.0,0.0,0.0,0.0,0.0,0.0,0.0,0.0,0.0,0.0,0.0,0.0,0.0,0.0,0.0,0.0,0.0,0.0,0.0,0.0,-3.4474,-3.3844,-3.3506,-3.3444,-3.2813,-3.2752,0.0,0.0,0.0,0.0,0.0,0.0,0.0,0.0,0.0,0.0,0.0,0.0,0.0,0.0,0.0,0.0,0.0,0.0,0.0,0.0,0.0,0.0,0.0,0.0,0.0,0.0,0.0,0.0,0.0,0.0,0.0,0.0,0.0,0.0,0.0,0.0,0.0,0.0,0.0,0.0,0.0,0.0,0.0,0.0,0.0,0.0,0.0,0.0,0.0,0.0,0.0,0.0,0.0,0.0,0.0,0.0,0.0,0.0,0.0,0.0,0.0,0.0,0.0,0.0,0.0,0.0,0.0,0.0,0.0,0.0,0.0,0.0,0.0,0.0,0.0,0.0,0.0,0.0,0.0,0.0,0.0,0.0,0.0,0.0,0.0,0.0,0.0,0.0,0.0,0.0,0.0,0.0,0.0,0.0,0.0,0.0,0.0,0.0,0.0,0.0,0.0,0.0,0.0,0.0,0.0,0.0,0.0,0.0,0.0,-3.4505,-3.4797,-3.472,-3.4227,-3.3521,-3.3213,0.0,0.0,0.0,0.0,0.0,0.0,0.0,0.0,0.0,0.0,0.0,0.0,0.0,0.0,0.0,0.0,0.0,0.0,0.0,0.0,0.0,0.0,0.0,0.0,0.0,0.0,0.0,0.0,0.0,0.0,0.0,0.0,0.0,0.0,0.0,0.0,0.0,0.0,0.0,0.0,0.0,0.0,0.0,0.0,0.0,0.0,0.0,0.0,0.0,0.0,0.0,0.0,0.0,0.0,0.0,0.0,0.0,0.0,0.0,0.0,0.0,0.0,0.0,0.0,0.0,0.0,0.0,0.0,0.0,0.0,0.0,0.0,0.0,0.0,0.0,0.0,0.0,0.0,0.0,0.0,0.0,0.0,0.0,0.0,0.0,0.0,0.0,0.0,0.0,0.0,0.0,0.0,0.0,0.0,0.0,0.0,0.0,0.0,0.0,0.0,0.0,0.0,0.0,0.0,0.0,0.0,0.0,0.0,-3.5075,-3.5352,-3.5707,-3.5752,-3.5337,-3.4383,-3.386,0.0,0.0,0.0,0.0,0.0,0.0,0.0,0.0,0.0,0.0,0.0,0.0,0.0,0.0,0.0,0.0,0.0,0.0,0.0,0.0,0.0,0.0,0.0,0.0,0.0,0.0,0.0,0.0,0.0,0.0,0.0,0.0,0.0,0.0,0.0,0.0,0.0,0.0,0.0,0.0,0.0,0.0,0.0,0.0,0.0,0.0,0.0,0.0,0.0,0.0,0.0,0.0,0.0,0.0,0.0,0.0,0.0,0.0,0.0,0.0,0.0,0.0,0.0,0.0,0.0,0.0,0.0,0.0,0.0,0.0,0.0,0.0,0.0,0.0,0.0,0.0,0.0,0.0,0.0,0.0,0.0,0.0,0.0,0.0,0.0,0.0,0.0,0.0,0.0,0.0,0.0,0.0,0.0,0.0,0.0,0.0,0.0,0.0,0.0,0.0,0.0,0.0,0.0,0.0,0.0,0.0,0.0,0.0,-3.5722,-3.643,-3.646,-3.646,-3.6414,-3.5245,-3.4613,0.0,0.0,0.0,0.0,0.0,0.0,0.0,0.0,0.0,0.0,0.0,0.0,0.0,0.0,0.0,0.0,0.0,0.0,0.0,0.0,0.0,0.0,0.0,0.0,0.0,0.0,0.0,0.0,0.0,0.0,0.0,0.0,0.0,0.0,0.0,0.0,0.0,0.0,0.0,0.0,0.0,0.0,0.0,0.0,0.0,0.0,0.0,0.0,0.0,0.0,0.0,0.0,0.0,0.0,0.0,0.0,0.0,0.0,0.0,0.0,0.0,0.0,0.0,0.0,0.0,0.0,0.0,0.0,0.0,0.0,0.0,0.0,0.0,0.0,0.0,0.0,0.0,0.0,0.0,0.0,0.0,0.0,0.0,0.0,0.0,0.0,0.0,0.0,0.0,0.0,0.0,0.0,0.0,0.0,0.0,0.0,0.0,0.0,0.0,0.0,0.0,0.0,0.0,0.0,0.0,0.0,0.0,0.0,-3.4912,-3.607,-3.61,-3.61,-3.61,-3.5569,-3.5306,0.0,0.0,0.0,0.0,0.0,0.0,0.0,0.0,0.0,0.0,0.0,0.0,0.0,0.0,0.0,0.0,0.0,0.0,0.0,0.0,0.0,0.0,0.0,0.0,0.0,0.0,0.0,0.0,0.0,0.0,0.0,0.0,0.0,0.0,0.0,0.0,0.0,0.0,0.0,0.0,0.0,0.0,0.0,0.0,0.0,0.0,0.0,0.0,-3.7422,0.0,0.0,0.0,0.0,0.0,0.0,0.0,0.0,0.0,0.0,0.0,0.0,0.0,0.0,0.0,0.0,0.0,0.0,0.0,0.0,0.0,0.0,0.0,0.0,0.0,0.0,0.0,0.0,0.0,0.0,0.0,0.0,0.0,0.0,0.0,0.0,0.0,0.0,0.0,0.0,0.0,0.0,0.0,0.0,0.0,0.0,0.0,0.0,0.0,0.0,0.0,0.0,0.0,0.0,0.0,0.0,0.0,0.0,0.0,-3.4743,-3.5519,-3.5838,-3.602,-3.6005,-3.5827,-3.5584,0.0,0.0,0.0,0.0,0.0,0.0,0.0,0.0,0.0,0.0,0.0,0.0,0.0,0.0,0.0,0.0,0.0,0.0,0.0,0.0,0.0,0.0,0.0,0.0,0.0,0.0,0.0,0.0,0.0,0.0,0.0,0.0,0.0,0.0,0.0,0.0,0.0,0.0,0.0,0.0,0.0,0.0,0.0,0.0,0.0,0.0,0.0,0.0,0.0,0.0,0.0,0.0,0.0,0.0,0.0,0.0,0.0,0.0,0.0,0.0,0.0,0.0,0.0,0.0,0.0,0.0,0.0,0.0,0.0,0.0,0.0,0.0,0.0,0.0,0.0,0.0,0.0,0.0,0.0,0.0,0.0,0.0,0.0,0.0,0.0,0.0,0.0,0.0,0.0,0.0,0.0,0.0,0.0,0.0,0.0,0.0,0.0,0.0,0.0,0.0,0.0,0.0,0.0,0.0,0.0,0.0,0.0,-3.4056,-3.4482,-3.4711,-3.5241,-3.5528,-3.5543,-3.5634,-3.5422,-3.4878,0.0,0.0,0.0,0.0,0.0,0.0,0.0,0.0,0.0,0.0,0.0,0.0,0.0,0.0,0.0,0.0,0.0,0.0,0.0,0.0,0.0,0.0,0.0,0.0,0.0,0.0,0.0,0.0,0.0,0.0,0.0,0.0,0.0,0.0,0.0,0.0,0.0,0.0,-3.5046,-3.6907,0.0,0.0,0.0,0.0,0.0,0.0,0.0,0.0,-3.84,0.0,0.0,0.0,0.0,0.0,0.0,0.0,0.0,0.0,0.0,0.0,0.0,0.0,0.0,0.0,0.0,0.0,0.0,0.0,0.0,0.0,0.0,0.0,0.0,0.0,0.0,0.0,0.0,0.0,0.0,0.0,0.0,0.0,0.0,0.0,0.0,0.0,0.0,0.0,0.0,0.0,0.0,0.0,0.0,0.0,0.0,0.0,0.0,0.0,0.0,0.0,0.0,0.0,0.0,0.0,0.0,-3.2803,-3.2608,-3.2761,-3.3326,-3.3444,-3.3504,-3.3519,-3.4053,-3.4273,-3.4171,0.0,0.0,0.0,0.0,0.0,0.0,0.0,0.0,0.0,0.0,0.0,0.0,0.0,0.0,0.0,0.0,0.0,0.0,0.0,0.0,0.0,0.0,0.0,0.0,0.0,0.0,0.0,0.0,0.0,0.0,0.0,0.0,0.0,0.0,0.0,0.0,0.0,0.0,0.0,-3.7843,-3.8928,0.0,0.0,0.0,0.0,0.0,0.0,0.0,0.0,-3.9234,0.0,0.0,0.0,0.0,0.0,0.0,0.0,0.0,0.0,0.0,0.0,0.0,0.0,0.0,0.0,0.0,0.0,0.0,0.0,0.0,0.0,0.0,0.0,0.0,0.0,0.0,0.0,0.0,0.0,0.0,0.0,0.0,0.0,0.0,0.0,0.0,0.0,0.0,0.0,0.0,0.0,0.0,0.0,0.0,0.0,0.0,0.0,0.0,0.0,0.0,0.0,0.0,0.0,0.0,0.0,-3.2179,-3.1768,-3.178,-3.2242,-3.2579,-3.2754,-3.2754,-3.3399,-3.375,0.0,0.0,0.0,0.0,0.0,0.0,0.0,0.0,0.0,0.0,0.0,0.0,0.0,0.0,0.0,0.0,0.0,0.0,0.0,0.0,0.0,0.0,0.0,0.0,0.0,0.0,0.0,0.0,0.0,0.0,0.0,0.0,0.0,0.0,0.0,0.0,0.0,0.0,0.0,0.0,-3.8368,-3.9378,-3.9414,0.0,0.0,0.0,0.0,0.0,0.0,-3.9912,-3.9914,0.0,0.0,0.0,0.0,0.0,0.0,0.0,0.0,0.0,0.0,0.0,0.0,0.0,0.0,0.0,0.0,0.0,0.0,0.0,0.0,0.0,0.0,0.0,0.0,0.0,0.0,0.0,0.0,0.0,0.0,0.0,0.0,0.0,0.0,0.0,0.0,0.0,0.0,0.0,0.0,0.0,0.0,0.0,0.0,0.0,0.0,0.0,0.0,0.0,0.0,0.0,0.0,0.0,0.0,0.0,-3.1598,-3.1052,-3.0885,-3.1197,-3.1674,-3.1887,-3.1948,-3.2667,-3.3071,0.0,0.0,0.0,0.0,0.0,0.0,0.0,0.0,0.0,0.0,0.0,0.0,0.0,0.0,0.0,0.0,0.0,0.0,0.0,0.0,0.0,0.0,0.0,0.0,0.0,0.0,0.0,0.0,0.0,0.0,0.0,0.0,0.0,0.0,0.0,0.0,0.0,0.0,0.0,0.0,0.0,-3.9464,-3.9917,-3.9734,0.0,0.0,0.0,0.0,-3.9894,-4.0191,0.0,0.0,0.0,0.0,0.0,0.0,0.0,0.0,0.0,0.0,0.0,0.0,0.0,0.0,0.0,0.0,0.0,0.0,0.0,0.0,0.0,0.0,0.0,0.0,0.0,0.0,0.0,0.0,0.0,0.0,0.0,0.0,0.0,0.0,0.0,0.0,0.0,0.0,0.0,0.0,0.0,0.0,0.0,0.0,0.0,0.0,0.0,0.0,0.0,0.0,0.0,0.0,0.0,0.0,0.0,0.0,-3.0898,-3.0007,-2.961,-2.9794,-2.991,-2.9939,-2.9953,-3.1035,-3.1655,0.0,0.0,0.0,0.0,0.0,0.0,0.0,0.0,0.0,0.0,0.0,0.0,0.0,0.0,0.0,0.0,0.0,0.0,0.0,0.0,0.0,0.0,0.0,0.0,0.0,0.0,0.0,0.0,0.0,0.0,0.0,0.0,0.0,0.0,0.0,0.0,0.0,0.0,0.0,0.0,0.0,-3.9217,-3.9452,-3.9284,-3.9338,0.0,0.0,-3.8561,-3.9285,-3.9486,0.0,0.0,0.0,0.0,0.0,0.0,0.0,0.0,0.0,0.0,0.0,0.0,0.0,0.0,0.0,0.0,0.0,0.0,0.0,0.0,0.0,0.0,0.0,0.0,0.0,0.0,0.0,0.0,0.0,0.0,0.0,0.0,0.0,0.0,0.0,0.0,0.0,0.0,0.0,0.0,0.0,0.0,0.0,0.0,0.0,0.0,0.0,0.0,0.0,0.0,0.0,0.0,0.0,0.0,0.0,-2.8496,-3.0324,-2.919,-2.872,-2.9004,-2.9035,-2.9035,-2.9035,-3.0207,-3.0827,0.0,0.0,0.0,0.0,0.0,0.0,0.0,0.0,0.0,0.0,0.0,0.0,0.0,0.0,0.0,0.0,0.0,0.0,0.0,0.0,0.0,0.0,0.0,0.0,0.0,0.0,0.0,0.0,0.0,0.0,0.0,0.0,0.0,0.0,0.0,0.0,0.0,0.0,0.0,0.0,0.0,0.0,-3.9255,-3.9431,0.0,0.0,0.0,-3.9292,-3.9903,0.0,0.0,0.0,0.0,0.0,0.0,0.0,0.0,0.0,0.0,0.0,0.0,0.0,0.0,0.0,0.0,0.0,0.0,0.0,0.0,0.0,0.0,0.0,0.0,0.0,0.0,0.0,0.0,0.0,0.0,0.0,0.0,0.0,0.0,0.0,0.0,0.0,0.0,0.0,0.0,0.0,0.0,0.0,0.0,0.0,0.0,0.0,0.0,0.0,0.0,0.0,0.0,0.0,0.0,0.0,0.0,0.0,-2.9626,-2.8437,-2.7941,-2.8295,-2.8327,-2.8327,-2.8341,-2.9504,0.0,0.0,0.0,0.0,0.0,0.0,0.0,0.0,0.0,0.0,0.0,0.0,0.0,0.0,0.0,0.0,0.0,0.0,0.0,0.0,0.0,0.0,0.0,0.0,0.0,0.0,0.0,-2.6343,0.0,0.0,0.0,0.0,0.0,0.0,0.0,0.0,0.0,0.0,0.0,0.0,0.0,0.0,-3.7792,-3.8863,-3.931,-3.9646,0.0,0.0,-3.9945,-4.0299,-3.9979,-3.9601,0.0,0.0,0.0,0.0,0.0,0.0,0.0,0.0,0.0,0.0,0.0,0.0,0.0,0.0,0.0,0.0,0.0,0.0,0.0,0.0,0.0,0.0,0.0,0.0,0.0,0.0,0.0,0.0,0.0,0.0,0.0,0.0,0.0,0.0,0.0,0.0,0.0,0.0,0.0,0.0,0.0,0.0,0.0,0.0,0.0,0.0,0.0,0.0,0.0,0.0,0.0,0.0,0.0,0.0,-2.7173,-2.8597,-2.7618,-2.7255,-2.7556,-2.7556,-2.759,-2.7583,-2.8682,-2.9271,0.0,0.0,0.0,0.0,0.0,0.0,0.0,0.0,0.0,0.0,0.0,0.0,0.0,0.0,0.0,0.0,0.0,0.0,0.0,0.0,0.0,0.0,0.0,0.0,0.0,0.0,0.0,0.0,0.0,0.0,0.0,0.0,0.0,0.0,0.0,0.0,0.0,0.0,0.0,0.0,0.0,-3.6691,-3.8087,-3.8563,-3.8953,0.0,-3.9794,-3.9923,-3.991,-3.9854,-3.9658,-3.9332,0.0,0.0,0.0,0.0,0.0,0.0,0.0,0.0,0.0,0.0,0.0,0.0,0.0,0.0,0.0,0.0,0.0,0.0,0.0,0.0,0.0,0.0,0.0,0.0,0.0,0.0,0.0,0.0,0.0,0.0,0.0,0.0,0.0,0.0,0.0,0.0,0.0,0.0,0.0,0.0,0.0,0.0,0.0,0.0,0.0,0.0,0.0,0.0,0.0,0.0,0.0,0.0,0.0,-2.6669,-2.8536,-2.7423,-2.714,-2.7774,-2.7786,-2.7822,-2.7799,-2.8267,-2.852,0.0,0.0,0.0,0.0,0.0,0.0,0.0,0.0,0.0,0.0,0.0,0.0,0.0,0.0,0.0,0.0,0.0,0.0,0.0,0.0,0.0,0.0,0.0,0.0,0.0,0.0,0.0,0.0,-2.6311,-2.6822,-2.7161,0.0,0.0,0.0,0.0,0.0,0.0,0.0,0.0,0.0,0.0,-3.536,-3.7016,-3.7985,0.0,0.0,-3.9472,-3.979,-3.995,-3.9501,-3.9144,-3.9102,-3.8283,0.0,0.0,0.0,0.0,0.0,0.0,0.0,0.0,0.0,0.0,0.0,0.0,0.0,0.0,0.0,0.0,0.0,0.0,0.0,0.0,0.0,0.0,0.0,0.0,0.0,0.0,0.0,0.0,0.0,0.0,0.0,0.0,0.0,0.0,0.0,0.0,0.0,0.0,0.0,0.0,0.0,0.0,0.0,0.0,0.0,0.0,0.0,0.0,0.0,0.0,0.0,0.0,-2.614,-2.8092,-2.7101,-2.6883,-2.7619,-2.7631,-2.7619,-2.7631,-2.7841,-2.7978,0.0,0.0,0.0,0.0,0.0,0.0,0.0,0.0,0.0,0.0,0.0,0.0,0.0,0.0,0.0,0.0,0.0,0.0,0.0,0.0,0.0,0.0,0.0,0.0,0.0,0.0,0.0,0.0,-2.5814,-2.6229,-2.6187,0.0,0.0,0.0,0.0,0.0,0.0,0.0,0.0,0.0,0.0,-3.4242,-3.6332,-3.74,-3.8213,-3.8612,-3.9219,-3.9624,-3.9671,-3.9033,-3.8623,-3.8676,0.0,0.0,0.0,0.0,0.0,0.0,0.0,0.0,0.0,0.0,0.0,0.0,0.0,0.0,0.0,0.0,0.0,0.0,0.0,0.0,0.0,0.0,0.0,0.0,0.0,0.0,0.0,-2.5604,0.0,0.0,-2.562,0.0,0.0,0.0,0.0,0.0,0.0,0.0,0.0,0.0,0.0,0.0,0.0,0.0,0.0,0.0,0.0,0.0,0.0,0.0,0.0,0.0,0.0,-2.5596,-2.7019,-2.6502,-2.6422,-2.6848,-2.6824,-2.686,-2.6872,-2.739,-2.7693,-2.7693,0.0,0.0,0.0,0.0,0.0,0.0,0.0,0.0,0.0,0.0,0.0,0.0,0.0,0.0,0.0,0.0,0.0,0.0,0.0,0.0,0.0,0.0,0.0,0.0,0.0,0.0,-2.5716,-2.6172,-2.6309,0.0,0.0,0.0,0.0,0.0,0.0,0.0,0.0,0.0,-3.2082,-3.2464,-3.3443,-3.5966,-3.6837,-3.7442,-3.8238,-3.9104,-3.9471,-3.8931,-3.8565,-3.8316,0.0,0.0,0.0,0.0,0.0,0.0,0.0,0.0,0.0,0.0,0.0,0.0,0.0,0.0,0.0,0.0,0.0,0.0,0.0,0.0,0.0,0.0,0.0,0.0,0.0,0.0,0.0,-2.6142,-2.5944,0.0,0.0,0.0,0.0,0.0,0.0,0.0,0.0,0.0,0.0,0.0,-2.4397,-2.4471,0.0,0.0,0.0,0.0,0.0,0.0,0.0,0.0,0.0,0.0,0.0,0.0,-2.5386,-2.658,-2.6308,-2.6442,-2.7056,-2.7079,-2.7067,-2.7067,-2.6916,-2.6755,-2.662,0.0,0.0,0.0,0.0,0.0,0.0,0.0,0.0,0.0,0.0,0.0,0.0,0.0,0.0,0.0,0.0,0.0,0.0,0.0,0.0,0.0,0.0,0.0,0.0,0.0,-2.5432,0.0,0.0,0.0,0.0,0.0,0.0,0.0,0.0,0.0,0.0,0.0,-2.8279,-2.9823,-3.0284,-3.1298,-3.3499,-3.4537,-3.547,0.0,0.0,0.0,0.0,0.0,0.0,0.0,0.0,0.0,0.0,0.0,0.0,0.0,0.0,-3.4831,-3.4483,-3.4242,-3.4137,-3.4175,0.0,0.0,0.0,0.0,0.0,0.0,0.0,0.0,0.0,0.0,0.0,0.0,0.0,0.0,-2.6015,-2.5864,-2.5402,0.0,0.0,0.0,0.0,0.0,0.0,0.0,0.0,-2.442,-2.4405,-2.3951,-2.3994,-2.3948,-2.3807,-2.395,-2.3987,0.0,0.0,0.0,0.0,0.0,0.0,0.0,0.0,-2.5128,-2.6099,-2.5998,-2.6151,-2.6723,-2.6734,-2.6734,-2.6734,-2.6441,-2.619,-2.6039,-2.5755,-2.5603,0.0,0.0,0.0,0.0,0.0,0.0,0.0,0.0,0.0,0.0,0.0,0.0,0.0,0.0,0.0,0.0,0.0,0.0,0.0,0.0,0.0,0.0,0.0,-2.495,0.0,0.0,0.0,0.0,0.0,0.0,0.0,0.0,0.0,-2.6532,-2.6735,-2.7283,-2.8543,-2.9143,-3.0164,-3.2109,0.0,0.0,0.0,0.0,0.0,0.0,0.0,-3.6234,-3.6348,-3.5649,-3.4996,-3.4866,-3.4807,-3.4897,-3.5219,0.0,0.0,-3.4771,-3.4526,-3.4286,-3.4112,-3.4085,-3.4111,-3.4308,-3.4347,-3.4478,0.0,0.0,0.0,0.0,-2.5051,0.0,0.0,0.0,-2.5735,-2.5543,0.0,-2.53,0.0,0.0,0.0,0.0,-2.4283,-2.4533,0.0,0.0,-2.4154,-2.3932,-2.3419,-2.3516,-2.3446,-2.3067,-2.3057,-2.3091,-2.3096,-2.3525,0.0,0.0,0.0,0.0,0.0,0.0,-2.4806,-2.5432,-2.5443,-2.558,-2.5853,-2.5853,-2.5853,-2.5853,-2.5843,-2.5884,-2.5853,-2.56,-2.5364,-2.5104,-2.4486,0.0,0.0,0.0,0.0,0.0,0.0,0.0,0.0,0.0,0.0,0.0,0.0,0.0,0.0,0.0,0.0,0.0,0.0,0.0,0.0,-2.4143,0.0,0.0,0.0,0.0,0.0,0.0,0.0,0.0,0.0,0.0,-2.5883,-2.6357,-2.703,-2.825,0.0,0.0,0.0,0.0,-3.3265,-3.4777,-3.5001,-3.5278,-3.6062,-3.5559,-3.5108,-3.5355,0.0,0.0,-3.4372,-3.4823,-3.5138,-3.5163,-3.5069,-3.5086,-3.5081,-3.5053,-3.4901,-3.4421,-3.4277,-3.4413,-3.462,-3.4543,-3.4719,-2.4093,0.0,0.0,0.0,0.0,-2.4707,-2.489,-2.514,-2.4621,-2.4354,-2.4345,-2.4122,0.0,0.0,0.0,0.0,0.0,0.0,-2.3644,-2.3242,-2.3289,-2.3066,-2.2583,-2.2385,-2.2199,-2.2087,-2.2132,-2.2087,-2.2132,-2.223,-2.2674,-2.3383,0.0,0.0,0.0,0.0,-2.4373,-2.4572,-2.4733,-2.485,-2.4893,-2.4935,-2.4978,-2.5168,-2.5327,-2.5422,-2.5369,-2.5327,-2.5263,-2.5166,-2.4655,0.0,0.0,0.0,0.0,0.0,0.0,0.0,0.0,0.0,0.0,0.0,0.0,0.0,0.0,0.0,0.0,0.0,0.0,0.0,-2.3888,-2.3597,-2.3363,0.0,0.0,0.0,0.0,0.0,0.0,0.0,0.0,0.0,-2.374,-2.4798,-2.5857,0.0,0.0,-2.8969,-3.0189,-3.0803,-3.1524,-3.272,-3.2913,0.0,-3.4215,-3.3862,-3.3551,-3.3799,-3.3733,-3.3755,-3.4113,-3.431,-3.4457,-3.458,-3.4342,-3.4025,-3.3805,-3.4009,-3.3976,-3.3525,-3.3416,-3.3543,-3.3882,-3.3966,-3.4147,-2.2979,-2.3643,-2.3709,-2.3672,-2.3533,-2.3477,-2.3648,-2.3959,-2.343,-2.3242,-2.3242,-2.2986,-2.2735,-2.2508,-2.2517,0.0,0.0,0.0,-2.256,-2.2336,-2.2366,-2.2151,-2.1721,-2.1489,-2.1292,-2.1159,-2.115,-2.1141,-2.115,-2.106,-2.141,-2.2211,0.0,-2.296,-2.3222,-2.358,-2.3754,-2.3754,-2.3864,-2.394,-2.394,-2.4036,-2.4219,-2.4476,-2.4562,-2.4647,-2.4647,-2.4647,-2.4647,-2.4647,-2.4231,-2.3857,0.0,0.0,0.0,0.0,0.0,0.0,0.0,0.0,0.0,0.0,0.0,-2.2147,-2.2311,0.0,0.0,0.0,-2.3092,-2.3239,-2.3149,-2.2687,0.0,0.0,0.0,0.0,0.0,0.0,0.0,-2.2085,-2.222,-2.2274,-2.2372,-2.3479,-2.4604,-2.551,-2.6804,-2.7975,-2.8797,0.0,-3.0286,-3.1328,-3.1498,-3.188,-3.2888,-3.2625,-3.2348,-3.2553,-3.2808,-3.2989,-3.3093,-3.3317,-3.3431,-3.3367,-3.3266,-3.3114,-3.2672,-3.2817,-3.2933,-3.268,-3.2599,-3.2772,-3.3202,-3.3313,-3.3428,-2.1794,-2.2075,-2.1887,-2.1837,-2.1919,-2.1848,-2.2064,-2.2413,-2.2253,-2.2167,-2.2138,-2.1921,-2.1644,-2.1422,-2.1422,0.0,-2.1094,-2.1335,-2.1439,-2.1422,-2.1396,-2.1199,-2.0848,-2.0805,-2.0626,-2.0246,-2.0255,-2.0255,-2.0246,-2.0019,-1.9973,-2.0246,-2.1544,-2.2211,-2.2299,-2.274,-2.3003,-2.3003,-2.296,-2.3003,-2.3013,-2.3276,-2.3503,-2.3711,-2.3754,-2.3744,-2.3797,-2.3797,-2.3797,-2.3787,-2.3416,-2.3185,-2.3092,0.0,0.0,0.0,0.0,0.0,0.0,0.0,0.0,0.0,0.0,0.0,0.0,0.0,0.0,0.0,-2.2301,0.0,-2.2015,-2.157,0.0,0.0,0.0,-2.1015,-2.1257,-2.1266,-2.1338,-2.1508,0.0,0.0,-2.1562,-2.229,-2.3224,-2.4375,-2.5806,-2.6953,-2.7653,-2.8478,-2.9321,-3.0293,-3.045,-3.0839,-3.1678,-3.154,-3.1343,-3.1429,-3.1966,-3.2118,-3.1798,-3.2041,-3.2151,-3.1903,-3.2052,-3.2195,-3.1668,-3.1551,-3.1581,-3.1777,-3.1857,-3.2033,-3.245,-3.2581,-3.2624,-2.0779,-2.056,-1.9983,-2.0442,-2.1345,-2.1092,-2.1038,-2.1134,-2.1086,-2.1086,-2.1094,-2.1038,-2.095,-2.091,-2.091,-2.0853,-2.0805,-2.0862,-2.0902,-2.0885,-2.0554,-2.037,-2.027,-2.002,-1.9854,-1.977,-1.9762,-1.977,-1.9762,-1.9716,-1.9579,-1.9509,-2.0011,-2.0628,-2.1311,-2.1811,-2.2033,-2.2043,-2.2043,-2.2132,-2.2362,-2.253,-2.2794,-2.3057,-2.3373,-2.359,-2.358,-2.3711,-2.3711,-2.358,-2.3491,-2.31,-2.2392,-2.1976,0.0,0.0,0.0,0.0,0.0,0.0,0.0,0.0,0.0,-2.1535,-2.1719,0.0,-2.1644,0.0,-2.1293,-2.0988,-2.0952,-2.0727,0.0,0.0,-2.0201,-2.011,-2.0044,-2.0164,-2.0209,-2.0127,-2.0172,-2.0292,-2.0337,-2.0674,-2.1304,-2.229,-2.4582,-2.6436,-2.7033,-2.7521,-2.8013,-2.8461,-2.8604,-2.8799,-2.9464,-2.9817,-3.0074,-3.0262,-3.0586,-3.0767,-3.0836,-3.1143,-3.134,-3.1157,-3.0948,-3.0782,-3.0681,-3.0317,-3.0171,-3.0398,-3.0826,-3.133,-3.1572,-3.1661,-3.1705,-2.0338,-2.0239,-1.9437,-1.9553,-2.0221,-1.9774,-1.9597,-1.9692,-1.9597,-1.9597,-1.974,-1.9605,-1.9558,-1.9558,-1.9558,-1.9558,-1.9558,-1.9558,-1.9558,-1.9542,-1.9303,-1.9199,-1.9199,-1.9015,-1.8928,-1.8928,-1.8928,-1.8936,-1.8928,-1.8928,-1.8835,-1.8727,-1.895,-1.9363,-1.9903,-2.0546,-2.0907,-2.0907,-2.0898,-2.1096,-2.141,-2.1678,-2.1945,-2.229,-2.2662,-2.2925,-2.3013,-2.3101,-2.3101,-2.3013,-2.2925,-2.26,-2.196,-2.1435,-2.0839,0.0,0.0,0.0,0.0,0.0,0.0,0.0,0.0,0.0,0.0,0.0,-2.0971,-2.0763,-2.0464,-2.0238,-2.0155,-1.9965,-1.9791,-1.9762,-1.9662,-1.9571,-1.9587,-1.9716,-1.9716,-1.9633,-1.9716,-1.9754,-1.9762,-1.9982,-2.036,-2.0924,-2.2686,-2.4405,-2.5651,-2.6345,-2.6787,-2.7237,-2.7409,-2.7672,-2.8237,-2.8788,-2.9197,-2.9324,-2.9659,-2.9889,-2.9769,-2.9967,-3.0142,-3.0016,-2.9867,-2.9829,-2.99,-2.9756,-2.9542,-2.9737,-3.0057,-3.0465,-3.0904,-3.1083,-3.1229,-2.015,-2.0324,-1.9398,-1.9003,-1.8943,-1.8274,-1.8172,-1.845,-1.8226,-1.8218,-1.845,-1.8226,-1.8087,-1.8087,-1.8087,-1.8087,-1.8087,-1.8087,-1.8087,-1.8087,-1.8087,-1.8087,-1.8087,-1.8087,-1.8087,-1.8087,-1.8087,-1.8087,-1.8087,-1.8087,-1.8087,-1.8087,-1.8265,-1.8404,-1.845,-1.9217,-1.9666,-1.9803,-1.9803,-1.9994,-2.0456,-2.0682,-2.0988,-2.1472,-2.1722,-2.2008,-2.2211,-2.2264,-2.2264,-2.2211,-2.2043,-2.1811,-2.1463,-2.0766,-2.021,0.0,-1.9366,0.0,0.0,0.0,0.0,0.0,0.0,0.0,0.0,-2.0266,-2.0229,-1.9791,-1.9754,-1.9662,-1.945,-1.9204,-1.915,-1.935,-1.9204,-1.915,-1.9396,-1.9396,-1.9404,-1.9404,-1.9404,-1.9396,-1.945,-1.9617,-1.9882,-2.0152,-2.0819,-2.1981,-2.3657,-2.4693,-2.5396,-2.6133,-2.6584,-2.6961,-2.7472,-2.8023,-2.8371,-2.8491,-2.8845,-2.9055,-2.8679,-2.8796,-2.8953,-2.8794,-2.8894,-2.9057,-2.9301,-2.9359,-2.9347,-2.9393,-2.9451,-2.9715,-3.0261,-3.0589,-3.0793,-1.9517,-1.9457,-1.8757,-1.8454,-1.8402,-1.7746,-1.7753,-1.8172,-1.8133,-1.8133,-1.8172,-1.8133,-1.8087,-1.8087,-1.8087,-1.8087,-1.8087,-1.8087,-1.8087,-1.8087,-1.8087,-1.8087,-1.8087,-1.8087,-1.8087,-1.8087,-1.8087,-1.8087,-1.8087,-1.8087,-1.8001,-1.7768,-1.7815,-1.7854,-1.7861,0.0,0.0,0.0,-1.9134,-1.9279,-1.9774,-1.9646,-1.9766,-2.0212,-2.051,0.0,-2.1221,-2.1499,-2.149,-2.1266,-2.1221,0.0,0.0,0.0,0.0,0.0,0.0,0.0,0.0,0.0,0.0,0.0,-1.8875,-1.9319,-1.9872,-1.9658,-1.9325,-1.9058,-1.8889,-1.8759,-1.8713,-1.8465,-1.8319,-1.8365,-1.8365,-1.8319,-1.8365,-1.8411,-1.8411,-1.8365,-1.8419,-1.8465,-1.8713,-1.8881,-1.9104,-1.9425,-1.9858,-2.0424,-2.1191,-2.2435,-2.3476,-2.4339,-2.5332,-2.5937,-2.6094,-2.6573,-2.7081,-2.7194,-2.7472,-2.775,-2.782,-2.8063,-2.8183,-2.8186,-2.8186,-2.8326,-2.8581,-2.8617,-2.871,-2.8885,-2.9071,-2.9312,-2.9623,-2.976,-2.9817,-1.8848,-1.879,-1.8168,-1.7903,0.0,-1.723,-1.72,-1.7581,-1.766,-1.7707,-1.7707,-1.7707,-1.7707,-1.7707,-1.7707,-1.7707,-1.7707,-1.7707,-1.7707,-1.7707,-1.7707,-1.7714,-1.7707,-1.7707,-1.7707,-1.7707,-1.7707,-1.7707,-1.7707,-1.7707,-1.7621,-1.7527,-1.7481,-1.7481,-1.7527,-1.7527,-1.79,-1.8643,-1.8411,-1.8458,-1.8819,-1.8866,-1.9096,-1.9546,-1.9828,0.0,0.0,0.0,0.0,0.0,0.0,0.0,0.0,-1.96,0.0,-1.8808,-1.8755,-1.8584,-1.8147,-1.8289,-1.8338,-1.8201,-1.8356,-1.8643,-1.9158,-1.8874,-1.8589,-1.845,-1.8373,-1.8326,-1.828,-1.8179,-1.8087,-1.8087,-1.8087,-1.8087,-1.8087,-1.8087,-1.8087,-1.8087,-1.8087,-1.8141,-1.828,-1.8373,-1.8596,-1.8966,-1.9196,-1.9537,-2.0058,-2.1133,-2.238,-2.3572,-2.4217,-2.4792,-2.5266,-2.5752,-2.6139,-2.6352,-2.6736,-2.7081,-2.7225,-2.7489,-2.7678,-2.7762,-2.782,-2.7904,-2.8149,-2.8196,-2.829,-2.8524,-2.8664,-2.885,-2.9071,-2.9347,-2.9531,-1.8422,-1.8366,-1.7757,-1.7498,-1.7456,-1.6847,-1.673,-1.6932,-1.72,0.0,0.0,-1.7286,-1.7286,-1.7286,-1.7286,-1.7286,-1.7286,-1.7286,-1.7286,-1.7286,-1.7286,-1.7286,-1.7286,-1.7286,-1.7286,-1.7286,-1.7286,-1.7286,-1.7286,-1.7286,-1.7286,-1.7286,-1.7286,-1.7286,-1.7286,-1.7286,-1.752,-1.7947,-1.7761,-1.7761,-1.804,-1.8218,-1.8496,-1.892,-1.9188,-1.9554,-2.0019,-2.0065,-2.011,-2.011,-1.9837,-1.9608,-1.9417,-1.9142,-1.8827,-1.8473,-1.8427,-1.8334,-1.8133,-1.8087,-1.8087,-1.8087,-1.804,-1.8141,-1.8435,-1.8234,-1.8087,-1.8087,-1.804,-1.804,-1.8048,-1.7994,-1.7939,-1.7947,-1.7939,-1.7947,-1.7939,-1.7947,-1.7939,-1.7939,-1.7947,-1.7994,-1.8048,-1.8048,-1.8179,-1.855,-1.8689,-1.8874,-1.9483,-2.0513,-2.1699,-2.2754,-2.3249,-2.3729,-2.451,-2.513,-2.546,-2.5781,-2.6294,-2.6757,-2.69,-2.7081,-2.7309,-2.7536,-2.7536,-2.7678,-2.7857,-2.7951,-2.7998,-2.829,-2.8395,-2.8441,-2.871,-2.9082,-2.9347,-1.837,-1.8373,-1.7757,-1.7498,-1.7463,-1.6847,-1.6629,-1.6676,-1.7099,-1.7286,-1.7286,-1.7286,-1.7286,-1.7286,-1.7286,-1.7286,-1.7286,-1.7286,-1.7286,-1.7286,-1.7286,-1.7286,-1.7286,-1.7286,-1.7286,-1.7286,-1.7286,-1.7286,-1.7286,-1.7286,-1.7286,-1.7286,-1.7286,-1.7286,-1.7286,-1.7286,-1.7326,-1.7419,-1.738,-1.7481,-1.7721,-1.7567,-1.7613,-1.79,-1.8179,-1.8542,-1.8966,-1.9242,-1.9371,-1.9371,-1.9104,-1.8881,-1.8666,-1.8419,-1.8226,-1.8179,-1.8133,-1.8133,-1.8087,-1.8087,-1.8087,-1.8087,-1.7908,-1.7861,-1.8133,-1.8133,-1.8087,-1.8087,-1.7908,-1.7768,-1.7721,-1.7574,-1.7426,-1.7426,-1.7426,-1.7426,-1.7426,-1.7473,-1.7473,-1.7473,-1.7426,-1.7527,-1.7714,-1.7768,-1.7861,-1.8133,-1.8272,-1.8357,-1.8968,-2.01,-2.095,-2.1348,-2.2138,-2.2971,-2.3625,-2.4209,-2.4794,-2.5586,-2.5945,-2.635,-2.6744,-2.6928,-2.7071,-2.7309,-2.7357,-2.7441,-2.7641,-2.7689,-2.7773,-2.7998,-2.8196,-2.8348,-2.8441,-2.871,-2.8943,-1.747,-1.7423,-1.7012,-1.6753,-1.661,-1.6313,-1.6157,-1.6204,-1.6723,-1.7012,-1.7153,-1.7113,-1.7192,-1.7286,-1.7286,-1.7286,-1.7286,-1.7286,-1.7286,-1.7286,-1.7286,-1.7286,-1.7286,-1.7286,-1.7286,-1.7286,-1.7286,-1.7286,-1.7286,-1.7286,-1.7286,-1.7286,-1.7286,-1.7286,-1.7286,-1.7286,-1.7286,-1.7286,-1.7286,-1.738,-1.7473,-1.738,-1.7434,-1.7675,-1.7815,-1.8048,-1.8411,-1.855,-1.8596,-1.8643,-1.8504,-1.8373,-1.8288,-1.8179,-1.804,-1.7908,-1.7908,-1.7807,-1.766,-1.766,-1.7652,-1.766,-1.7567,-1.752,-1.7652,-1.766,-1.766,-1.7652,-1.752,-1.7481,-1.7473,-1.738,-1.7286,-1.7286,-1.7286,-1.7286,-1.7286,-1.7286,-1.7286,-1.7286,-1.7286,-1.7333,-1.7481,-1.7481,-1.7574,-1.7861,-1.8001,-1.8179,-1.8411,-1.9186,-2.0016,-2.0581,-2.1266,-2.1952,-2.2697,-2.3303,-2.3861,-2.4554,-2.5157,-2.5724,-2.6212,-2.6533,-2.6955,-2.7262,-2.7309,-2.7357,-2.7441,-2.7441,-2.7536,-2.7726,-2.7867,-2.8008,-2.8149,-2.8384,-2.8617,-1.6518,-1.6499,-1.6229,-1.5915,-1.567,-1.557,-1.5588,-1.5689,-1.6163,-1.6494,-1.6737,-1.6838,-1.7019,-1.7138,-1.7145,-1.7192,-1.7239,-1.7239,-1.7239,-1.7286,-1.7286,-1.7286,-1.7286,-1.7286,-1.7286,-1.7286,-1.7286,-1.7286,-1.7286,-1.7286,-1.7286,-1.7286,-1.7286,-1.7286,-1.7286,-1.7286,-1.7286,-1.7286,-1.7286,-1.7286,-1.7286,-1.7286,-1.7426,-1.7581,-1.7675,-1.7822,-1.7994,-1.8087,-1.8087,-1.8087,-1.804,-1.804,-1.7994,-1.7947,-1.7854,-1.7628,-1.7621,-1.752,-1.7326,-1.7286,-1.7286,-1.7286,-1.7286,-1.7286,-1.7286,-1.7286,-1.7286,-1.7286,-1.7333,-1.7333,-1.7333,-1.7286,-1.7286,-1.7286,-1.7286,-1.7286,-1.7286,-1.7286,-1.7286,-1.7286,-1.7286,-1.7286,-1.7286,-1.7286,-1.738,-1.7574,-1.7854,-1.7994,-1.804,-1.8365,-1.9039,-1.9783,-2.0395,-2.1014,-2.1766,-2.242,-2.2991,-2.3458,-2.4276,-2.493,-2.5441,-2.604,-2.6543,-2.6748,-2.691,-2.6978,-2.7092,-2.7133,-2.7269,-2.7484,-2.7584,-2.7726,-2.7998,-2.8139,-2.8441,-1.5945,-1.5896,-1.5608,-1.5344,-1.5072,-1.4872,-1.4939,-1.5178,-1.5499,-1.5737,-1.5974,-1.644,-1.6629,-1.6676,-1.6676,-1.6824,-1.7026,-1.7019,-1.7106,-1.7279,-1.7286,-1.7286,-1.7286,-1.7279,-1.7286,-1.7279,-1.7279,-1.7232,-1.7286,-1.7279,-1.7286,-1.7286,-1.7286,-1.7286,-1.7286,-1.7286,-1.7286,-1.7286,-1.7286,-1.7286,-1.7286,-1.7286,-1.7333,-1.7333,-1.7574,-1.7721,-1.7721,-1.7994,-1.8087,-1.8087,-1.7861,-1.7729,-1.7721,-1.7527,-1.738,-1.738,-1.7333,-1.7326,-1.7286,-1.7286,-1.7286,-1.7286,-1.7286,-1.7286,-1.7286,-1.7286,-1.7286,-1.7286,-1.7286,-1.7286,-1.7286,-1.7286,-1.7286,-1.7286,-1.7286,-1.7286,-1.7286,-1.7286,-1.7286,-1.7286,-1.7286,-1.7286,-1.7286,-1.7286,-1.7333,-1.738,-1.7574,-1.7714,-1.7761,-1.7994,-1.828,-1.8798,-1.9399,-2.0239,-2.0945,-2.1644,-2.227,-2.2935,-2.3691,-2.4251,-2.466,-2.5115,-2.5467,-2.6033,-2.6053,-2.6268,-2.6553,-2.6698,-2.6822,-2.7087,-2.7353,-2.7647,-2.7893,-2.8034,-2.8233,-1.4922,-1.4905,-1.4921,-1.4792,-1.4575,-1.4506,-1.4497,-1.464,-1.4879,-1.5166,-1.5363,-1.5648,-1.6021,-1.6588,-1.6588,-1.6683,-1.6777,-1.6777,-1.6824,-1.6864,-1.6864,-1.6911,-1.6911,-1.6864,-1.6864,-1.6911,-1.6911,-1.6911,-1.6864,-1.6911,-1.6864,-1.6911,-1.7012,-1.7113,-1.716,-1.7239,-1.7286,-1.7286,-1.7286,-1.7286,-1.7286,-1.7286,-1.7286,-1.7333,-1.7426,-1.7481,-1.7473,-1.7567,-1.7613,-1.7613,-1.752,-1.7473,-1.7473,-1.7372,-1.7286,-1.7286,-1.7286,-1.7286,-1.7286,-1.7286,-1.7286,-1.7286,-1.7286,-1.7286,-1.7286,-1.7286,-1.7286,-1.7286,-1.7286,-1.7286,-1.7286,-1.7286,-1.7286,-1.7286,-1.7286,-1.7286,-1.7286,-1.7286,-1.7286,-1.7286,-1.7286,-1.7286,-1.7286,-1.7286,-1.7286,-1.7286,-1.7426,-1.7481,-1.7481,-1.7667,-1.7955,-1.828,-1.8827,-1.952,-2.023,-2.0844,-2.1489,-2.2172,-2.2942,-2.3597,-2.4036,-2.4719,-2.528,-2.5543,-2.5653,-2.5865,-2.6159,-2.621,-2.6293,-2.6553,-2.6838,-2.7082,-2.7361,-2.7583,-2.7919,-1.3954,-1.3997,-1.4105,-1.4052,-1.3959,-1.3969,-1.3964,-1.4027,-1.4394,-1.4736,-1.4885,-1.5029,-1.5499,-1.6116,-1.6251,-1.6346,-1.64,-1.6447,-1.6534,-1.6588,-1.6588,-1.6588,-1.6588,-1.6588,-1.6588,-1.6588,-1.6588,-1.6588,-1.6588,-1.6588,-1.6588,-1.6636,-1.6784,-1.6878,-1.6932,-1.7059,-1.7091,-1.7099,-1.7091,-1.7091,-1.7099,-1.7091,-1.7145,-1.7286,-1.7286,-1.7286,-1.7286,-1.7286,-1.7286,-1.7286,-1.7286,-1.7286,-1.7286,-1.7286,-1.7286,-1.7286,-1.7286,-1.7286,-1.7286,-1.7286,-1.7286,-1.7286,-1.7286,-1.7286,-1.7286,-1.7286,-1.7286,-1.7286,-1.7286,-1.7286,-1.7286,-1.7286,-1.7286,-1.7286,-1.7286,-1.7286,-1.7286,-1.7286,-1.7286,-1.7286,-1.7286,-1.7286,-1.7286,-1.7286,-1.7286,-1.7286,-1.7286,-1.7286,-1.7333,-1.7481,-1.7714,-1.804,-1.8411,-1.8928,-1.9662,-2.0281,-2.0835,-2.141,-2.225,-2.2941,-2.339,-2.4151,-2.4751,-2.4743,-2.5183,-2.5551,-2.5678,-2.5699,-2.5771,-2.5951,-2.619,-2.6536,-2.6898,-2.716,-2.7453,-1.3369,-1.3339,-1.3136,-1.3085,-1.309,-1.3121,-1.3177,-1.3244,-1.3962,-1.4346,-1.4394,-1.4838,-1.5131,-1.522,-1.5452,-1.5642,-1.5879,-1.6123,-1.6305,-1.6541,-1.6534,-1.6588,-1.6588,-1.6588,-1.6588,-1.6541,-1.6541,-1.6541,-1.6541,-1.6588,-1.6588,-1.6588,-1.6588,-1.6636,-1.6636,-1.6629,-1.6636,-1.6683,-1.6683,-1.6683,-1.6636,-1.6629,-1.6864,-1.7239,-1.7286,-1.7286,-1.7286,-1.7286,-1.7286,-1.7286,-1.7286,-1.7279,-1.7279,-1.7279,-1.7286,-1.7279,-1.7286,-1.7286,-1.7286,-1.7286,-1.7286,-1.7286,-1.7286,-1.7286,-1.7286,-1.7286,-1.7286,-1.7286,-1.7286,-1.7286,-1.7286,-1.7286,-1.7286,-1.7286,-1.7286,-1.7286,-1.7286,-1.7286,-1.7286,-1.7286,-1.7286,-1.7286,-1.7286,-1.7286,-1.7286,-1.7286,-1.7286,-1.7286,-1.7286,-1.7326,-1.7567,-1.7893,-1.8179,-1.8512,-1.9396,-1.9982,-2.0464,-2.1069,-2.1697,-2.2305,-2.2621,-2.3027,-2.3515,-2.3938,-2.4354,-2.4736,-2.5073,-2.5326,-2.544,-2.5585,-2.5751,-2.609,-2.6333,-2.6511,-2.6874,-1.2441,-1.2708,-1.2626,-1.2659,-1.2751,-1.2756,-1.282,-1.2921,-1.3195,-1.3534,-1.3823,-1.4172,-1.4316,-1.4358,-1.4783,-1.5118,-1.5363,-1.5648,-1.5778,-1.592,-1.6021,-1.6109,-1.6116,-1.6069,-1.6062,-1.6062,-1.6069,-1.6069,-1.6062,-1.6109,-1.6069,-1.6116,-1.6258,-1.6366,-1.6359,-1.6541,-1.6588,-1.6588,-1.6588,-1.6588,-1.6588,-1.6588,-1.6676,-1.6864,-1.6864,-1.6864,-1.6864,-1.6864,-1.6871,-1.6864,-1.6864,-1.6864,-1.6864,-1.7012,-1.7106,-1.7113,-1.7246,-1.7286,-1.7286,-1.7286,-1.7286,-1.7286,-1.7286,-1.7286,-1.7286,-1.7286,-1.7286,-1.7286,-1.7286,-1.7286,-1.7286,-1.7286,-1.7286,-1.7286,-1.7286,-1.7286,-1.7286,-1.7286,-1.7286,-1.7286,-1.7286,-1.7286,-1.7286,-1.7286,-1.7286,-1.7286,-1.7286,-1.7286,-1.7286,-1.7286,-1.7419,-1.7761,-1.7994,-1.8319,-1.8928,-1.9662,-2.0246,-2.0781,-2.1383,-2.1982,-2.2407,-2.2838,-2.3334,-2.3791,-2.3991,-2.4247,-2.4728,-2.4859,-2.4983,-2.5057,-2.5244,-2.5523,-2.5678,-2.6067,-2.6486,-1.1787,-1.211,-1.2164,-1.2184,-1.2291,-1.2316,-1.2385,-1.2539,-1.2651,-1.2905,-1.3292,-1.3539,-1.3738,-1.3931,-1.4262,-1.4598,-1.4885,-1.5213,-1.5404,-1.5499,-1.5635,-1.573,-1.5778,-1.5825,-1.5825,-1.5825,-1.5825,-1.5825,-1.5825,-1.5825,-1.5825,-1.5825,-1.5981,-1.6076,-1.6123,-1.6258,-1.6346,-1.6346,-1.6353,-1.6353,-1.6353,-1.6353,-1.6346,-1.6353,-1.6353,-1.6447,-1.6588,-1.6588,-1.6588,-1.6588,-1.6588,-1.6588,-1.6636,-1.6784,-1.6878,-1.6871,-1.6965,-1.7091,-1.7099,-1.7153,-1.72,-1.72,-1.7239,-1.7286,-1.7286,-1.7286,-1.7286,-1.7286,-1.7286,-1.7286,-1.7286,-1.7286,-1.7286,-1.7286,-1.7286,-1.7286,-1.7286,-1.7286,-1.7286,-1.7286,-1.7286,-1.7286,-1.7286,-1.7286,-1.7286,-1.7286,-1.7286,-1.7286,-1.7286,-1.7333,-1.738,-1.7675,-1.7947,-1.8272,-1.8743,-1.935,-2.0073,-2.0654,-2.115,-2.1731,-2.222,-2.2706,-2.3144,-2.358,-2.3894,-2.411,-2.4282,-2.4411,-2.4507,-2.4518,-2.4724,-2.5034,-2.5375,-2.5785,-2.6135,-1.1568,-1.1623,-1.1623,-1.1666,-1.1725,-1.1793,-1.1857,-1.1988,-1.2219,-1.2467,-1.2759,-1.3007,-1.3394,-1.3786,-1.3931,-1.407,-1.44,-1.4831,-1.5166,-1.5404,-1.5493,-1.5635,-1.5778,-1.5778,-1.5825,-1.5825,-1.5825,-1.5825,-1.5825,-1.5825,-1.5825,-1.5825,-1.5832,-1.5879,-1.5825,-1.5872,-1.5872,-1.5872,-1.5879,-1.5879,-1.5825,-1.5872,-1.5879,-1.5872,-1.5872,-1.6062,-1.6541,-1.6541,-1.6541,-1.6534,-1.6541,-1.6588,-1.6541,-1.6588,-1.6588,-1.6588,-1.6629,-1.6629,-1.6676,-1.6831,-1.6972,-1.7019,-1.72,-1.7239,-1.7239,-1.7286,-1.7286,-1.7286,-1.7286,-1.7286,-1.7286,-1.7286,-1.7286,-1.7286,-1.7286,-1.7286,-1.7286,-1.7286,-1.7286,-1.7286,-1.7286,-1.7286,-1.7286,-1.7286,-1.7286,-1.7286,-1.7286,-1.7286,-1.7286,-1.7286,-1.7426,-1.7628,-1.7908,-1.8226,-1.8658,-1.9128,-1.9853,-2.0527,-2.1024,-2.1562,-2.2043,-2.253,-2.2882,-2.3319,-2.3677,-2.3894,-2.4067,-2.4239,-2.4325,-2.4356,-2.4545,-2.4617,-2.4859,-2.5235,-2.5751,-1.1076,-1.124,-1.1236,-1.135,-1.138,-1.1281,-1.1396,-1.1601,-1.1584,-1.1834,-1.2273,-1.271,-1.3007,-1.3249,-1.3642,-1.3925,-1.407,-1.44,-1.4688,-1.4975,-1.535,-1.554,-1.5594,-1.5737,-1.5825,-1.5825,-1.5825,-1.5825,-1.5825,-1.5825,-1.5825,-1.5825,-1.5825,-1.5825,-1.5825,-1.5825,-1.5825,-1.5825,-1.5825,-1.5825,-1.5825,-1.5825,-1.5825,-1.5825,-1.5825,-1.5879,-1.6021,-1.6069,-1.6062,-1.6062,-1.6021,-1.6021,-1.6069,-1.6218,-1.6312,-1.6359,-1.6494,-1.6588,-1.6588,-1.6636,-1.673,-1.6784,-1.6972,-1.7066,-1.7113,-1.7239,-1.7286,-1.7286,-1.7286,-1.7286,-1.7286,-1.7286,-1.7286,-1.7286,-1.7286,-1.7286,-1.7286,-1.7286,-1.7286,-1.7286,-1.7286,-1.7286,-1.7286,-1.7286,-1.7286,-1.7286,-1.7286,-1.7286,-1.7286,-1.7286,-1.7333,-1.7434,-1.7807,-1.8141,-1.8419,-1.8936,-1.9625,-2.0255,-2.0744,-2.1338,-2.1865,-2.222,-2.2618,-2.3057,-2.3406,-2.3677,-2.3851,-2.4024,-2.411,-2.4067,-2.4118,-2.4199,-2.4247,-2.4666,-2.5173,-1.0798,-1.0911,-1.0962,-1.1067,-1.1209,-1.1023,-1.1097,-1.1258,-1.1206,-1.1373,-1.1746,-1.2175,-1.2565,-1.2856,-1.3298,-1.3642,-1.3883,-1.407,-1.4304,-1.4592,-1.4975,-1.5309,-1.5499,-1.5689,-1.5825,-1.5825,-1.5825,-1.5825,-1.5825,-1.5825,-1.5825,-1.5825,-1.5825,-1.5825,-1.5825,-1.5825,-1.5825,-1.5825,-1.5825,-1.5825,-1.5825,-1.5825,-1.5825,-1.5825,-1.5825,-1.5825,-1.5825,-1.5825,-1.5825,-1.5825,-1.5825,-1.5825,-1.5825,-1.5981,-1.6028,-1.6076,-1.6218,-1.6298,-1.6305,-1.6353,-1.6447,-1.6501,-1.669,-1.6925,-1.6979,-1.7153,-1.72,-1.7286,-1.7286,-1.7286,-1.7286,-1.7286,-1.7286,-1.7286,-1.7286,-1.7286,-1.7286,-1.7286,-1.7286,-1.7286,-1.7286,-1.7286,-1.7286,-1.7286,-1.7286,-1.7286,-1.7286,-1.7286,-1.7286,-1.7286,-1.7286,-1.7426,-1.7807,-1.804,-1.8179,-1.8743,-1.9433,-1.9928,-2.0428,-2.106,-2.1687,-2.1874,-2.2185,-2.2794,-2.3198,-2.345,-2.3624,-2.3797,-2.3884,-2.3797,-2.3711,-2.3901,-2.4055,-2.4205,-2.4656,-1.0692,-1.0692,-1.0692,-1.0852,-1.1034,-1.087,-1.0835,-1.0966,-1.0981,-1.1084,-1.1227,-1.1541,-1.2029,-1.2565,-1.2807,-1.3201,-1.3738,-1.3931,-1.407,-1.4304,-1.4592,-1.4968,-1.5452,-1.5683,-1.5778,-1.5825,-1.5825,-1.5825,-1.5825,-1.5825,-1.5825,-1.5825,-1.5825,-1.5825,-1.5825,-1.5825,-1.5825,-1.5825,-1.5825,-1.5825,-1.5825,-1.5825,-1.5825,-1.5825,-1.5825,-1.5825,-1.5825,-1.5825,-1.5825,-1.5825,-1.5825,-1.5825,-1.5825,-1.5825,-1.5832,-1.5832,-1.5825,-1.5872,-1.5879,-1.6076,-1.617,-1.6218,-1.64,-1.6683,-1.6838,-1.6925,-1.7019,-1.7192,-1.7239,-1.7286,-1.7286,-1.7286,-1.7286,-1.7286,-1.7286,-1.7286,-1.7286,-1.7286,-1.7286,-1.7286,-1.7286,-1.7286,-1.7286,-1.7286,-1.7286,-1.7286,-1.7286,-1.7286,-1.7286,-1.7286,-1.7286,-1.7473,-1.7761,-1.7947,-1.8094,-1.8596,-1.925,-1.9608,-2.011,-2.0699,-2.1374,-2.1607,-2.1919,-2.2495,-2.2882,-2.3144,-2.3319,-2.3363,-2.345,-2.3406,-2.345,-2.3711,-2.3773,-2.3767,-2.4087,-1.0692,-1.0692,-1.0692,-1.0747,-1.0777,-1.0617,-1.0596,-1.0668,-1.054,-1.0711,-1.0936,-1.1198,-1.1536,-1.198,-1.2516,-1.2905,-1.3201,-1.3636,-1.3931,-1.4022,-1.4256,-1.4825,-1.5356,-1.554,-1.5635,-1.5778,-1.5825,-1.5825,-1.5825,-1.5825,-1.5825,-1.5825,-1.5825,-1.5825,-1.5825,-1.5825,-1.5825,-1.5825,-1.5825,-1.5825,-1.5825,-1.5825,-1.5825,-1.5825,-1.5825,-1.5825,-1.5825,-1.5825,-1.5825,-1.5825,-1.5825,-1.5825,-1.5825,-1.5825,-1.5825,-1.5825,-1.5825,-1.5825,-1.5825,-1.5879,-1.5927,-1.5927,-1.617,-1.6312,-1.6414,-1.6595,-1.6784,-1.7012,-1.7066,-1.7153,-1.7286,-1.7286,-1.7286,-1.7286,-1.7286,-1.7286,-1.7286,-1.7286,-1.7286,-1.7286,-1.7286,-1.7286,-1.7286,-1.7286,-1.7286,-1.7286,-1.7286,-1.7286,-1.7286,-1.7286,-1.7286,-1.7387,-1.7621,-1.7861,-1.8141,-1.8604,-1.8966,-1.9288,-1.9745,-2.0246,-2.088,-2.1383,-2.1741,-2.223,-2.2441,-2.2652,-2.2652,-2.2696,-2.2784,-2.2969,-2.2925,-2.2979,-2.2953,-2.2996,-2.3408,-1.0692,-1.0692,-1.0692,-1.0692,-1.068,-1.0586,-1.0547,-1.0525,-1.0445,-1.0467,-1.0653,-1.0887,-1.1194,-1.1492,-1.2175,-1.2565,-1.2861,-1.3443,-1.3781,-1.3925,-1.4208,-1.4682,-1.5213,-1.5404,-1.5594,-1.5778,-1.5825,-1.5825,-1.5825,-1.5825,-1.5825,-1.5825,-1.5825,-1.5825,-1.5825,-1.5825,-1.5825,-1.5825,-1.5825,-1.5825,-1.5825,-1.5825,-1.5825,-1.5825,-1.5825,-1.5825,-1.5825,-1.5825,-1.5825,-1.5825,-1.5825,-1.5825,-1.5825,-1.5825,-1.5825,-1.5825,-1.5825,-1.5825,-1.5825,-1.5825,-1.5825,-1.5832,-1.5974,-1.6076,-1.6218,-1.6359,-1.6548,-1.6784,-1.6932,-1.7073,-1.7153,-1.7239,-1.7286,-1.7286,-1.7286,-1.7286,-1.7286,-1.7286,-1.7286,-1.7286,-1.7286,-1.7286,-1.7286,-1.7286,-1.7286,-1.7286,-1.7286,-1.7286,-1.7286,-1.7286,-1.7333,-1.7387,-1.7527,-1.7761,-1.8048,-1.8419,-1.8835,-1.9104,-1.9471,-1.9928,-2.0473,-2.106,-2.1463,-2.182,-2.1998,-2.2132,-2.2211,-2.2299,-2.2485,-2.2574,-2.2353,-2.2302,-2.2361,-2.2452,-2.2889,-1.0692,-1.0692,-1.0692,-1.0692,-1.0692,-1.0688,-1.0574,-1.0469,-1.0483,-1.0458,-1.0433,-1.064,-1.0904,-1.1194,-1.178,-1.2224,-1.271,-1.3201,-1.3636,-1.3925,-1.4208,-1.4592,-1.5124,-1.5315,-1.5547,-1.5778,-1.5825,-1.5825,-1.5825,-1.5825,-1.5825,-1.5825,-1.5825,-1.5825,-1.5825,-1.5825,-1.5825,-1.5825,-1.5825,-1.5825,-1.5825,-1.5825,-1.5825,-1.5825,-1.5825,-1.5825,-1.5825,-1.5825,-1.5825,-1.5825,-1.5825,-1.5825,-1.5825,-1.5825,-1.5825,-1.5825,-1.5825,-1.5825,-1.5825,-1.5825,-1.5825,-1.5825,-1.5825,-1.5879,-1.6069,-1.617,-1.6265,-1.6541,-1.6784,-1.6885,-1.6979,-1.7106,-1.7192,-1.7239,-1.7286,-1.7286,-1.7286,-1.7286,-1.7286,-1.7286,-1.7286,-1.7286,-1.7286,-1.7286,-1.7286,-1.7286,-1.7286,-1.7286,-1.7286,-1.7286,-1.7286,-1.7333,-1.7473,-1.7714,-1.7955,-1.8241,-1.8604,-1.8966,-1.9296,-1.9708,-2.0164,-2.0699,-2.1096,-2.141,-2.1588,-2.1758,-2.1935,-2.2069,-2.2167,-2.2078,-2.1811,-2.1911,-2.2057,-2.2144,-2.2443,-1.0692,-1.0692,-1.0692,-1.0692,-1.0692,-1.0688,-1.0595,-1.0428,-1.0298,-1.0337,-1.0348,-1.0455,-1.0668,-1.09,-1.1487,-1.1883,-1.2316,-1.2905,-1.3534,-1.4202,-1.4256,-1.4592,-1.5035,-1.5178,-1.541,-1.5689,-1.5825,-1.5825,-1.5825,-1.5825,-1.5825,-1.5825,-1.5825,-1.5825,-1.5825,-1.5825,-1.5825,-1.5825,-1.5825,-1.5825,-1.5825,-1.5825,-1.5825,-1.5825,-1.5825,-1.5825,-1.5825,-1.5825,-1.5825,-1.5825,-1.5825,-1.5825,-1.5825,-1.5825,-1.5825,-1.5825,-1.5825,-1.5825,-1.5825,-1.5825,-1.5825,-1.5825,-1.5825,-1.5825,-1.5872,-1.5927,-1.6021,-1.6218,-1.6312,-1.6501,-1.6683,-1.6925,-1.7019,-1.7059,-1.72,-1.7286,-1.7286,-1.7286,-1.7286,-1.7286,-1.7286,-1.7286,-1.7286,-1.7286,-1.7286,-1.7286,-1.7286,-1.7286,-1.7286,-1.7286,-1.7286,-1.7286,-1.738,-1.7574,-1.7815,-1.8055,-1.8373,-1.8697,-1.902,-1.9296,-1.9799,-2.0209,-2.0555,-2.0862,-2.1132,-2.1311,-2.1535,-2.1445,-2.149,-2.1356,-2.1356,-2.1446,-2.1561,-2.1742,-2.1946,-1.0692,-1.0692,-1.0692,-1.0692,-1.0692,-1.0692,-1.0643,-1.0534,-1.0367,-1.0349,-1.0476,-1.0536,-1.0649,-1.0855,-1.1487,-1.1883,-1.2175,-1.2905,-1.363,-1.4208,-1.4346,-1.4592,-1.5035,-1.5131,-1.5363,-1.573,-1.5825,-1.5825,-1.5825,-1.5825,-1.5825,-1.5825,-1.5825,-1.5825,-1.5825,-1.5825,-1.5825,-1.5825,-1.5825,-1.5825,-1.5825,-1.5825,-1.5825,-1.5825,-1.5825,-1.5825,-1.5825,-1.5825,-1.5825,-1.5825,-1.5825,-1.5825,-1.5825,-1.5825,-1.5825,-1.5825,-1.5825,-1.5825,-1.5825,-1.5825,-1.5825,-1.5825,-1.5825,-1.5825,-1.5825,-1.5825,-1.5879,-1.5974,-1.6123,-1.6312,-1.6588,-1.6683,-1.6831,-1.6878,-1.7019,-1.7153,-1.7153,-1.7239,-1.7286,-1.7286,-1.7286,-1.7286,-1.7286,-1.7286,-1.7286,-1.7286,-1.7286,-1.7286,-1.7286,-1.7286,-1.7286,-1.7286,-1.7286,-1.7434,-1.7675,-1.7916,-1.8141,-1.8419,-1.8651,-1.8881,-1.9204,-1.9608,-1.9965,-2.0329,-2.069,-2.0907,-2.1042,-2.0952,-2.088,-2.096,-2.1003,-2.1022,-2.1078,-2.1285,-2.1479,-1.0692,-1.0692,-1.0692,-1.0692,-1.0692,-1.0692,-1.0688,-1.0664,-1.0509,-1.0494,-1.065,-1.0664,-1.0752,-1.1077,-1.16,-1.198,-1.2419,-1.3098,-1.3871,-1.425,-1.4298,-1.464,-1.4981,-1.5131,-1.5315,-1.5778,-1.5825,-1.5825,-1.5825,-1.5825,-1.5825,-1.5825,-1.5825,-1.5825,-1.5825,-1.5825,-1.5825,-1.5825,-1.5825,-1.5825,-1.5825,-1.5825,-1.5825,-1.5825,-1.5825,-1.5825,-1.5825,-1.5825,-1.5825,-1.5825,-1.5825,-1.5825,-1.5825,-1.5825,-1.5825,-1.5825,-1.5825,-1.5825,-1.5825,-1.5825,-1.5825,-1.5825,-1.5825,-1.5825,-1.5825,-1.5825,-1.5825,-1.5872,-1.5974,-1.617,-1.6447,-1.6494,-1.6541,-1.6588,-1.6784,-1.6932,-1.7026,-1.7153,-1.7239,-1.7286,-1.7286,-1.7286,-1.7286,-1.7286,-1.7286,-1.7286,-1.7286,-1.7286,-1.7286,-1.7286,-1.7286,-1.7286,-1.7286,-1.7286,-1.7527,-1.7729,-1.7955,-1.8094,-1.828,-1.8512,-1.8697,-1.902,-1.9425,-1.9882,-2.0246,-2.0428,-2.0518,-2.0464,-2.0454,-2.0596,-2.0666,-2.0674,-2.0794,-2.0906,-2.1057,-1.0692,-1.0692,-1.0692,-1.0692,-1.0692,-1.0692,-1.0692,-1.0664,-1.0517,-1.0584,-1.082,-1.078,-1.1024,-1.132,-1.1506,-1.2083,-1.2867,-1.3539,-1.3973,-1.425,-1.4352,-1.464,-1.5029,-1.5178,-1.5363,-1.5689,-1.5825,-1.5825,-1.5825,-1.5825,-1.5825,-1.5825,-1.5825,-1.5825,-1.5825,-1.5825,-1.5825,-1.5825,-1.5825,-1.5825,-1.5825,-1.5825,-1.5825,-1.5825,-1.5825,-1.5825,-1.5825,-1.5825,-1.5825,-1.5825,-1.5825,-1.5825,-1.5825,-1.5825,-1.5825,-1.5825,-1.5825,-1.5825,-1.5825,-1.5825,-1.5825,-1.5825,-1.5825,-1.5825,-1.5825,-1.5825,-1.5825,-1.5825,-1.5825,-1.5927,-1.5927,-1.6163,-1.6265,-1.6359,-1.6494,-1.6737,-1.6932,-1.7026,-1.7106,-1.7239,-1.7286,-1.7286,-1.7286,-1.7286,-1.7286,-1.7286,-1.7286,-1.7286,-1.7286,-1.7286,-1.7286,-1.7286,-1.7286,-1.7286,-1.7333,-1.7581,-1.7768,-1.7815,-1.7955,-1.8141,-1.8326,-1.8473,-1.8843,-1.9296,-1.9679,-1.9879,-1.9916,-2.0032,-2.0155,-2.0332,-2.0367,-2.0417,-2.0556,-2.0694,-2.0746,-1.0692,-1.0692,-1.0692,-1.0692,-1.0692,-1.0692,-1.0692,-1.0735,-1.0766,-1.0895,-1.1048,-1.1194,-1.1396,-1.169,-1.1874,-1.2446,-1.3223,-1.369,-1.407,-1.425,-1.4448,-1.4694,-1.5089,-1.5226,-1.5499,-1.573,-1.5825,-1.5791,-1.5825,-1.5825,-1.5825,-1.5825,-1.5825,-1.5825,-1.5825,-1.5825,-1.5825,-1.5825,-1.5825,-1.5825,-1.5825,-1.5825,-1.5825,-1.5825,-1.5825,-1.5825,-1.5825,-1.5825,-1.5825,-1.5825,-1.5825,-1.5825,-1.5825,-1.5825,-1.5825,-1.5825,-1.5825,-1.5825,-1.5825,-1.5825,-1.5825,-1.5825,-1.5825,-1.5825,-1.5825,-1.5825,-1.5825,-1.5825,-1.5825,-1.5825,-1.5825,-1.5927,-1.5974,-1.6021,-1.6211,-1.6454,-1.6595,-1.6697,-1.6878,-1.7099,-1.7192,-1.7239,-1.7286,-1.7286,-1.7286,-1.7286,-1.7286,-1.7286,-1.7286,-1.7286,-1.7286,-1.7286,-1.7286,-1.7286,-1.7286,-1.7434,-1.7581,-1.7628,-1.7675,-1.7861,-1.8001,-1.8141,-1.8326,-1.8643,-1.8944,-1.9393,-1.981,-2.0041,-2.0052,-2.0068,-2.0216,-2.0362,-2.0422,-2.0485,-2.0507,-1.0692,-1.0692,-1.0692,-1.0692,-1.0692,-1.0692,-1.0747,-1.0802,-1.1013,-1.1209,-1.146,-1.1704,-1.186,-1.2091,-1.2418,-1.2926,-1.3588,-1.3883,-1.4112,-1.4298,-1.4598,-1.485,-1.5207,-1.5454,-1.5746,-1.6064,-1.6079,-1.5891,-1.5832,-1.5825,-1.5825,-1.5825,-1.5825,-1.5825,-1.5825,-1.5825,-1.5825,-1.5825,-1.5825,-1.5825,-1.5825,-1.5825,-1.5825,-1.5825,-1.5825,-1.5825,-1.5825,-1.5825,-1.5825,-1.5825,-1.5825,-1.5825,-1.5825,-1.5825,-1.5825,-1.5825,-1.5825,-1.5825,-1.5825,-1.5825,-1.5825,-1.5825,-1.5825,-1.5825,-1.5825,-1.5825,-1.5825,-1.5825,-1.5825,-1.5825,-1.5825,-1.5825,-1.5825,-1.5832,-1.5981,-1.6177,-1.6265,-1.6407,-1.6643,-1.6871,-1.7059,-1.7192,-1.7239,-1.7286,-1.7286,-1.7286,-1.7286,-1.7286,-1.7286,-1.7286,-1.7286,-1.7286,-1.7286,-1.7286,-1.7286,-1.7286,-1.7387,-1.7434,-1.7481,-1.7574,-1.7714,-1.7861,-1.8001,-1.821,-1.8676,-1.9098,-1.9586,-1.9898,-1.971,-1.9748,-2.0063,-2.0232,-2.0288,-2.0229,-2.0251,-1.0692,-1.0692,-1.0692,-1.0692,-1.0747,-1.0747,-1.0857,-1.1076,-1.1131,-1.145,-1.1932,-1.2058,-1.2283,-1.2638,-1.3155,-1.3571,-1.387,-1.4183,-1.4395,-1.4503,-1.4739,-1.5135,-1.5469,-1.5726,-1.613,-1.639,-1.652,-1.6286,-1.6032,-1.5919,-1.5811,-1.5824,-1.5879,-1.5825,-1.5832,-1.5825,-1.5825,-1.5825,-1.5825,-1.5825,-1.5825,-1.5825,-1.5825,-1.5825,-1.5825,-1.5825,-1.5825,-1.5825,-1.5825,-1.5825,-1.5825,-1.5825,-1.5825,-1.5825,-1.5825,-1.5825,-1.5825,-1.5825,-1.5825,-1.5825,-1.5825,-1.5825,-1.5825,-1.5825,-1.5825,-1.5825,-1.5825,-1.5825,-1.5825,-1.5825,-1.5825,-1.5825,-1.5825,-1.5825,-1.5879,-1.6028,-1.6123,-1.617,-1.6353,-1.6541,-1.673,-1.7005,-1.7145,-1.7239,-1.7286,-1.7286,-1.7286,-1.7286,-1.7286,-1.7286,-1.7286,-1.7286,-1.7286,-1.7286,-1.7286,-1.7286,-1.7286,-1.7286,-1.7333,-1.7434,-1.7481,-1.7628,-1.7712,-1.7944,-1.8378,-1.8743,-1.9095,-1.9243,-1.9197,-1.9509,-1.9872,-2.0038,-2.0097,-2.0012,-1.9931,-1.0692,-1.0692,-1.0692,-1.0802,-1.0911,-1.0911,-1.1131,-1.14,-1.1732,-1.2005,-1.2318,-1.2793,-1.3211,-1.3563,-1.401,-1.4228,-1.4415,-1.4776,-1.4986,-1.5072,-1.5337,-1.571,-1.5955,-1.6222,-1.6514,-1.6643,-1.6693,-1.6607,-1.6359,-1.6306,-1.6266,-1.6086,-1.6066,-1.5985,-1.5905,-1.5838,-1.5825,-1.5825,-1.5825,-1.5825,-1.5825,-1.5825,-1.5825,-1.5825,-1.5825,-1.5825,-1.5825,-1.5825,-1.5825,-1.5825,-1.5825,-1.5825,-1.5825,-1.5825,-1.5825,-1.5825,-1.5825,-1.5825,-1.5825,-1.5825,-1.5825,-1.5825,-1.5825,-1.5825,-1.5825,-1.5825,-1.5825,-1.5825,-1.5825,-1.5825,-1.5825,-1.5825,-1.5825,-1.5825,-1.5825,-1.5872,-1.5974,-1.5974,-1.6069,-1.6211,-1.6407,-1.6636,-1.6871,-1.6965,-1.7106,-1.7239,-1.7286,-1.7286,-1.7286,-1.7286,-1.7286,-1.7286,-1.7286,-1.7286,-1.7286,-1.7286,-1.7286,-1.7286,-1.7286,-1.7333,-1.7333,-1.7448,-1.7576,-1.7694,-1.8007,-1.8334,-1.8611,-1.9003,-1.9338,-1.9547,-1.9778,-1.9833,-1.9813,-1.9672,-1.9583,-1.0802,-1.0802,-1.0802,-1.0911,-1.1131,-1.1181,-1.1455,-1.1841,-1.2223,-1.2491,-1.2856,-1.3514,-1.4082,-1.4432,-1.4595,-1.4687,-1.4925,-1.5291,-1.5544,-1.5752,-1.6023,-1.6244,-1.6454,-1.6676,-1.6867,-1.6914,-1.7007,-1.6961,-1.6947,-1.6887,-1.6747,-1.64,-1.638,-1.6279,-1.6106,-1.5999,-1.5952,-1.5825,-1.5825,-1.5825,-1.5825,-1.5825,-1.5825,-1.5825,-1.5825,-1.5825,-1.5825,-1.5825,-1.5825,-1.5825,-1.5825,-1.5825,-1.5825,-1.5825,-1.5825,-1.5825,-1.5825,-1.5825,-1.5825,-1.5825,-1.5825,-1.5825,-1.5825,-1.5825,-1.5825,-1.5825,-1.5825,-1.5825,-1.5825,-1.5825,-1.5825,-1.5825,-1.5825,-1.5825,-1.5825,-1.5825,-1.5825,-1.5872,-1.5879,-1.6021,-1.6163,-1.6258,-1.6447,-1.6643,-1.6878,-1.7153,-1.7239,-1.7239,-1.7286,-1.7239,-1.7286,-1.7286,-1.7286,-1.7286,-1.7286,-1.7286,-1.7286,-1.7286,-1.7286,-1.7347,-1.7355,-1.7465,-1.7636,-1.7721,-1.7911,-1.8253,-1.8733,-1.9112,-1.9487,-1.9499,-1.9538,-1.9576,-1.9524,-1.9376,-1.9331,-1.1072,-1.1072,-1.1076,-1.1126,-1.1181,-1.1455,-1.1837,-1.2327,-1.2436,-1.293,-1.3668,-1.4098,-1.4586,-1.4949,-1.4963,-1.5128,-1.5423,-1.55,-1.5771,-1.603,-1.6244,-1.6585,-1.6798,-1.7052,-1.7286,-1.7415,-1.7388,-1.7408,-1.7482,-1.7368,-1.7114,-1.676,-1.6707,-1.6673,-1.6533,-1.6319,-1.6106,-1.5959,-1.5899,-1.5811,-1.5838,-1.5825,-1.5825,-1.5825,-1.5825,-1.5825,-1.5825,-1.5825,-1.5825,-1.5825,-1.5825,-1.5825,-1.5825,-1.5825,-1.5825,-1.5825,-1.5825,-1.5825,-1.5825,-1.5825,-1.5825,-1.5825,-1.5825,-1.5825,-1.5825,-1.5825,-1.5825,-1.5825,-1.5825,-1.5825,-1.5825,-1.5825,-1.5825,-1.5825,-1.5825,-1.5825,-1.5825,-1.5825,-1.5825,-1.5832,-1.5927,-1.6069,-1.6116,-1.6312,-1.6643,-1.6918,-1.7012,-1.7005,-1.7145,-1.7145,-1.7239,-1.7239,-1.7286,-1.7286,-1.7286,-1.7286,-1.7286,-1.7286,-1.7286,-1.7362,-1.7391,-1.7538,-1.7713,-1.8035,-1.8262,-1.8555,-1.8789,-1.911,-1.9287,-1.9339,-1.9383,-1.9428,-1.9428,-1.9324,-1.9279,-1.1236,-1.1404,-1.1728,-1.1782,-1.1678,-1.1946,-1.2332,-1.2767,-1.3256,-1.4013,-1.4773,-1.4997,-1.527,-1.5487,-1.5721,-1.5799,-1.606,-1.6418,-1.6561,-1.6788,-1.6977,-1.7172,-1.7363,-1.7363,-1.7527,-1.7569,-1.7589,-1.7589,-1.7569,-1.7589,-1.7508,-1.7255,-1.7061,-1.6854,-1.6714,-1.6607,-1.6386,-1.6186,-1.6079,-1.6032,-1.5838,-1.5825,-1.5825,-1.5825,-1.5825,-1.5825,-1.5825,-1.5825,-1.5825,-1.5825,-1.5825,-1.5825,-1.5825,-1.5825,-1.5825,-1.5825,-1.5825,-1.5825,-1.5825,-1.5825,-1.5825,-1.5825,-1.5825,-1.5825,-1.5825,-1.5825,-1.5825,-1.5825,-1.5825,-1.5825,-1.5825,-1.5825,-1.5825,-1.5825,-1.5825,-1.5825,-1.5825,-1.5825,-1.5825,-1.5825,-1.5825,-1.5872,-1.592,-1.5967,-1.6305,-1.6636,-1.673,-1.6824,-1.6918,-1.7005,-1.7052,-1.7145,-1.7192,-1.7239,-1.7239,-1.7286,-1.7293,-1.7315,-1.7337,-1.7501,-1.7604,-1.7647,-1.786,-1.8225,-1.8569,-1.8796,-1.8964,-1.9111,-1.9206,-1.9302,-1.9279,-1.9324,-1.9324,-1.9272,-1.9272,-1.1564,-1.1896,-1.2332,-1.2387,-1.2169,-1.2495,-1.2935,-1.3364,-1.39,-1.4659,-1.5482,-1.5589,-1.5737,-1.6004,-1.6152,-1.6405,-1.6592,-1.6916,-1.7147,-1.7292,-1.743,-1.7589,-1.7589,-1.7575,-1.7555,-1.7589,-1.7589,-1.7589,-1.7589,-1.7589,-1.7549,-1.7482,-1.744,-1.7168,-1.7041,-1.6854,-1.6693,-1.6473,-1.638,-1.6253,-1.6012,-1.5972,-1.5885,-1.5865,-1.5825,-1.5825,-1.5825,-1.5825,-1.5825,-1.5825,-1.5825,-1.5825,-1.5825,-1.5825,-1.5825,-1.5825,-1.5825,-1.5825,-1.5825,-1.5825,-1.5825,-1.5825,-1.5825,-1.5825,-1.5825,-1.5825,-1.5825,-1.5825,-1.5825,-1.5825,-1.5825,-1.5825,-1.5825,-1.5825,-1.5825,-1.5825,-1.5825,-1.5825,-1.5825,-1.5825,-1.5832,-1.5838,-1.5845,-1.5899,-1.6116,-1.6434,-1.6588,-1.6683,-1.6723,-1.6817,-1.6824,-1.6965,-1.7059,-1.7106,-1.7192,-1.737,-1.7541,-1.7633,-1.7684,-1.7816,-1.7904,-1.7955,-1.8108,-1.8482,-1.8789,-1.9008,-1.9118,-1.9169,-1.9213,-1.9264,-1.9272,-1.9272,-1.9272,-1.9272,-1.9272,-1.2114,-1.2387,-1.2772,-1.2713,-1.2545,-1.3044,-1.3581,-1.4062,-1.4277,-1.4767,-1.5529,-1.5791,-1.6004,-1.6217,-1.6377,-1.6643,-1.7014,-1.7173,-1.7325,-1.7529,-1.7589,-1.7589,-1.7589,-1.7589,-1.7589,-1.7589,-1.7589,-1.7589,-1.7589,-1.7589,-1.7589,-1.7589,-1.7522,-1.7488,-1.7508,-1.7326,-1.7045,-1.674,-1.6707,-1.6526,-1.6326,-1.6233,-1.6072,-1.5959,-1.5845,-1.5832,-1.5825,-1.5825,-1.5825,-1.5825,-1.5825,-1.5825,-1.5825,-1.5825,-1.5825,-1.5825,-1.5825,-1.5825,-1.5825,-1.5825,-1.5825,-1.5825,-1.5825,-1.5825,-1.5825,-1.5825,-1.5825,-1.5825,-1.5825,-1.5825,-1.5825,-1.5825,-1.5825,-1.5838,-1.5845,-1.5912,-1.5925,-1.6032,-1.6072,-1.6106,-1.5959,-1.5858,-1.5818,-1.5879,-1.6014,-1.6245,-1.6475,-1.6548,-1.6508,-1.6541,-1.6595,-1.6732,-1.6841,-1.7006,-1.7151,-1.7515,-1.7734,-1.7833,-1.7921,-1.7996,-1.822,-1.8401,-1.8584,-1.8818,-1.8972,-1.9155,-1.922,-1.9264,-1.9272,-1.9272,-1.9272,-1.9272,-1.9272,-1.9272,-1.9272,-1.255,-1.3044,-1.3527,-1.3684,-1.363,-1.3792,-1.4116,-1.4493,-1.4874,-1.5363,-1.5737,-1.6057,-1.6217,-1.6377,-1.6702,-1.7014,-1.7173,-1.743,-1.7529,-1.7582,-1.7589,-1.7589,-1.7589,-1.7589,-1.7589,-1.7589,-1.7589,-1.7589,-1.7589,-1.7589,-1.7589,-1.7589,-1.7589,-1.7589,-1.7562,-1.7442,-1.7295,-1.7054,-1.7025,-1.6911,-1.658,-1.64,-1.6295,-1.6119,-1.5959,-1.5858,-1.5852,-1.5858,-1.5825,-1.5825,-1.5825,-1.5825,-1.5825,-1.5825,-1.5825,-1.5825,-1.5825,-1.5825,-1.5825,-1.5825,-1.5825,-1.5825,-1.5825,-1.5825,-1.5825,-1.5825,-1.5825,-1.5825,-1.5825,-1.5825,-1.5825,-1.5832,-1.5798,-1.5844,-1.5939,-1.6099,-1.6186,-1.6373,-1.648,-1.6493,-1.6413,-1.6353,-1.6333,-1.6233,-1.6268,-1.6256,-1.6409,-1.63,-1.6211,-1.6306,-1.6333,-1.6504,-1.6654,-1.6895,-1.7118,-1.7532,-1.7773,-1.7879,-1.8001,-1.8137,-1.8383,-1.8651,-1.884,-1.8979,-1.9155,-1.9272,-1.9272,-1.9272,-1.9272,-1.9272,-1.9272,-1.9272,-1.9272,-1.9272,-1.9272,-1.3032,-1.3526,-1.4083,-1.4444,-1.4606,-1.4546,-1.4659,-1.4987,-1.5422,-1.5791,-1.6057,-1.6217,-1.643,-1.6696,-1.6967,-1.7279,-1.7325,-1.7483,-1.7582,-1.7589,-1.7589,-1.7589,-1.7589,-1.7589,-1.7589,-1.7589,-1.7589,-1.7589,-1.7589,-1.7589,-1.7589,-1.7589,-1.7589,-1.7589,-1.7575,-1.7535,-1.7488,-1.7321,-1.7326,-1.7213,-1.6951,-1.6757,-1.6603,-1.638,-1.6186,-1.5992,-1.5959,-1.5905,-1.5832,-1.5832,-1.5825,-1.5825,-1.5825,-1.5825,-1.5825,-1.5825,-1.5825,-1.5825,-1.5825,-1.5825,-1.5825,-1.5825,-1.5825,-1.5825,-1.5825,-1.5825,-1.5825,-1.5825,-1.5825,-1.5838,-1.5845,-1.5852,-1.5985,-1.6039,-1.6206,-1.6366,-1.646,-1.664,-1.67,-1.6734,-1.6754,-1.6747,-1.6747,-1.6673,-1.658,-1.6486,-1.6393,-1.6197,-1.6064,-1.6217,-1.6306,-1.6477,-1.667,-1.6898,-1.7204,-1.7548,-1.776,-1.7917,-1.806,-1.821,-1.8404,-1.867,-1.8933,-1.9109,-1.9198,-1.9272,-1.9272,-1.9272,-1.9272,-1.9272,-1.9272,-1.9272,-1.9272,-1.9272,-1.9272,-1.3546,-1.3846,-1.4382,-1.4965,-1.5351,-1.5131,-1.5256,-1.5535,-1.5791,-1.6051,-1.633,-1.6377,-1.6643,-1.7067,-1.7232,-1.7378,-1.7529,-1.7582,-1.7589,-1.7589,-1.7589,-1.7589,-1.7589,-1.7589,-1.7589,-1.7589,-1.7589,-1.7589,-1.7589,-1.7589,-1.7589,-1.7589,-1.7589,-1.7589,-1.7589,-1.7582,-1.7555,-1.7508,-1.7482,-1.7414,-1.7219,-1.7125,-1.6951,-1.67,-1.646,-1.6273,-1.6166,-1.6032,-1.5899,-1.5845,-1.5825,-1.5825,-1.5825,-1.5825,-1.5825,-1.5825,-1.5825,-1.5825,-1.5825,-1.5825,-1.5825,-1.5825,-1.5825,-1.5825,-1.5825,-1.5825,-1.5825,-1.5825,-1.5825,-1.5858,-1.5879,-1.6059,-1.6233,-1.638,-1.656,-1.666,-1.6714,-1.6794,-1.6827,-1.6854,-1.6874,-1.6887,-1.6927,-1.6887,-1.6934,-1.6914,-1.6854,-1.682,-1.668,-1.6493,-1.6592,-1.6605,-1.6799,-1.7043,-1.7294,-1.7546,-1.7766,-1.7937,-1.8128,-1.8233,-1.8471,-1.8582,-1.8708,-1.8878,-1.9108,-1.922,-1.9272,-1.9272,-1.9272,-1.9272,-1.9272,-1.9272,-1.9272,-1.9272,-1.9272,-1.367,-1.415,-1.4711,-1.5083,-1.5276,-1.5707,-1.6004,-1.6057,-1.6164,-1.6318,-1.6577,-1.6855,-1.7014,-1.7173,-1.7378,-1.7536,-1.7589,-1.7589,-1.7589,-1.7589,-1.7589,-1.7589,-1.7589,-1.7589,-1.7589,-1.7589,-1.7589,-1.7589,-1.7589,-1.7589,-1.7589,-1.7589,-1.7589,-1.7589,-1.7589,-1.7589,-1.7589,-1.7589,-1.7589,-1.7568,-1.7447,-1.7326,-1.7134,-1.7025,-1.674,-1.6547,-1.6339,-1.6206,-1.6052,-1.5831,-1.5838,-1.5825,-1.5825,-1.5825,-1.5825,-1.5825,-1.5825,-1.5825,-1.5825,-1.5825,-1.5825,-1.5825,-1.5825,-1.5825,-1.5825,-1.5825,-1.5825,-1.5825,-1.5885,-1.5939,-1.6079,-1.6266,-1.6502,-1.664,-1.6827,-1.6981,-1.7041,-1.7114,-1.7148,-1.7168,-1.7174,-1.7174,-1.7194,-1.7235,-1.7281,-1.7308,-1.7308,-1.7268,-1.7181,-1.6974,-1.6881,-1.6887,-1.6985,-1.7218,-1.7268,-1.7506,-1.7732,-1.7952,-1.808,-1.816,-1.8304,-1.8408,-1.8534,-1.8646,-1.8855,-1.9063,-1.9272,-1.9272,-1.9227,-1.9272,-1.9272,-1.9272,-1.9272,-1.9272,-1.9272,-1.3931,-1.4268,-1.4869,-1.513,-1.5378,-1.5986,-1.6367,-1.6438,-1.6427,-1.663,-1.6902,-1.7067,-1.7285,-1.7378,-1.7536,-1.7589,-1.7589,-1.7589,-1.7589,-1.7589,-1.7589,-1.7589,-1.7589,-1.7589,-1.7589,-1.7589,-1.7589,-1.7589,-1.7589,-1.7589,-1.7589,-1.7589,-1.7589,-1.7589,-1.7589,-1.7589,-1.7589,-1.7589,-1.7589,-1.7589,-1.7561,-1.746,-1.7407,-1.73,-1.7021,-1.6837,-1.6636,-1.6522,-1.6179,-1.5992,-1.5939,-1.5825,-1.5825,-1.5825,-1.5825,-1.5825,-1.5825,-1.5825,-1.5825,-1.5825,-1.5825,-1.5825,-1.5825,-1.5825,-1.5825,-1.5825,-1.5825,-1.5838,-1.5952,-1.6079,-1.6279,-1.6522,-1.6723,-1.6918,-1.7132,-1.7347,-1.744,-1.7534,-1.7515,-1.7542,-1.7549,-1.7535,-1.7555,-1.7589,-1.7575,-1.7508,-1.7482,-1.7468,-1.7415,-1.7308,-1.7228,-1.7221,-1.7268,-1.738,-1.746,-1.7481,-1.7646,-1.7804,-1.7825,-1.795,-1.8108,-1.8213,-1.8272,-1.8436,-1.8593,-1.8803,-1.8952,-1.9071,-1.9071,-1.9123,-1.922,-1.922,-1.9272,-1.9272,-1.9272,-1.4283,-1.4351,-1.4861,-1.5297,-1.5581,-1.6087,-1.6394,-1.6633,-1.6677,-1.6903,-1.7199,-1.7226,-1.7378,-1.7529,-1.7589,-1.7589,-1.7589,-1.7589,-1.7589,-1.7589,-1.7589,-1.7589,-1.7589,-1.7589,-1.7589,-1.7589,-1.7589,-1.7589,-1.7589,-1.7589,-1.7589,-1.7589,-1.7589,-1.7589,-1.7589,-1.7589,-1.7589,-1.7589,-1.7589,-1.7589,-1.7589,-1.7575,-1.7582,-1.7522,-1.7387,-1.7179,-1.7038,-1.6764,-1.6368,-1.6199,-1.6066,-1.5899,-1.5832,-1.5825,-1.5825,-1.5825,-1.5825,-1.5825,-1.5825,-1.5825,-1.5825,-1.5825,-1.5825,-1.5825,-1.5825,-1.5825,-1.5825,-1.5965,-1.6099,-1.6326,-1.6589,-1.6811,-1.7018,-1.7186,-1.7373,-1.7501,-1.7554,-1.7555,-1.7562,-1.7589,-1.7589,-1.7589,-1.7589,-1.7589,-1.7589,-1.7589,-1.7589,-1.7589,-1.7562,-1.7502,-1.7482,-1.7462,-1.7462,-1.7475,-1.7508,-1.7581,-1.7549,-1.7635,-1.7635,-1.7687,-1.7845,-1.7957,-1.8062,-1.8227,-1.8331,-1.8429,-1.8527,-1.8698,-1.8862,-1.8862,-1.8959,-1.9116,-1.9168,-1.9168,-1.9272,-1.4116,-1.4322,-1.4881,-1.5351,-1.5802,-1.6131,-1.6315,-1.6423,-1.6627,-1.6968,-1.7417,-1.7463,-1.7529,-1.7582,-1.7589,-1.7589,-1.7589,-1.7589,-1.7589,-1.7589,-1.7589,-1.7589,-1.7589,-1.7589,-1.7589,-1.7589,-1.7589,-1.7589,-1.7589,-1.7589,-1.7589,-1.7589,-1.7589,-1.7589,-1.7589,-1.7589,-1.7589,-1.7589,-1.7589,-1.7589,-1.7589,-1.7589,-1.7582,-1.7569,-1.7514,-1.7387,-1.7246,-1.7092,-1.669,-1.6402,-1.6239,-1.6052,-1.5845,-1.5838,-1.5832,-1.5825,-1.5825,-1.5825,-1.5825,-1.5825,-1.5825,-1.5791,-1.5791,-1.5832,-1.5825,-1.5825,-1.5919,-1.6099,-1.6319,-1.6623,-1.6857,-1.7085,-1.7293,-1.7447,-1.7581,-1.7555,-1.7589,-1.7589,-1.7589,-1.7589,-1.7589,-1.7589,-1.7589,-1.7589,-1.7589,-1.7589,-1.7589,-1.7589,-1.7589,-1.7555,-1.7549,-1.7535,-1.7549,-1.7562,-1.7589,-1.7589,-1.7589,-1.7589,-1.7641,-1.7641,-1.7589,-1.7747,-1.7852,-1.8016,-1.8122,-1.8167,-1.8265,-1.8422,-1.8534,-1.8541,-1.8646,-1.8795,-1.8855,-1.8803,-1.9063,-1.4256,-1.4508,-1.5036,-1.5437,-1.5731,-1.6114,-1.6272,-1.6348,-1.6597,-1.6881,-1.7194,-1.7328,-1.7507,-1.7555,-1.7589,-1.7589,-1.7589,-1.7589,-1.7589,-1.7589,-1.7589,-1.7589,-1.7589,-1.7589,-1.7589,-1.7589,-1.7589,-1.7589,-1.7589,-1.7589,-1.7589,-1.7589,-1.7589,-1.7589,-1.7589,-1.7589,-1.7589,-1.7589,-1.7589,-1.7589,-1.7589,-1.7589,-1.7589,-1.7589,-1.7549,-1.7507,-1.742,-1.7293,-1.7032,-1.6737,-1.6616,-1.6313,-1.6132,-1.6059,-1.5959,-1.5872,-1.5825,-1.5825,-1.5845,-1.5858,-1.5872,-1.5844,-1.6005,-1.6052,-1.6112,-1.6132,-1.6186,-1.6366,-1.6717,-1.6978,-1.7092,-1.7286,-1.7427,-1.7522,-1.7555,-1.7575,-1.7589,-1.7589,-1.7589,-1.7589,-1.7589,-1.7589,-1.7589,-1.7589,-1.7589,-1.7589,-1.7589,-1.7589,-1.7589,-1.7589,-1.7589,-1.7589,-1.7589,-1.7589,-1.7589,-1.7589,-1.7589,-1.7589,-1.7589,-1.7589,-1.7589,-1.7589,-1.7694,-1.7799,-1.7859,-1.7852,-1.795,-1.816,-1.822,-1.8227,-1.8331,-1.8475,-1.8482,-1.8489,-1.8698,-1.4544,-1.4831,-1.5309,-1.5499,-1.558,-1.6009,-1.6219,-1.6259,-1.6473,-1.6607,-1.67,-1.6971,-1.7259,-1.7494,-1.7582,-1.7589,-1.7589,-1.7589,-1.7589,-1.7589,-1.7589,-1.7589,-1.7589,-1.7589,-1.7589,-1.7589,-1.7589,-1.7589,-1.7589,-1.7589,-1.7589,-1.7589,-1.7589,-1.7589,-1.7589,-1.7589,-1.7589,-1.7589,-1.7589,-1.7589,-1.7589,-1.7589,-1.7589,-1.7589,-1.7589,-1.7589,-1.7548,-1.7434,-1.7273,-1.7065,-1.6857,-1.6573,-1.6413,-1.6319,-1.6213,-1.6112,-1.6079,-1.6066,-1.5984,-1.6004,-1.5977,-1.6004,-1.6219,-1.6333,-1.6393,-1.648,-1.6533,-1.6687,-1.7038,-1.7213,-1.732,-1.742,-1.7502,-1.7575,-1.7582,-1.7589,-1.7589,-1.7589,-1.7589,-1.7589,-1.7589,-1.7589,-1.7589,-1.7589,-1.7589,-1.7589,-1.7589,-1.7589,-1.7589,-1.7589,-1.7589,-1.7589,-1.7589,-1.7589,-1.7589,-1.7589,-1.7589,-1.7589,-1.7589,-1.7589,-1.7589,-1.7589,-1.7589,-1.7641,-1.7694,-1.7694,-1.7747,-1.7852,-1.7911,-1.7971,-1.801,-1.8108,-1.8167,-1.822,-1.8325,-1.4927,-1.5356,-1.5493,-1.5588,-1.5743,-1.5858,-1.5864,-1.5878,-1.5979,-1.6119,-1.6333,-1.6426,-1.6707,-1.73,-1.7495,-1.7582,-1.7589,-1.7589,-1.7589,-1.7589,-1.7589,-1.7589,-1.7589,-1.7589,-1.7589,-1.7589,-1.7589,-1.7589,-1.7589,-1.7589,-1.7589,-1.7589,-1.7589,-1.7589,-1.7589,-1.7589,-1.7589,-1.7589,-1.7589,-1.7589,-1.7589,-1.7589,-1.7589,-1.7589,-1.7589,-1.7589,-1.7555,-1.7528,-1.7414,-1.7192,-1.6971,-1.676,-1.666,-1.6613,-1.6533,-1.6433,-1.64,-1.6413,-1.6393,-1.6393,-1.638,-1.6413,-1.6567,-1.662,-1.6727,-1.6894,-1.6941,-1.7038,-1.7266,-1.736,-1.746,-1.7534,-1.7582,-1.7582,-1.7589,-1.7589,-1.7589,-1.7589,-1.7589,-1.7589,-1.7589,-1.7589,-1.7589,-1.7589,-1.7589,-1.7589,-1.7589,-1.7589,-1.7589,-1.7589,-1.7589,-1.7589,-1.7589,-1.7589,-1.7589,-1.7589,-1.7589,-1.7589,-1.7589,-1.7589,-1.7589,-1.7589,-1.7589,-1.7589,-1.7589,-1.7641,-1.7694,-1.7734,-1.7714,-1.7774,-1.7701,-1.7747,-1.7852,-1.7957,-1.801]},{"header":{"parameterUnit":"m.s-1","parameterCategory":1,"la1":31.0,"la2":29.5877,"lo1":-88.7671,"lo2":-86.6584,"dy":0.0162,"dx":0.0185,"nx":115,"ny":88,"refTime":"2024-02-29T18:00:00:Z","depth":0,"parameterNumber":3,"parameterNumberName":"V-component_of_WINDS"},"data":[0.0,0.0,0.0,0.0,0.0,0.0,0.0,0.0,0.0,0.0,0.0,0.0,0.0,0.0,0.0,0.0,0.0,0.0,0.0,0.0,0.0,0.0,0.0,0.0,0.0,0.0,0.0,0.0,0.0,0.0,0.0,0.0,0.0,0.0,0.0,0.0,0.0,0.0,0.0,0.0,0.0,0.0,0.0,0.0,0.0,0.0,0.0,0.0,0.0,0.0,0.0,0.0,0.0,0.0,0.0,0.0,0.0,0.0,0.0,0.0,0.0,0.0,0.0,0.0,0.0,0.0,0.0,0.0,0.0,0.0,0.0,0.0,0.0,0.0,0.0,0.0,0.0,0.0,0.0,0.0,0.0,0.0,0.0,0.0,0.0,0.0,0.0,0.0,0.0,0.0,0.0,0.0,0.0,0.0,0.0,0.0,0.0,0.0,0.0,0.0,0.0,0.0,0.0,0.0,0.0,0.0,0.0,0.0,0.0,0.0,0.0,0.0,0.0,0.0,0.0,0.0,0.0,0.0,0.0,0.0,0.0,0.0,0.0,0.0,0.0,0.0,0.0,0.0,0.0,0.0,0.0,0.0,0.0,0.0,0.0,0.0,0.0,0.0,0.0,0.0,0.0,0.0,0.0,0.0,0.0,0.0,0.0,0.0,0.0,0.0,0.0,0.0,0.0,0.0,0.0,0.0,0.0,0.0,0.0,0.0,0.0,0.0,0.0,0.0,0.0,0.0,0.0,0.0,0.0,0.0,0.0,0.0,0.0,0.0,0.0,0.0,0.0,0.0,0.0,0.0,0.0,0.0,0.0,0.0,0.0,0.0,0.0,0.0,0.0,0.0,0.0,0.0,0.0,0.0,0.0,0.0,0.0,0.0,0.0,0.0,0.0,0.0,0.0,0.0,0.0,0.0,0.0,0.0,0.0,0.0,0.0,0.0,0.0,0.0,0.0,0.0,0.0,0.0,0.0,0.0,0.0,0.0,0.0,0.0,0.0,0.0,0.0,0.0,0.0,0.0,0.0,0.0,0.0,0.0,0.0,0.0,0.0,0.0,0.0,0.0,0.0,0.0,0.0,0.0,0.0,0.0,0.0,0.0,0.0,0.0,0.0,0.0,0.0,0.0,0.0,0.0,0.0,0.0,0.0,0.0,0.0,0.0,0.0,0.0,0.0,0.0,0.0,0.0,0.0,0.0,0.0,0.0,0.0,0.0,0.0,0.0,0.0,0.0,0.0,0.0,0.0,0.0,0.0,0.0,0.0,0.0,0.0,0.0,0.0,0.0,0.0,0.0,0.0,0.0,0.0,0.0,0.0,0.0,0.0,0.0,0.0,0.0,0.0,0.0,0.0,0.0,0.0,0.0,0.0,0.0,0.0,0.0,0.0,0.0,0.0,0.0,0.0,0.0,0.0,0.0,0.0,0.0,0.0,0.0,0.0,0.0,0.0,0.0,0.0,0.0,0.0,0.0,0.0,0.0,0.0,0.0,0.0,0.0,0.0,0.0,0.0,0.0,0.0,0.0,0.0,0.0,0.0,0.0,0.0,0.0,0.0,0.0,0.0,0.0,0.0,0.0,0.0,0.0,0.0,0.0,0.0,0.0,0.0,0.0,0.0,0.0,0.0,0.0,0.0,0.0,0.0,0.0,0.0,0.0,0.0,0.0,0.0,0.0,0.0,0.0,0.0,0.0,0.0,0.0,0.0,0.0,0.0,0.0,0.0,0.0,0.0,0.0,0.0,0.0,0.0,0.0,0.0,0.0,0.0,0.0,0.0,0.0,0.0,0.0,0.0,0.0,0.0,0.0,0.0,0.0,0.0,0.0,0.0,0.0,0.0,0.0,0.0,0.0,0.0,0.0,0.0,0.0,0.0,0.0,0.0,0.0,0.0,0.0,0.0,0.0,0.0,0.0,0.0,0.0,0.0,0.0,0.0,0.0,0.0,0.0,0.0,0.0,0.0,0.0,0.0,0.0,0.0,0.0,0.0,0.0,0.0,0.0,0.0,0.0,0.0,0.0,0.0,0.0,0.0,0.0,0.0,0.0,0.0,0.0,0.0,0.0,0.0,0.0,0.0,0.0,0.0,0.0,0.0,0.0,0.0,0.0,0.0,0.0,0.0,0.0,0.0,0.0,0.0,0.0,0.0,0.0,0.0,0.0,0.0,0.0,0.0,0.0,0.0,0.0,0.0,0.0,0.0,0.0,0.0,0.0,0.0,0.0,0.0,0.0,0.0,0.0,0.0,0.0,0.0,0.0,0.0,0.0,0.0,0.0,0.0,0.0,0.0,0.0,0.0,0.0,0.0,0.0,0.0,0.0,0.0,0.0,0.0,0.0,0.0,0.0,0.0,0.0,0.0,0.0,0.0,0.0,0.0,0.0,0.0,0.0,0.0,0.0,0.0,0.0,0.0,0.0,0.0,0.0,0.0,0.0,0.0,0.0,0.0,0.0,0.0,0.0,0.0,0.0,0.0,0.0,0.0,0.0,0.0,0.0,0.0,0.0,0.0,0.0,0.0,0.0,0.0,0.0,0.0,0.0,0.0,0.0,0.0,0.0,0.0,0.0,0.0,0.0,0.0,0.0,0.0,0.0,0.0,0.0,0.0,0.0,0.0,0.0,0.0,0.0,0.0,0.0,0.0,0.0,0.0,0.0,0.0,0.0,0.0,0.0,0.0,0.0,0.0,0.0,0.0,0.0,0.0,0.0,0.0,0.0,0.0,0.0,0.0,0.0,0.0,0.0,0.0,0.0,0.0,0.0,0.0,0.0,0.0,0.0,0.0,0.0,0.0,0.0,0.0,0.0,0.0,0.0,0.0,0.0,0.0,0.0,0.0,0.0,0.0,0.0,0.0,0.0,0.0,0.0,0.0,0.0,0.0,0.0,0.0,0.0,0.0,0.0,0.0,0.0,0.0,0.0,0.0,0.0,0.0,0.0,0.0,0.0,0.0,0.0,0.0,0.0,0.0,0.0,0.0,0.0,0.0,0.0,0.0,0.0,0.0,0.0,0.0,0.0,0.0,0.0,0.0,0.0,0.0,0.0,0.0,0.0,0.0,0.0,0.0,0.0,0.0,0.0,0.0,0.0,0.0,0.0,0.0,0.0,0.0,0.0,0.0,0.0,0.0,0.0,0.0,0.0,0.0,0.0,0.0,0.0,0.0,0.0,0.0,0.0,0.0,0.0,0.0,0.0,0.0,0.0,0.0,0.0,0.0,0.0,0.0,0.0,0.0,0.0,0.0,0.0,0.0,0.0,0.0,0.0,0.0,0.0,0.0,0.0,0.0,0.0,0.0,0.0,0.0,0.0,0.0,0.0,0.0,0.0,0.0,0.0,0.0,0.0,0.0,0.0,0.0,0.0,0.0,0.0,0.0,0.0,0.0,0.0,0.0,0.0,0.0,0.0,0.0,0.0,0.0,0.0,0.0,0.0,0.0,0.0,0.0,0.0,0.0,0.0,0.0,0.0,0.0,0.0,0.0,0.0,0.0,0.0,0.0,0.0,0.0,0.0,0.0,0.0,0.0,0.0,0.0,0.0,0.0,0.0,0.0,0.0,0.0,0.0,0.0,0.0,0.0,0.0,0.0,0.0,0.0,0.0,0.0,0.0,0.0,0.0,0.0,0.0,0.0,0.0,0.0,0.0,0.0,0.0,0.0,0.0,0.0,0.0,0.0,0.0,0.0,0.0,0.0,0.0,0.0,0.0,0.0,0.0,0.0,0.0,0.0,0.0,0.0,0.0,0.0,0.0,0.0,0.0,0.0,0.0,0.0,0.0,0.0,0.0,0.0,0.0,0.0,0.0,0.0,0.0,0.0,0.0,0.0,0.0,0.0,0.0,0.0,0.0,0.0,0.0,0.0,0.0,0.0,0.0,0.0,0.0,0.0,0.0,0.0,0.0,0.0,0.0,0.0,0.0,0.0,0.0,0.0,0.0,0.0,0.0,0.0,0.0,0.0,0.0,0.0,0.0,0.0,0.0,0.0,0.0,0.0,0.0,0.0,0.0,0.0,0.0,0.0,0.0,0.0,0.0,0.0,0.0,0.0,0.0,0.0,0.0,0.0,0.0,0.0,0.0,0.0,0.0,0.0,0.0,0.0,0.0,0.0,0.0,0.0,0.0,0.0,0.0,0.0,0.0,0.0,0.0,0.0,0.0,0.0,0.0,0.0,0.0,0.0,0.0,0.0,0.0,0.0,0.0,0.0,0.0,0.0,0.0,0.0,0.0,0.0,0.0,0.0,0.0,0.0,0.0,0.0,0.0,0.0,0.0,2.1201,0.0,0.0,0.0,0.0,0.0,0.0,0.0,0.0,0.0,0.0,0.0,0.0,0.0,0.0,0.0,0.0,0.0,0.0,0.0,0.0,0.0,0.0,0.0,0.0,0.0,0.0,0.0,0.0,0.0,0.0,0.0,0.0,0.0,0.0,0.0,0.0,0.0,0.0,0.0,0.0,0.0,0.0,0.0,0.0,0.0,0.0,0.0,0.0,0.0,0.0,0.0,0.0,0.0,0.0,0.0,0.0,0.0,0.0,0.0,0.0,0.0,0.0,0.0,0.0,0.0,0.0,0.0,0.0,0.0,0.0,0.0,0.0,0.0,0.0,0.0,0.0,0.0,0.0,0.0,0.0,0.0,0.0,0.0,0.0,0.0,0.0,0.0,0.0,0.0,0.0,0.0,0.0,0.0,0.0,0.0,0.0,0.0,0.0,0.0,0.0,0.0,0.0,0.0,0.0,0.0,0.0,0.0,0.0,0.0,0.0,2.2719,2.1917,2.1697,2.1445,2.1201,0.0,0.0,0.0,0.0,0.0,0.0,0.0,0.0,0.0,0.0,0.0,0.0,0.0,0.0,0.0,0.0,0.0,0.0,0.0,0.0,0.0,0.0,0.0,0.0,0.0,0.0,0.0,0.0,0.0,0.0,0.0,0.0,0.0,0.0,0.0,0.0,0.0,0.0,0.0,0.0,0.0,0.0,0.0,0.0,0.0,0.0,0.0,0.0,0.0,0.0,0.0,0.0,0.0,0.0,0.0,0.0,0.0,0.0,0.0,0.0,0.0,0.0,0.0,0.0,0.0,0.0,0.0,0.0,0.0,0.0,0.0,0.0,0.0,0.0,0.0,0.0,0.0,0.0,0.0,0.0,0.0,0.0,0.0,0.0,0.0,0.0,0.0,0.0,0.0,0.0,0.0,0.0,0.0,0.0,0.0,0.0,0.0,0.0,0.0,0.0,0.0,0.0,0.0,0.0,0.0,0.0,0.0,0.0,0.0,0.0,0.0,0.0,2.1963,2.1653,2.1224,0.0,0.0,0.0,0.0,0.0,0.0,0.0,0.0,0.0,0.0,0.0,0.0,0.0,0.0,0.0,0.0,0.0,0.0,0.0,0.0,0.0,0.0,0.0,0.0,0.0,0.0,0.0,0.0,0.0,0.0,0.0,0.0,0.0,0.0,0.0,0.0,0.0,0.0,0.0,0.0,0.0,0.0,0.0,0.0,0.0,0.0,0.0,0.0,0.0,0.0,0.0,0.0,0.0,0.0,0.0,0.0,0.0,0.0,0.0,0.0,0.0,0.0,0.0,0.0,0.0,0.0,0.0,0.0,0.0,0.0,0.0,0.0,0.0,0.0,0.0,0.0,0.0,0.0,0.0,0.0,0.0,0.0,0.0,0.0,0.0,0.0,0.0,0.0,0.0,0.0,0.0,0.0,0.0,0.0,0.0,0.0,0.0,0.0,0.0,0.0,0.0,0.0,0.0,0.0,0.0,0.0,0.0,0.0,0.0,0.0,2.3144,2.2627,2.2168,0.0,2.1247,0.0,0.0,0.0,0.0,0.0,0.0,0.0,0.0,0.0,0.0,0.0,0.0,0.0,0.0,0.0,0.0,0.0,0.0,0.0,0.0,0.0,0.0,0.0,0.0,0.0,0.0,0.0,0.0,0.0,0.0,0.0,0.0,0.0,0.0,0.0,0.0,0.0,0.0,0.0,0.0,0.0,0.0,0.0,0.0,0.0,0.0,0.0,0.0,0.0,0.0,0.0,0.0,0.0,0.0,0.0,0.0,0.0,0.0,0.0,0.0,0.0,0.0,0.0,0.0,0.0,0.0,0.0,0.0,0.0,0.0,0.0,0.0,0.0,0.0,0.0,0.0,0.0,0.0,0.0,0.0,0.0,0.0,0.0,0.0,0.0,0.0,0.0,0.0,0.0,0.0,0.0,0.0,0.0,0.0,0.0,0.0,0.0,0.0,0.0,0.0,0.0,0.0,0.0,0.0,0.0,0.0,0.0,0.0,0.0,0.0,2.3649,2.3109,2.2307,2.1686,0.0,0.0,0.0,0.0,0.0,0.0,0.0,0.0,0.0,0.0,0.0,0.0,0.0,0.0,0.0,0.0,0.0,0.0,0.0,0.0,0.0,0.0,0.0,0.0,0.0,0.0,0.0,0.0,0.0,0.0,0.0,0.0,0.0,0.0,0.0,0.0,0.0,0.0,0.0,0.0,0.0,0.0,0.0,0.0,0.0,0.0,0.0,0.0,0.0,0.0,0.0,0.0,0.0,0.0,0.0,0.0,0.0,0.0,0.0,0.0,0.0,0.0,0.0,0.0,0.0,0.0,0.0,0.0,0.0,0.0,0.0,0.0,0.0,0.0,0.0,0.0,0.0,0.0,0.0,0.0,0.0,0.0,0.0,0.0,0.0,0.0,0.0,0.0,0.0,0.0,0.0,0.0,0.0,0.0,0.0,0.0,0.0,0.0,0.0,0.0,0.0,0.0,0.0,0.0,0.0,0.0,0.0,0.0,0.0,0.0,2.4381,2.3995,2.3396,2.2421,2.1722,2.142,0.0,0.0,0.0,0.0,0.0,0.0,0.0,0.0,0.0,0.0,0.0,0.0,0.0,0.0,0.0,0.0,0.0,0.0,0.0,0.0,0.0,0.0,0.0,0.0,0.0,0.0,0.0,0.0,0.0,0.0,0.0,0.0,0.0,0.0,0.0,0.0,0.0,0.0,0.0,0.0,0.0,0.0,0.0,0.0,0.0,0.0,0.0,0.0,0.0,0.0,0.0,0.0,0.0,0.0,0.0,0.0,0.0,0.0,0.0,0.0,0.0,0.0,0.0,0.0,0.0,0.0,0.0,0.0,0.0,0.0,0.0,0.0,0.0,0.0,0.0,0.0,0.0,0.0,0.0,0.0,0.0,0.0,0.0,0.0,0.0,0.0,0.0,0.0,0.0,0.0,0.0,0.0,0.0,0.0,0.0,0.0,0.0,0.0,0.0,0.0,0.0,0.0,0.0,0.0,0.0,0.0,0.0,0.0,2.479,2.461,2.415,2.3407,2.2421,2.1883,0.0,0.0,0.0,0.0,0.0,0.0,0.0,0.0,0.0,0.0,0.0,0.0,0.0,0.0,0.0,0.0,0.0,0.0,0.0,0.0,0.0,0.0,0.0,0.0,0.0,0.0,0.0,0.0,0.0,0.0,0.0,0.0,0.0,0.0,0.0,0.0,0.0,0.0,0.0,0.0,0.0,0.0,0.0,0.0,0.0,0.0,0.0,0.0,0.0,0.0,0.0,0.0,0.0,0.0,0.0,0.0,0.0,0.0,0.0,0.0,0.0,0.0,0.0,0.0,0.0,0.0,0.0,0.0,0.0,0.0,0.0,0.0,0.0,0.0,0.0,0.0,0.0,0.0,0.0,0.0,0.0,0.0,0.0,0.0,0.0,0.0,0.0,0.0,0.0,0.0,0.0,0.0,0.0,0.0,0.0,0.0,0.0,0.0,0.0,0.0,0.0,0.0,0.0,0.0,0.0,0.0,0.0,0.0,0.0,2.4992,2.479,2.4389,2.3793,2.3443,2.3104,0.0,0.0,0.0,0.0,0.0,0.0,0.0,0.0,0.0,0.0,0.0,0.0,0.0,0.0,0.0,0.0,0.0,0.0,0.0,0.0,0.0,0.0,0.0,0.0,0.0,0.0,0.0,0.0,0.0,0.0,0.0,0.0,0.0,0.0,0.0,0.0,0.0,0.0,0.0,0.0,0.0,0.0,0.0,0.0,0.0,0.0,0.0,0.0,0.0,0.0,0.0,0.0,0.0,0.0,0.0,0.0,0.0,0.0,0.0,0.0,0.0,0.0,0.0,0.0,0.0,0.0,0.0,0.0,0.0,0.0,0.0,0.0,0.0,0.0,0.0,0.0,0.0,0.0,0.0,0.0,0.0,0.0,0.0,0.0,0.0,0.0,0.0,0.0,0.0,0.0,0.0,0.0,0.0,0.0,0.0,0.0,0.0,0.0,0.0,0.0,0.0,0.0,0.0,0.0,0.0,0.0,0.0,0.0,0.0,2.5076,0.0,2.4684,2.4284,2.4107,2.386,0.0,0.0,0.0,0.0,0.0,0.0,0.0,0.0,0.0,0.0,0.0,0.0,0.0,0.0,0.0,0.0,0.0,0.0,0.0,0.0,0.0,0.0,0.0,0.0,0.0,0.0,0.0,0.0,0.0,0.0,0.0,0.0,0.0,0.0,0.0,0.0,0.0,0.0,0.0,0.0,0.0,0.0,0.0,0.0,0.0,0.0,0.0,0.0,0.0,0.0,0.0,0.0,0.0,0.0,0.0,0.0,0.0,0.0,0.0,0.0,0.0,0.0,0.0,0.0,0.0,0.0,0.0,0.0,0.0,0.0,0.0,0.0,0.0,0.0,0.0,0.0,0.0,0.0,0.0,0.0,0.0,0.0,0.0,0.0,0.0,0.0,0.0,0.0,0.0,0.0,0.0,0.0,0.0,0.0,0.0,0.0,0.0,0.0,0.0,0.0,0.0,0.0,0.0,0.0,0.0,0.0,0.0,0.0,2.5265,2.5123,2.5123,2.5004,2.4814,2.4307,2.4025,0.0,0.0,0.0,0.0,0.0,0.0,0.0,0.0,0.0,0.0,0.0,0.0,0.0,0.0,0.0,0.0,0.0,0.0,0.0,0.0,0.0,0.0,0.0,0.0,0.0,0.0,0.0,0.0,0.0,0.0,0.0,0.0,0.0,0.0,0.0,0.0,0.0,0.0,0.0,0.0,0.0,0.0,0.0,0.0,0.0,0.0,0.0,0.0,0.0,0.0,0.0,0.0,0.0,0.0,0.0,0.0,0.0,0.0,0.0,0.0,0.0,0.0,0.0,0.0,0.0,0.0,0.0,0.0,0.0,0.0,0.0,0.0,0.0,0.0,0.0,0.0,0.0,0.0,0.0,0.0,0.0,0.0,0.0,0.0,0.0,0.0,0.0,0.0,0.0,0.0,0.0,0.0,0.0,0.0,0.0,0.0,0.0,0.0,0.0,0.0,0.0,0.0,0.0,0.0,0.0,0.0,0.0,0.0,0.0,2.5253,2.5241,2.5218,2.5147,2.498,2.4896,0.0,0.0,0.0,0.0,0.0,0.0,0.0,0.0,0.0,0.0,0.0,0.0,0.0,0.0,0.0,0.0,0.0,0.0,0.0,0.0,0.0,0.0,0.0,0.0,0.0,0.0,0.0,0.0,0.0,0.0,0.0,0.0,0.0,0.0,0.0,0.0,0.0,0.0,0.0,0.0,0.0,0.0,0.0,0.0,0.0,0.0,0.0,0.0,0.0,0.0,0.0,0.0,0.0,0.0,0.0,0.0,0.0,0.0,0.0,0.0,0.0,0.0,0.0,0.0,0.0,0.0,0.0,0.0,0.0,0.0,0.0,0.0,0.0,0.0,0.0,0.0,0.0,0.0,0.0,0.0,0.0,0.0,0.0,0.0,0.0,0.0,0.0,0.0,0.0,0.0,0.0,0.0,0.0,0.0,0.0,0.0,0.0,0.0,0.0,0.0,0.0,0.0,0.0,0.0,0.0,0.0,0.0,0.0,0.0,2.5877,2.5709,2.56,2.56,2.542,2.5408,2.5576,0.0,0.0,0.0,0.0,0.0,0.0,0.0,0.0,0.0,0.0,0.0,0.0,0.0,0.0,0.0,0.0,0.0,0.0,0.0,0.0,0.0,0.0,0.0,0.0,0.0,0.0,0.0,0.0,0.0,0.0,0.0,0.0,0.0,0.0,0.0,0.0,0.0,0.0,0.0,0.0,0.0,0.0,0.0,0.0,0.0,0.0,0.0,0.0,0.0,0.0,0.0,0.0,0.0,0.0,0.0,0.0,0.0,0.0,0.0,0.0,0.0,0.0,0.0,0.0,0.0,0.0,0.0,0.0,0.0,0.0,0.0,0.0,0.0,0.0,0.0,0.0,0.0,0.0,0.0,0.0,0.0,0.0,0.0,0.0,0.0,0.0,0.0,0.0,0.0,0.0,0.0,0.0,0.0,0.0,0.0,0.0,0.0,0.0,0.0,0.0,0.0,0.0,0.0,0.0,0.0,0.0,0.0,0.0,2.6873,2.6442,2.6178,2.6129,2.5636,2.5588,0.0,0.0,0.0,0.0,0.0,0.0,0.0,0.0,0.0,0.0,0.0,0.0,0.0,0.0,0.0,0.0,0.0,0.0,0.0,0.0,0.0,0.0,0.0,0.0,0.0,0.0,0.0,0.0,0.0,0.0,0.0,0.0,0.0,0.0,0.0,0.0,0.0,0.0,0.0,0.0,0.0,0.0,0.0,0.0,0.0,0.0,0.0,0.0,0.0,0.0,0.0,0.0,0.0,0.0,0.0,0.0,0.0,0.0,0.0,0.0,0.0,0.0,0.0,0.0,0.0,0.0,0.0,0.0,0.0,0.0,0.0,0.0,0.0,0.0,0.0,0.0,0.0,0.0,0.0,0.0,0.0,0.0,0.0,0.0,0.0,0.0,0.0,0.0,0.0,0.0,0.0,0.0,0.0,0.0,0.0,0.0,0.0,0.0,0.0,0.0,0.0,0.0,0.0,0.0,0.0,0.0,0.0,0.0,0.0,2.6898,2.7126,2.7066,2.6681,2.619,2.5949,0.0,0.0,0.0,0.0,0.0,0.0,0.0,0.0,0.0,0.0,0.0,0.0,0.0,0.0,0.0,0.0,0.0,0.0,0.0,0.0,0.0,0.0,0.0,0.0,0.0,0.0,0.0,0.0,0.0,0.0,0.0,0.0,0.0,0.0,0.0,0.0,0.0,0.0,0.0,0.0,0.0,0.0,0.0,0.0,0.0,0.0,0.0,0.0,0.0,0.0,0.0,0.0,0.0,0.0,0.0,0.0,0.0,0.0,0.0,0.0,0.0,0.0,0.0,0.0,0.0,0.0,0.0,0.0,0.0,0.0,0.0,0.0,0.0,0.0,0.0,0.0,0.0,0.0,0.0,0.0,0.0,0.0,0.0,0.0,0.0,0.0,0.0,0.0,0.0,0.0,0.0,0.0,0.0,0.0,0.0,0.0,0.0,0.0,0.0,0.0,0.0,0.0,0.0,0.0,0.0,0.0,0.0,0.0,2.7342,2.7558,2.7897,2.787,2.7609,2.6863,2.6454,0.0,0.0,0.0,0.0,0.0,0.0,0.0,0.0,0.0,0.0,0.0,0.0,0.0,0.0,0.0,0.0,0.0,0.0,0.0,0.0,0.0,0.0,0.0,0.0,0.0,0.0,0.0,0.0,0.0,0.0,0.0,0.0,0.0,0.0,0.0,0.0,0.0,0.0,0.0,0.0,0.0,0.0,0.0,0.0,0.0,0.0,0.0,0.0,0.0,0.0,0.0,0.0,0.0,0.0,0.0,0.0,0.0,0.0,0.0,0.0,0.0,0.0,0.0,0.0,0.0,0.0,0.0,0.0,0.0,0.0,0.0,0.0,0.0,0.0,0.0,0.0,0.0,0.0,0.0,0.0,0.0,0.0,0.0,0.0,0.0,0.0,0.0,0.0,0.0,0.0,0.0,0.0,0.0,0.0,0.0,0.0,0.0,0.0,0.0,0.0,0.0,0.0,0.0,0.0,0.0,0.0,0.0,0.0,2.7972,2.8526,2.855,2.855,2.8514,2.7536,2.6982,0.0,0.0,0.0,0.0,0.0,0.0,0.0,0.0,0.0,0.0,0.0,0.0,0.0,0.0,0.0,0.0,0.0,0.0,0.0,0.0,0.0,0.0,0.0,0.0,0.0,0.0,0.0,0.0,0.0,0.0,0.0,0.0,0.0,0.0,0.0,0.0,0.0,0.0,0.0,0.0,0.0,0.0,0.0,0.0,0.0,0.0,0.0,0.0,0.0,0.0,0.0,0.0,0.0,0.0,0.0,0.0,0.0,0.0,0.0,0.0,0.0,0.0,0.0,0.0,0.0,0.0,0.0,0.0,0.0,0.0,0.0,0.0,0.0,0.0,0.0,0.0,0.0,0.0,0.0,0.0,0.0,0.0,0.0,0.0,0.0,0.0,0.0,0.0,0.0,0.0,0.0,0.0,0.0,0.0,0.0,0.0,0.0,0.0,0.0,0.0,0.0,0.0,0.0,0.0,0.0,0.0,0.0,0.0,2.802,2.8949,2.8973,2.8973,2.8973,2.8041,2.7522,0.0,0.0,0.0,0.0,0.0,0.0,0.0,0.0,0.0,0.0,0.0,0.0,0.0,0.0,0.0,0.0,0.0,0.0,0.0,0.0,0.0,0.0,0.0,0.0,0.0,0.0,0.0,0.0,0.0,0.0,0.0,0.0,0.0,0.0,0.0,0.0,0.0,0.0,0.0,0.0,0.0,0.0,0.0,0.0,0.0,0.0,0.0,0.0,2.9634,0.0,0.0,0.0,0.0,0.0,0.0,0.0,0.0,0.0,0.0,0.0,0.0,0.0,0.0,0.0,0.0,0.0,0.0,0.0,0.0,0.0,0.0,0.0,0.0,0.0,0.0,0.0,0.0,0.0,0.0,0.0,0.0,0.0,0.0,0.0,0.0,0.0,0.0,0.0,0.0,0.0,0.0,0.0,0.0,0.0,0.0,0.0,0.0,0.0,0.0,0.0,0.0,0.0,0.0,0.0,0.0,0.0,0.0,0.0,2.826,2.8699,2.8956,2.9104,2.9091,2.8626,2.8242,0.0,0.0,0.0,0.0,0.0,0.0,0.0,0.0,0.0,0.0,0.0,0.0,0.0,0.0,0.0,0.0,0.0,0.0,0.0,0.0,0.0,0.0,0.0,0.0,0.0,0.0,0.0,0.0,0.0,0.0,0.0,0.0,0.0,0.0,0.0,0.0,0.0,0.0,0.0,0.0,0.0,0.0,0.0,0.0,0.0,0.0,0.0,0.0,0.0,0.0,0.0,0.0,0.0,0.0,0.0,0.0,0.0,0.0,0.0,0.0,0.0,0.0,0.0,0.0,0.0,0.0,0.0,0.0,0.0,0.0,0.0,0.0,0.0,0.0,0.0,0.0,0.0,0.0,0.0,0.0,0.0,0.0,0.0,0.0,0.0,0.0,0.0,0.0,0.0,0.0,0.0,0.0,0.0,0.0,0.0,0.0,0.0,0.0,0.0,0.0,0.0,0.0,0.0,0.0,0.0,0.0,0.0,2.8387,2.8425,2.836,2.8793,2.9028,2.904,2.9114,2.8941,2.8496,0.0,0.0,0.0,0.0,0.0,0.0,0.0,0.0,0.0,0.0,0.0,0.0,0.0,0.0,0.0,0.0,0.0,0.0,0.0,0.0,0.0,0.0,0.0,0.0,0.0,0.0,0.0,0.0,0.0,0.0,0.0,0.0,0.0,0.0,0.0,0.0,0.0,0.0,2.8507,3.0087,0.0,0.0,0.0,0.0,0.0,0.0,0.0,0.0,3.0819,0.0,0.0,0.0,0.0,0.0,0.0,0.0,0.0,0.0,0.0,0.0,0.0,0.0,0.0,0.0,0.0,0.0,0.0,0.0,0.0,0.0,0.0,0.0,0.0,0.0,0.0,0.0,0.0,0.0,0.0,0.0,0.0,0.0,0.0,0.0,0.0,0.0,0.0,0.0,0.0,0.0,0.0,0.0,0.0,0.0,0.0,0.0,0.0,0.0,0.0,0.0,0.0,0.0,0.0,0.0,0.0,2.8831,2.8221,2.8104,2.8526,2.8627,2.8678,2.8691,2.9148,2.9401,2.925,0.0,0.0,0.0,0.0,0.0,0.0,0.0,0.0,0.0,0.0,0.0,0.0,0.0,0.0,0.0,0.0,0.0,0.0,0.0,0.0,0.0,0.0,0.0,0.0,0.0,0.0,0.0,0.0,0.0,0.0,0.0,0.0,0.0,0.0,0.0,0.0,0.0,0.0,0.0,3.1684,3.2882,0.0,0.0,0.0,0.0,0.0,0.0,0.0,0.0,3.2055,0.0,0.0,0.0,0.0,0.0,0.0,0.0,0.0,0.0,0.0,0.0,0.0,0.0,0.0,0.0,0.0,0.0,0.0,0.0,0.0,0.0,0.0,0.0,0.0,0.0,0.0,0.0,0.0,0.0,0.0,0.0,0.0,0.0,0.0,0.0,0.0,0.0,0.0,0.0,0.0,0.0,0.0,0.0,0.0,0.0,0.0,0.0,0.0,0.0,0.0,0.0,0.0,0.0,0.0,0.0,2.9294,2.873,2.8365,2.8463,2.876,2.8915,2.8915,2.9484,2.9794,0.0,0.0,0.0,0.0,0.0,0.0,0.0,0.0,0.0,0.0,0.0,0.0,0.0,0.0,0.0,0.0,0.0,0.0,0.0,0.0,0.0,0.0,0.0,0.0,0.0,0.0,0.0,0.0,0.0,0.0,0.0,0.0,0.0,0.0,0.0,0.0,0.0,0.0,0.0,0.0,3.3206,3.4307,3.4947,0.0,0.0,0.0,0.0,0.0,0.0,3.4466,3.4014,0.0,0.0,0.0,0.0,0.0,0.0,0.0,0.0,0.0,0.0,0.0,0.0,0.0,0.0,0.0,0.0,0.0,0.0,0.0,0.0,0.0,0.0,0.0,0.0,0.0,0.0,0.0,0.0,0.0,0.0,0.0,0.0,0.0,0.0,0.0,0.0,0.0,0.0,0.0,0.0,0.0,0.0,0.0,0.0,0.0,0.0,0.0,0.0,0.0,0.0,0.0,0.0,0.0,0.0,0.0,2.992,2.9275,2.8738,2.8399,2.8833,2.9092,2.9083,2.9802,3.0171,0.0,0.0,0.0,0.0,0.0,0.0,0.0,0.0,0.0,0.0,0.0,0.0,0.0,0.0,0.0,0.0,0.0,0.0,0.0,0.0,0.0,0.0,0.0,0.0,0.0,0.0,0.0,0.0,0.0,0.0,0.0,0.0,0.0,0.0,0.0,0.0,0.0,0.0,0.0,0.0,0.0,3.5768,3.6577,3.689,0.0,0.0,0.0,0.0,3.6717,3.6188,0.0,0.0,0.0,0.0,0.0,0.0,0.0,0.0,0.0,0.0,0.0,0.0,0.0,0.0,0.0,0.0,0.0,0.0,0.0,0.0,0.0,0.0,0.0,0.0,0.0,0.0,0.0,0.0,0.0,0.0,0.0,0.0,0.0,0.0,0.0,0.0,0.0,0.0,0.0,0.0,0.0,0.0,0.0,0.0,0.0,0.0,0.0,0.0,0.0,0.0,0.0,0.0,0.0,0.0,0.0,0.0,3.0697,2.9487,2.8719,2.8584,2.8633,2.866,2.8673,2.9774,3.0369,0.0,0.0,0.0,0.0,0.0,0.0,0.0,0.0,0.0,0.0,0.0,0.0,0.0,0.0,0.0,0.0,0.0,0.0,0.0,0.0,0.0,0.0,0.0,0.0,0.0,0.0,0.0,0.0,0.0,0.0,0.0,0.0,0.0,0.0,0.0,0.0,0.0,0.0,0.0,0.0,0.0,3.7297,3.8349,3.8689,3.8996,0.0,0.0,3.8142,3.8521,3.7553,0.0,0.0,0.0,0.0,0.0,0.0,0.0,0.0,0.0,0.0,0.0,0.0,0.0,0.0,0.0,0.0,0.0,0.0,0.0,0.0,0.0,0.0,0.0,0.0,0.0,0.0,0.0,0.0,0.0,0.0,0.0,0.0,0.0,0.0,0.0,0.0,0.0,0.0,0.0,0.0,0.0,0.0,0.0,0.0,0.0,0.0,0.0,0.0,0.0,0.0,0.0,0.0,0.0,0.0,0.0,3.0094,3.1264,3.0161,2.9418,2.9194,2.9162,2.9162,2.9162,3.0339,3.0962,0.0,0.0,0.0,0.0,0.0,0.0,0.0,0.0,0.0,0.0,0.0,0.0,0.0,0.0,0.0,0.0,0.0,0.0,0.0,0.0,0.0,0.0,0.0,0.0,0.0,0.0,0.0,0.0,0.0,0.0,0.0,0.0,0.0,0.0,0.0,0.0,0.0,0.0,0.0,0.0,0.0,0.0,3.9686,4.0389,0.0,0.0,0.0,4.0334,4.0253,0.0,0.0,0.0,0.0,0.0,0.0,0.0,0.0,0.0,0.0,0.0,0.0,0.0,0.0,0.0,0.0,0.0,0.0,0.0,0.0,0.0,0.0,0.0,0.0,0.0,0.0,0.0,0.0,0.0,0.0,0.0,0.0,0.0,0.0,0.0,0.0,0.0,0.0,0.0,0.0,0.0,0.0,0.0,0.0,0.0,0.0,0.0,0.0,0.0,0.0,0.0,0.0,0.0,0.0,0.0,0.0,0.0,3.1979,3.0898,3.016,2.9882,2.9851,2.9851,2.9865,3.1023,0.0,0.0,0.0,0.0,0.0,0.0,0.0,0.0,0.0,0.0,0.0,0.0,0.0,0.0,0.0,0.0,0.0,0.0,0.0,0.0,0.0,0.0,0.0,0.0,0.0,0.0,0.0,3.0437,0.0,0.0,0.0,0.0,0.0,0.0,0.0,0.0,0.0,0.0,0.0,0.0,0.0,0.0,3.9392,4.0774,4.1696,4.2237,0.0,0.0,4.2278,4.1914,4.1219,4.0386,0.0,0.0,0.0,0.0,0.0,0.0,0.0,0.0,0.0,0.0,0.0,0.0,0.0,0.0,0.0,0.0,0.0,0.0,0.0,0.0,0.0,0.0,0.0,0.0,0.0,0.0,0.0,0.0,0.0,0.0,0.0,0.0,0.0,0.0,0.0,0.0,0.0,0.0,0.0,0.0,0.0,0.0,0.0,0.0,0.0,0.0,0.0,0.0,0.0,0.0,0.0,0.0,0.0,0.0,3.1886,3.2825,3.1632,3.0807,3.0538,3.0538,3.0507,3.0567,3.1785,3.2437,0.0,0.0,0.0,0.0,0.0,0.0,0.0,0.0,0.0,0.0,0.0,0.0,0.0,0.0,0.0,0.0,0.0,0.0,0.0,0.0,0.0,0.0,0.0,0.0,0.0,0.0,0.0,0.0,0.0,0.0,0.0,0.0,0.0,0.0,0.0,0.0,0.0,0.0,0.0,0.0,0.0,4.0394,4.1473,4.2361,4.3167,0.0,4.3618,4.3473,4.3459,4.2552,4.1608,4.073,0.0,0.0,0.0,0.0,0.0,0.0,0.0,0.0,0.0,0.0,0.0,0.0,0.0,0.0,0.0,0.0,0.0,0.0,0.0,0.0,0.0,0.0,0.0,0.0,0.0,0.0,0.0,0.0,0.0,0.0,0.0,0.0,0.0,0.0,0.0,0.0,0.0,0.0,0.0,0.0,0.0,0.0,0.0,0.0,0.0,0.0,0.0,0.0,0.0,0.0,0.0,0.0,0.0,3.2714,3.4008,3.2826,3.2273,3.2375,3.239,3.236,3.2405,3.2878,3.3099,0.0,0.0,0.0,0.0,0.0,0.0,0.0,0.0,0.0,0.0,0.0,0.0,0.0,0.0,0.0,0.0,0.0,0.0,0.0,0.0,0.0,0.0,0.0,0.0,0.0,0.0,0.0,0.0,3.3227,3.3494,3.3169,0.0,0.0,0.0,0.0,0.0,0.0,0.0,0.0,0.0,0.0,4.0766,4.2302,4.3505,0.0,0.0,4.4615,4.4777,4.4662,4.3488,4.2438,4.2024,4.0166,0.0,0.0,0.0,0.0,0.0,0.0,0.0,0.0,0.0,0.0,0.0,0.0,0.0,0.0,0.0,0.0,0.0,0.0,0.0,0.0,0.0,0.0,0.0,0.0,0.0,0.0,0.0,0.0,0.0,0.0,0.0,0.0,0.0,0.0,0.0,0.0,0.0,0.0,0.0,0.0,0.0,0.0,0.0,0.0,0.0,0.0,0.0,0.0,0.0,0.0,0.0,0.0,3.3684,3.508,3.4071,3.3645,3.3804,3.3819,3.3804,3.3819,3.4001,3.4091,0.0,0.0,0.0,0.0,0.0,0.0,0.0,0.0,0.0,0.0,0.0,0.0,0.0,0.0,0.0,0.0,0.0,0.0,0.0,0.0,0.0,0.0,0.0,0.0,0.0,0.0,0.0,0.0,3.4179,3.4182,3.382,0.0,0.0,0.0,0.0,0.0,0.0,0.0,0.0,0.0,0.0,4.1355,4.3299,4.4571,4.5239,4.5208,4.5717,4.5986,4.5636,4.4508,4.3463,4.3049,0.0,0.0,0.0,0.0,0.0,0.0,0.0,0.0,0.0,0.0,0.0,0.0,0.0,0.0,0.0,0.0,0.0,0.0,0.0,0.0,0.0,0.0,0.0,0.0,0.0,0.0,0.0,3.5403,0.0,0.0,3.5343,0.0,0.0,0.0,0.0,0.0,0.0,0.0,0.0,0.0,0.0,0.0,0.0,0.0,0.0,0.0,0.0,0.0,0.0,0.0,0.0,0.0,0.0,3.4829,3.5937,3.525,3.4747,3.4519,3.4488,3.4534,3.4549,3.5136,3.5445,3.5445,0.0,0.0,0.0,0.0,0.0,0.0,0.0,0.0,0.0,0.0,0.0,0.0,0.0,0.0,0.0,0.0,0.0,0.0,0.0,0.0,0.0,0.0,0.0,0.0,0.0,0.0,3.6642,3.6438,3.588,0.0,0.0,0.0,0.0,0.0,0.0,0.0,0.0,0.0,4.1063,4.1458,4.2328,4.4613,4.549,4.6031,4.649,4.6914,4.704,4.6396,4.5555,4.4665,0.0,0.0,0.0,0.0,0.0,0.0,0.0,0.0,0.0,0.0,0.0,0.0,0.0,0.0,0.0,0.0,0.0,0.0,0.0,0.0,0.0,0.0,0.0,0.0,0.0,0.0,0.0,3.8484,3.8193,0.0,0.0,0.0,0.0,0.0,0.0,0.0,0.0,0.0,0.0,0.0,3.8854,3.8784,0.0,0.0,0.0,0.0,0.0,0.0,0.0,0.0,0.0,0.0,0.0,0.0,3.6087,3.7179,3.646,3.6146,3.6397,3.6428,3.6413,3.6413,3.6209,3.6158,3.6306,0.0,0.0,0.0,0.0,0.0,0.0,0.0,0.0,0.0,0.0,0.0,0.0,0.0,0.0,0.0,0.0,0.0,0.0,0.0,0.0,0.0,0.0,0.0,0.0,0.0,3.6745,0.0,0.0,0.0,0.0,0.0,0.0,0.0,0.0,0.0,0.0,0.0,3.848,4.086,4.1587,4.2588,4.4455,4.5728,4.654,0.0,0.0,0.0,0.0,0.0,0.0,0.0,0.0,0.0,0.0,0.0,0.0,0.0,0.0,3.8178,3.6179,3.5382,3.4966,3.4929,0.0,0.0,0.0,0.0,0.0,0.0,0.0,0.0,0.0,0.0,0.0,0.0,0.0,0.0,4.0348,4.0306,3.9303,0.0,0.0,0.0,0.0,0.0,0.0,0.0,0.0,4.0742,4.0819,4.0158,4.0132,3.9955,3.972,3.9566,3.8857,0.0,0.0,0.0,0.0,0.0,0.0,0.0,0.0,3.7166,3.8064,3.7564,3.7434,3.7725,3.774,3.774,3.774,3.7326,3.7144,3.7274,3.6782,3.665,0.0,0.0,0.0,0.0,0.0,0.0,0.0,0.0,0.0,0.0,0.0,0.0,0.0,0.0,0.0,0.0,0.0,0.0,0.0,0.0,0.0,0.0,0.0,3.7965,0.0,0.0,0.0,0.0,0.0,0.0,0.0,0.0,0.0,3.8335,3.836,3.9145,4.1337,4.2205,4.3279,4.5015,0.0,0.0,0.0,0.0,0.0,0.0,0.0,4.6691,4.6628,4.4716,4.3312,4.3442,4.2887,4.2334,4.2066,0.0,0.0,3.7863,3.6944,3.6527,3.6262,3.6234,3.6182,3.5996,3.5958,3.586,0.0,0.0,0.0,0.0,4.2003,0.0,0.0,0.0,4.1587,4.1683,0.0,4.1694,0.0,0.0,0.0,0.0,4.2272,4.2172,0.0,0.0,4.2368,4.1978,4.1393,4.1248,4.0815,4.0155,4.0138,4.0096,4.0003,3.8864,0.0,0.0,0.0,0.0,0.0,0.0,3.8106,3.8606,3.8623,3.8556,3.842,3.842,3.842,3.842,3.8403,3.8375,3.842,3.8495,3.823,3.7394,3.682,0.0,0.0,0.0,0.0,0.0,0.0,0.0,0.0,0.0,0.0,0.0,0.0,0.0,0.0,0.0,0.0,0.0,0.0,0.0,0.0,3.892,0.0,0.0,0.0,0.0,0.0,0.0,0.0,0.0,0.0,0.0,3.9572,3.9634,4.0358,4.248,0.0,0.0,0.0,0.0,4.7951,4.8869,4.9069,4.9231,4.975,4.8497,4.7446,4.7238,0.0,0.0,4.4896,4.4572,4.4274,4.4305,4.3404,4.2,3.9739,3.9188,3.8932,3.8312,3.8153,3.8136,3.7947,3.778,3.7724,4.5432,0.0,0.0,0.0,0.0,4.4231,4.4106,4.3874,4.3518,4.3377,4.336,4.2745,0.0,0.0,0.0,0.0,0.0,0.0,4.3434,4.303,4.2894,4.2482,4.181,4.1229,4.0886,4.068,4.0655,4.068,4.0655,4.0312,3.9772,3.9109,0.0,0.0,0.0,0.0,3.91,3.9228,3.9104,3.9007,3.898,3.8952,3.8925,3.8849,3.8722,3.8683,3.8694,3.8722,3.8624,3.8384,3.7785,0.0,0.0,0.0,0.0,0.0,0.0,0.0,0.0,0.0,0.0,0.0,0.0,0.0,0.0,0.0,0.0,0.0,0.0,0.0,3.9078,3.9664,3.9961,0.0,0.0,0.0,0.0,0.0,0.0,0.0,0.0,0.0,4.0101,4.0765,4.1581,0.0,0.0,4.5692,4.6487,4.7206,4.7854,4.8395,4.8453,0.0,4.8978,4.8248,4.7584,4.7384,4.6324,4.541,4.5167,4.5017,4.4905,4.4761,4.4055,4.3063,4.1839,4.071,3.9869,3.9253,3.9038,3.8929,3.8634,3.856,3.8427,4.6725,4.6152,4.5304,4.4993,4.5087,4.4742,4.4475,4.4242,4.3949,4.3828,4.3828,4.3345,4.3212,4.3353,4.337,0.0,0.0,0.0,4.392,4.3485,4.3426,4.301,4.2287,4.1835,4.1453,4.1192,4.1175,4.1157,4.1175,4.1221,4.1018,4.059,0.0,4.0171,4.002,3.9833,3.9729,3.9729,3.9618,3.9549,3.9549,3.9513,3.9425,3.9265,3.9212,3.9158,3.9158,3.9158,3.9158,3.9158,3.8497,3.7902,0.0,0.0,0.0,0.0,0.0,0.0,0.0,0.0,0.0,0.0,0.0,3.4847,3.5966,0.0,0.0,0.0,3.8623,3.9354,3.9995,4.0303,0.0,0.0,0.0,0.0,0.0,0.0,0.0,4.057,4.0607,4.06,4.0568,4.1605,4.2402,4.2456,4.439,4.5988,4.6422,0.0,4.8117,4.8472,4.8502,4.8625,4.8988,4.8482,4.7845,4.7255,4.653,4.5825,4.534,4.5128,4.4872,4.4481,4.3946,4.3252,4.2483,4.1628,4.076,3.9909,3.9722,3.958,3.922,3.9177,3.9053,4.7139,4.7612,4.5758,4.5022,4.494,4.406,4.3537,4.3402,4.344,4.3506,4.3565,4.3609,4.3769,4.3921,4.3921,0.0,4.4101,4.3986,4.3957,4.3921,4.3869,4.3465,4.2745,4.2658,4.2289,4.1626,4.1644,4.1644,4.1626,4.1736,4.1758,4.1626,4.0948,4.059,4.0541,4.0296,4.0146,4.0146,4.0171,4.0146,4.0163,4.0011,3.9901,3.9755,3.9729,3.9713,3.9703,3.9703,3.9703,3.9687,3.9067,3.8681,3.8623,0.0,0.0,0.0,0.0,0.0,0.0,0.0,0.0,0.0,0.0,0.0,0.0,0.0,0.0,0.0,4.0027,0.0,4.0652,4.089,0.0,0.0,0.0,4.1244,4.1163,4.1181,4.1099,4.0989,0.0,0.0,4.0982,4.2144,4.2774,4.2219,4.403,4.5644,4.6136,4.7395,4.8438,4.8597,4.873,4.8877,4.8897,4.8451,4.7693,4.6815,4.6403,4.5869,4.5307,4.4919,4.4455,4.3911,4.3415,4.2919,4.2313,4.2157,4.1719,4.0582,4.032,4.0181,3.9895,3.9788,3.9753,4.7787,4.7286,4.5684,4.5116,4.5258,4.447,4.4107,4.4061,4.4084,4.4084,4.4101,4.4107,4.417,4.4211,4.4211,4.4216,4.4238,4.4233,4.4193,4.4158,4.358,4.3191,4.2979,4.2449,4.2096,4.1919,4.1902,4.1919,4.1902,4.1923,4.1987,4.1956,4.1719,4.1373,4.1047,4.0806,4.0686,4.0704,4.0704,4.0655,4.0551,4.0436,4.0288,4.0138,3.9977,3.9849,3.9833,3.9755,3.9755,3.9833,3.9681,3.9413,3.9078,3.8843,0.0,0.0,0.0,0.0,0.0,0.0,0.0,0.0,0.0,3.7205,3.8584,0.0,3.9453,0.0,4.0903,4.1192,4.1232,4.1346,0.0,0.0,4.1648,4.1692,4.1789,4.1688,4.1666,4.1728,4.1706,4.1604,4.1582,4.1808,4.2039,4.2255,4.4234,4.5674,4.5665,4.6374,4.6968,4.7018,4.7022,4.688,4.6811,4.6356,4.5979,4.5505,4.524,4.4976,4.4762,4.4477,4.4243,4.4086,4.3588,4.3154,4.2914,4.2502,4.2006,4.1552,4.1187,4.083,4.0593,4.0524,4.0489,4.7913,4.7679,4.5791,4.5104,4.5151,4.4025,4.3504,4.3462,4.3504,4.3504,4.344,4.3522,4.3544,4.3544,4.3544,4.3544,4.3544,4.3544,4.3544,4.3508,4.3102,4.287,4.287,4.246,4.2264,4.2264,4.2264,4.2282,4.2264,4.2264,4.2305,4.231,4.219,4.2002,4.1727,4.1436,4.1255,4.1255,4.1237,4.118,4.1018,4.0877,4.0734,4.0524,4.0362,4.0213,4.0163,4.0113,4.0113,4.0163,4.0213,4.015,3.9925,3.9789,3.9399,0.0,0.0,0.0,0.0,0.0,0.0,0.0,0.0,0.0,0.0,0.0,4.0608,4.1305,4.1498,4.1609,4.167,4.174,4.1845,4.1902,4.1927,4.197,4.2005,4.1923,4.1923,4.1984,4.1923,4.1884,4.1902,4.1776,4.1745,4.1967,4.3348,4.4599,4.5224,4.5862,4.6397,4.6587,4.6531,4.6398,4.6079,4.5737,4.55,4.5372,4.513,4.4838,4.4448,4.422,4.3959,4.3572,4.3153,4.2799,4.2701,4.2397,4.2093,4.198,4.1752,4.1454,4.1104,4.0969,4.0882,4.7759,4.8173,4.5978,4.5042,4.4898,4.3314,4.2552,4.2432,4.255,4.2532,4.2432,4.255,4.2609,4.2609,4.2609,4.2609,4.2609,4.2609,4.2609,4.2609,4.2609,4.2609,4.2609,4.2609,4.2609,4.2609,4.2609,4.2609,4.2609,4.2609,4.2609,4.2609,4.2512,4.2452,4.2432,4.2047,4.1817,4.1753,4.1753,4.1683,4.148,4.1368,4.1192,4.0919,4.0853,4.0745,4.059,4.0583,4.0583,4.059,4.0704,4.0806,4.0902,4.0537,4.0315,0.0,3.9817,0.0,0.0,0.0,0.0,0.0,0.0,0.0,0.0,4.1095,4.1591,4.1845,4.1884,4.1927,4.2069,4.2139,4.2142,4.2094,4.2139,4.2142,4.2072,4.2072,4.209,4.209,4.209,4.2072,4.2069,4.1948,4.1801,4.178,4.2216,4.3141,4.4492,4.5243,4.5815,4.6544,4.6513,4.6115,4.5949,4.5729,4.5514,4.5485,4.5169,4.4848,4.4161,4.3921,4.3537,4.2891,4.2636,4.2477,4.2238,4.2222,4.2206,4.2174,4.2158,4.1948,4.1555,4.1339,4.1236,4.7705,4.7708,4.599,4.5249,4.5122,4.3512,4.2728,4.2552,4.2589,4.2589,4.2552,4.2589,4.2609,4.2609,4.2609,4.2609,4.2609,4.2609,4.2609,4.2609,4.2609,4.2609,4.2609,4.2609,4.2609,4.2609,4.2609,4.2609,4.2609,4.2609,4.2667,4.2764,4.2745,4.2707,4.2725,0.0,0.0,0.0,4.2107,4.2061,4.1809,4.1892,4.1792,4.1556,4.1475,0.0,4.1094,4.0971,4.0954,4.1071,4.1094,0.0,0.0,0.0,0.0,0.0,0.0,0.0,0.0,0.0,0.0,0.0,4.1537,4.1785,4.1547,4.1799,4.204,4.2184,4.2302,4.2382,4.2402,4.2468,4.251,4.249,4.249,4.251,4.249,4.247,4.247,4.249,4.2488,4.2468,4.2402,4.2284,4.2163,4.2016,4.1986,4.2343,4.3208,4.3677,4.4035,4.4479,4.4888,4.4925,4.4857,4.4666,4.4519,4.4268,4.4072,4.3875,4.3668,4.342,4.3295,4.299,4.299,4.2898,4.2775,4.2728,4.2665,4.2523,4.2397,4.2254,4.2013,4.1916,4.1899,4.7847,4.7702,4.6121,4.5449,0.0,4.374,4.2975,4.2841,4.2767,4.2747,4.2747,4.2747,4.2747,4.2747,4.2747,4.2747,4.2747,4.2747,4.2747,4.2747,4.2747,4.2765,4.2747,4.2747,4.2747,4.2747,4.2747,4.2747,4.2747,4.2747,4.2804,4.2842,4.2861,4.2861,4.2842,4.2842,4.2688,4.2369,4.247,4.245,4.2269,4.2249,4.2145,4.1917,4.1805,0.0,0.0,0.0,0.0,0.0,0.0,0.0,0.0,4.1913,0.0,4.1632,4.1635,4.1497,4.1243,4.1564,4.1799,4.1859,4.2217,4.2369,4.216,4.2267,4.2371,4.2432,4.2508,4.2528,4.2548,4.257,4.2609,4.2609,4.2609,4.2609,4.2609,4.2609,4.2609,4.2609,4.2609,4.2607,4.2548,4.2508,4.2389,4.2225,4.2121,4.2136,4.241,4.2736,4.3221,4.3984,4.4257,4.4497,4.4657,4.4491,4.4265,4.4184,4.3952,4.3763,4.3674,4.3462,4.3342,4.3265,4.3251,4.3174,4.3037,4.3007,4.2945,4.279,4.2696,4.2571,4.2397,4.2206,4.2077,4.7992,4.7846,4.626,4.5585,4.5475,4.3889,4.316,4.3123,4.2975,0.0,0.0,4.2919,4.2919,4.2919,4.2919,4.2919,4.2919,4.2919,4.2919,4.2919,4.2919,4.2919,4.2919,4.2919,4.2919,4.2919,4.2919,4.2919,4.2919,4.2919,4.2919,4.2919,4.2919,4.2919,4.2919,4.2919,4.2824,4.2668,4.2746,4.2746,4.2629,4.2532,4.2412,4.2246,4.2103,4.1934,4.1736,4.1714,4.1692,4.1692,4.1823,4.1931,4.1998,4.2124,4.2287,4.2486,4.2506,4.2546,4.2589,4.2609,4.2609,4.2609,4.2629,4.2607,4.2524,4.2568,4.2609,4.2609,4.2629,4.2629,4.2647,4.2649,4.265,4.2668,4.265,4.2668,4.265,4.2668,4.265,4.265,4.2668,4.2649,4.2647,4.2647,4.257,4.2409,4.2348,4.2267,4.214,4.2409,4.2933,4.3709,4.3957,4.4277,4.4675,4.4531,4.4433,4.4429,4.4196,4.3985,4.3898,4.3763,4.3598,4.3432,4.3432,4.3342,4.3204,4.3143,4.3113,4.2945,4.2899,4.2868,4.2665,4.2413,4.2206,4.8012,4.7864,4.626,4.5585,4.5494,4.3889,4.3178,4.316,4.2994,4.2919,4.2919,4.2919,4.2919,4.2919,4.2919,4.2919,4.2919,4.2919,4.2919,4.2919,4.2919,4.2919,4.2919,4.2919,4.2919,4.2919,4.2919,4.2919,4.2919,4.2919,4.2919,4.2919,4.2919,4.2919,4.2919,4.2919,4.2882,4.2844,4.2881,4.2861,4.2783,4.2805,4.2786,4.2688,4.257,4.2391,4.2225,4.21,4.2019,4.2019,4.2163,4.2284,4.2422,4.2488,4.255,4.257,4.2589,4.2589,4.2609,4.2609,4.2609,4.2609,4.2706,4.2725,4.2589,4.2589,4.2609,4.2609,4.2706,4.2764,4.2783,4.2823,4.2862,4.2862,4.2862,4.2862,4.2862,4.2843,4.2843,4.2843,4.2862,4.2842,4.2765,4.2764,4.2725,4.2589,4.253,4.2472,4.2353,4.2498,4.2717,4.2935,4.3214,4.3662,4.4199,4.4127,4.4048,4.4429,4.4266,4.4071,4.3856,4.3835,4.3747,4.3598,4.3568,4.3492,4.3388,4.3358,4.3281,4.3113,4.3007,4.293,4.2868,4.2665,4.2508,4.8326,4.8197,4.7058,4.6342,4.5791,4.407,4.3357,4.3339,4.3142,4.305,4.2994,4.303,4.2957,4.2919,4.2919,4.2919,4.2919,4.2919,4.2919,4.2919,4.2919,4.2919,4.2919,4.2919,4.2919,4.2919,4.2919,4.2919,4.2919,4.2919,4.2919,4.2919,4.2919,4.2919,4.2919,4.2919,4.2919,4.2919,4.2919,4.2881,4.2843,4.2881,4.288,4.2803,4.2745,4.2647,4.247,4.2409,4.2389,4.2369,4.243,4.2508,4.2566,4.257,4.2629,4.2706,4.2706,4.2727,4.2767,4.2767,4.2749,4.2767,4.2805,4.2824,4.2749,4.2767,4.2767,4.2749,4.2824,4.2861,4.2843,4.2881,4.2919,4.2919,4.2919,4.2919,4.2919,4.2919,4.2919,4.2919,4.2919,4.29,4.2861,4.2861,4.2823,4.2725,4.2667,4.257,4.247,4.2469,4.2559,4.2788,4.2888,4.3199,4.3717,4.3596,4.3494,4.351,4.3684,4.367,4.3516,4.3618,4.3772,4.3628,4.3598,4.3568,4.3492,4.3492,4.3432,4.3312,4.3221,4.3129,4.3037,4.2883,4.2728,4.866,4.8604,4.7809,4.6884,4.5833,4.4276,4.3565,4.3549,4.3375,4.3251,4.3178,4.316,4.3068,4.2957,4.2975,4.2957,4.2938,4.2938,4.2938,4.2919,4.2919,4.2919,4.2919,4.2919,4.2919,4.2919,4.2919,4.2919,4.2919,4.2919,4.2919,4.2919,4.2919,4.2919,4.2919,4.2919,4.2919,4.2919,4.2919,4.2919,4.2919,4.2919,4.2862,4.2841,4.2803,4.2763,4.2649,4.2609,4.2609,4.2609,4.2629,4.2629,4.2649,4.2668,4.2707,4.2822,4.2804,4.2824,4.2882,4.2919,4.2919,4.2919,4.2919,4.2919,4.2919,4.2919,4.2919,4.2919,4.29,4.29,4.29,4.2919,4.2919,4.2919,4.2919,4.2919,4.2919,4.2919,4.2919,4.2919,4.2919,4.2919,4.2919,4.2919,4.2881,4.2823,4.2707,4.2649,4.2629,4.249,4.2513,4.2668,4.2639,4.2729,4.3184,4.3068,4.29,4.2757,4.3017,4.3071,4.2975,4.3232,4.3315,4.3119,4.3065,4.3069,4.3251,4.3317,4.3324,4.335,4.3402,4.3312,4.3113,4.3021,4.2868,4.8891,4.8743,4.8036,4.6704,4.521,4.4288,4.3853,4.3771,4.3617,4.3532,4.3445,4.325,4.3178,4.316,4.316,4.3123,4.3086,4.3068,4.3012,4.2901,4.2919,4.2919,4.2919,4.2901,4.2919,4.2901,4.2901,4.292,4.2919,4.2901,4.2919,4.2919,4.2919,4.2919,4.2919,4.2919,4.2919,4.2919,4.2919,4.2919,4.2919,4.2919,4.29,4.29,4.2823,4.2783,4.2783,4.2649,4.2609,4.2609,4.2725,4.2802,4.2783,4.2842,4.2881,4.2881,4.29,4.2882,4.2919,4.2919,4.2919,4.2919,4.2919,4.2919,4.2919,4.2919,4.2919,4.2919,4.2919,4.2919,4.2919,4.2919,4.2919,4.2919,4.2919,4.2919,4.2919,4.2919,4.2919,4.2919,4.2919,4.2919,4.2919,4.2919,4.29,4.2881,4.2823,4.2765,4.2746,4.2649,4.2548,4.2471,4.22,4.2194,4.2589,4.2479,4.2441,4.2796,4.274,4.2538,4.2392,4.2215,4.2072,4.2275,4.1896,4.2038,4.239,4.2622,4.282,4.3138,4.3248,4.3292,4.3157,4.3066,4.2959,4.9193,4.9137,4.8805,4.7639,4.6049,4.5148,4.4453,4.3913,4.3832,4.3734,4.3686,4.3584,4.3428,4.3214,4.3214,4.3178,4.3142,4.3142,4.3123,4.3087,4.3087,4.3068,4.3068,4.3087,4.3087,4.3068,4.3068,4.3068,4.3087,4.3068,4.3087,4.3068,4.305,4.303,4.3012,4.2938,4.2919,4.2919,4.2919,4.2919,4.2919,4.2919,4.2919,4.29,4.2862,4.2861,4.2843,4.2805,4.2786,4.2786,4.2824,4.2843,4.2843,4.2863,4.2919,4.2919,4.2919,4.2919,4.2919,4.2919,4.2919,4.2919,4.2919,4.2919,4.2919,4.2919,4.2919,4.2919,4.2919,4.2919,4.2919,4.2919,4.2919,4.2919,4.2919,4.2919,4.2919,4.2919,4.2919,4.2919,4.2919,4.2919,4.2919,4.2919,4.2919,4.2919,4.2862,4.2861,4.2861,4.2785,4.2686,4.2548,4.2287,4.2101,4.2176,4.192,4.1835,4.1809,4.1926,4.192,4.1737,4.186,4.1866,4.1683,4.1455,4.1392,4.1761,4.1844,4.1976,4.239,4.2741,4.2818,4.264,4.2985,4.3094,4.9476,4.9423,4.9189,4.8209,4.6749,4.5869,4.4972,4.4153,4.3974,4.3881,4.3851,4.3802,4.3617,4.3393,4.3322,4.3286,4.3286,4.3269,4.3214,4.3214,4.3214,4.3214,4.3214,4.3214,4.3214,4.3214,4.3214,4.3214,4.3214,4.3214,4.3214,4.3196,4.316,4.3123,4.3123,4.3031,4.2976,4.2994,4.2976,4.2976,4.2994,4.2976,4.2975,4.2919,4.2919,4.2919,4.2919,4.2919,4.2919,4.2919,4.2919,4.2919,4.2919,4.2919,4.2919,4.2919,4.2919,4.2919,4.2919,4.2919,4.2919,4.2919,4.2919,4.2919,4.2919,4.2919,4.2919,4.2919,4.2919,4.2919,4.2919,4.2919,4.2919,4.2919,4.2919,4.2919,4.2919,4.2919,4.2919,4.2919,4.2919,4.2919,4.2919,4.2919,4.2919,4.2919,4.2919,4.2919,4.29,4.2861,4.2765,4.2629,4.247,4.2264,4.1927,4.1697,4.1335,4.1128,4.1302,4.128,4.1027,4.1309,4.1295,4.0775,4.0895,4.0989,4.1094,4.1127,4.1243,4.143,4.1811,4.2262,4.2426,4.2838,4.3092,4.9678,4.9565,4.881,4.7994,4.7,4.6139,4.5208,4.4354,4.4113,4.3989,4.3974,4.3867,4.3788,4.3736,4.3634,4.3566,4.348,4.3411,4.3322,4.3233,4.3214,4.3214,4.3214,4.3214,4.3214,4.3233,4.3233,4.3233,4.3233,4.3214,4.3214,4.3214,4.3214,4.3196,4.3196,4.3178,4.3196,4.3178,4.3178,4.3178,4.3196,4.3178,4.3087,4.2938,4.2919,4.2919,4.2919,4.2919,4.2919,4.2919,4.2919,4.2901,4.2901,4.2901,4.2919,4.2901,4.2919,4.2919,4.2919,4.2919,4.2919,4.2919,4.2919,4.2919,4.2919,4.2919,4.2919,4.2919,4.2919,4.2919,4.2919,4.2919,4.2919,4.2919,4.2919,4.2919,4.2919,4.2919,4.2919,4.2919,4.2919,4.2919,4.2919,4.2919,4.2919,4.2919,4.2919,4.2919,4.2919,4.2882,4.2805,4.267,4.257,4.2447,4.2072,4.1776,4.1498,4.1238,4.1022,4.0761,4.0497,4.029,4.012,3.9938,3.9937,4.007,4.032,4.0531,4.0713,4.0945,4.121,4.155,4.1836,4.2324,4.2696,4.9898,4.9811,4.9489,4.8512,4.7174,4.6788,4.5839,4.451,4.4368,4.4266,4.4177,4.4107,4.4061,4.4026,4.3865,4.3751,4.3686,4.3584,4.3496,4.3444,4.3428,4.3375,4.3393,4.341,4.3392,4.3392,4.341,4.341,4.3392,4.3375,4.341,4.3393,4.334,4.3341,4.3323,4.3233,4.3214,4.3214,4.3214,4.3214,4.3214,4.3214,4.316,4.3087,4.3087,4.3087,4.3087,4.3087,4.3105,4.3087,4.3087,4.3087,4.3087,4.305,4.3012,4.303,4.2956,4.2919,4.2919,4.2919,4.2919,4.2919,4.2919,4.2919,4.2919,4.2919,4.2919,4.2919,4.2919,4.2919,4.2919,4.2919,4.2919,4.2919,4.2919,4.2919,4.2919,4.2919,4.2919,4.2919,4.2919,4.2919,4.2919,4.2919,4.2919,4.2919,4.2919,4.2919,4.2919,4.2919,4.2844,4.2746,4.2649,4.251,4.2264,4.1927,4.1626,4.134,4.1076,4.0803,4.0527,4.0263,4.0113,3.9889,3.9633,3.9568,3.996,3.9879,4.0078,4.01,4.0398,4.0845,4.1094,4.1818,4.2386,5.0057,4.9959,4.9946,4.9097,4.774,4.7411,4.6423,4.5025,4.4669,4.4454,4.434,4.4285,4.4244,4.4184,4.4058,4.3947,4.3851,4.3718,4.3651,4.3617,4.3548,4.3513,4.3496,4.3479,4.3479,4.3479,4.3479,4.3479,4.3479,4.3479,4.3479,4.3479,4.3464,4.3429,4.3411,4.334,4.3286,4.3286,4.3304,4.3304,4.3304,4.3304,4.3286,4.3304,4.3304,4.3269,4.3214,4.3214,4.3214,4.3214,4.3214,4.3214,4.3196,4.316,4.3123,4.3105,4.3068,4.2976,4.2994,4.2994,4.2975,4.2975,4.2938,4.2919,4.2919,4.2919,4.2919,4.2919,4.2919,4.2919,4.2919,4.2919,4.2919,4.2919,4.2919,4.2919,4.2919,4.2919,4.2919,4.2919,4.2919,4.2919,4.2919,4.2919,4.2919,4.2919,4.2919,4.2919,4.2919,4.29,4.2881,4.2803,4.2668,4.253,4.2346,4.2094,4.1732,4.1426,4.1175,4.0871,4.0607,4.0337,4.0087,3.9833,3.9668,3.9537,3.9432,3.9352,3.9315,3.9332,3.9663,4.016,4.0707,4.1465,4.2029,5.0108,5.0095,5.0095,4.9543,4.8606,4.7745,4.6903,4.5942,4.5012,4.4578,4.4496,4.4444,4.4329,4.4229,4.4184,4.4119,4.3992,4.3849,4.3734,4.3651,4.3599,4.3548,4.3496,4.3496,4.3479,4.3479,4.3479,4.3479,4.3479,4.3479,4.3479,4.3479,4.3497,4.348,4.3479,4.3462,4.3462,4.3462,4.348,4.348,4.3479,4.3462,4.348,4.3462,4.3462,4.3392,4.3233,4.3233,4.3233,4.3214,4.3233,4.3214,4.3233,4.3214,4.3214,4.3214,4.3178,4.3178,4.316,4.3142,4.3086,4.3068,4.2975,4.2938,4.2938,4.2919,4.2919,4.2919,4.2919,4.2919,4.2919,4.2919,4.2919,4.2919,4.2919,4.2919,4.2919,4.2919,4.2919,4.2919,4.2919,4.2919,4.2919,4.2919,4.2919,4.2919,4.2919,4.2919,4.2919,4.2919,4.2862,4.2822,4.2706,4.255,4.2405,4.2216,4.1858,4.151,4.1261,4.0982,4.0704,4.0436,4.0238,3.9986,3.9798,3.9668,3.9563,3.9458,3.9405,3.9455,3.9568,3.9684,4.0269,4.0978,4.1715,5.0219,5.0182,5.0163,4.9657,4.8808,4.7908,4.7017,4.6102,4.5199,4.4751,4.4632,4.451,4.4444,4.4373,4.4274,4.4165,4.4119,4.3992,4.3897,4.38,4.3649,4.3582,4.3583,4.3532,4.3479,4.3479,4.3479,4.3479,4.3479,4.3479,4.3479,4.3479,4.3479,4.3479,4.3479,4.3479,4.3479,4.3479,4.3479,4.3479,4.3479,4.3479,4.3479,4.3479,4.3479,4.348,4.3428,4.341,4.3392,4.3392,4.3428,4.3428,4.341,4.3376,4.334,4.3323,4.3251,4.3214,4.3214,4.3196,4.316,4.316,4.3086,4.3049,4.303,4.2938,4.2919,4.2919,4.2919,4.2919,4.2919,4.2919,4.2919,4.2919,4.2919,4.2919,4.2919,4.2919,4.2919,4.2919,4.2919,4.2919,4.2919,4.2919,4.2919,4.2919,4.2919,4.2919,4.2919,4.2919,4.29,4.288,4.2727,4.2607,4.2488,4.2282,4.1966,4.1644,4.138,4.1099,4.0799,4.0607,4.0387,4.0138,3.9935,3.9798,3.9694,3.959,3.9537,3.9563,3.9647,3.978,3.9957,4.0548,4.1382,5.0259,5.0255,5.0224,4.9921,4.9288,4.8469,4.7591,4.6669,4.5797,4.5192,4.4814,4.4659,4.4551,4.4468,4.4358,4.4274,4.4199,4.4119,4.4023,4.3929,4.38,4.3684,4.3617,4.3549,4.3479,4.3479,4.3479,4.3479,4.3479,4.3479,4.3479,4.3479,4.3479,4.3479,4.3479,4.3479,4.3479,4.3479,4.3479,4.3479,4.3479,4.3479,4.3479,4.3479,4.3479,4.3479,4.3479,4.3479,4.3479,4.3479,4.3479,4.3479,4.3479,4.3464,4.3446,4.3429,4.3376,4.3304,4.3322,4.3304,4.3269,4.3269,4.3196,4.3105,4.3104,4.2994,4.2975,4.2919,4.2919,4.2919,4.2919,4.2919,4.2919,4.2919,4.2919,4.2919,4.2919,4.2919,4.2919,4.2919,4.2919,4.2919,4.2919,4.2919,4.2919,4.2919,4.2919,4.2919,4.2919,4.2919,4.2919,4.2862,4.2727,4.2629,4.257,4.2346,4.2034,4.178,4.1538,4.1221,4.0894,4.0817,4.0648,4.0288,4.0079,3.991,3.9807,3.9703,3.9651,3.9703,3.9755,3.9778,3.9936,4.0484,4.1238,5.0302,5.0302,5.0302,5.0248,5.0028,4.9284,4.8372,4.75,4.6635,4.5727,4.5028,4.4827,4.4699,4.4551,4.4482,4.4387,4.4244,4.4184,4.4119,4.4023,4.3929,4.3781,4.3634,4.3531,4.3496,4.3479,4.3479,4.3479,4.3479,4.3479,4.3479,4.3479,4.3479,4.3479,4.3479,4.3479,4.3479,4.3479,4.3479,4.3479,4.3479,4.3479,4.3479,4.3479,4.3479,4.3479,4.3479,4.3479,4.3479,4.3479,4.3479,4.3479,4.3479,4.3479,4.3497,4.3497,4.3479,4.3462,4.348,4.3429,4.3394,4.3376,4.3286,4.3178,4.316,4.3105,4.3068,4.2957,4.2938,4.2919,4.2919,4.2919,4.2919,4.2919,4.2919,4.2919,4.2919,4.2919,4.2919,4.2919,4.2919,4.2919,4.2919,4.2919,4.2919,4.2919,4.2919,4.2919,4.2919,4.2919,4.2919,4.2843,4.2746,4.2668,4.2627,4.2389,4.2118,4.1931,4.1692,4.1403,4.1059,4.0959,4.0793,4.0478,4.0238,4.0087,3.9986,3.9961,3.991,3.9935,3.991,3.9755,4.0059,4.0652,4.1302,5.0302,5.0302,5.0302,5.029,5.0164,4.9419,4.8545,4.7628,4.6816,4.5936,4.5119,4.4914,4.4808,4.4712,4.4565,4.4454,4.4387,4.4255,4.4184,4.4135,4.4039,4.383,4.3667,4.3582,4.3548,4.3496,4.3479,4.3479,4.3479,4.3479,4.3479,4.3479,4.3479,4.3479,4.3479,4.3479,4.3479,4.3479,4.3479,4.3479,4.3479,4.3479,4.3479,4.3479,4.3479,4.3479,4.3479,4.3479,4.3479,4.3479,4.3479,4.3479,4.3479,4.3479,4.3479,4.3479,4.3479,4.3479,4.3479,4.348,4.3463,4.3463,4.3394,4.334,4.3323,4.3233,4.316,4.305,4.3049,4.2994,4.2919,4.2919,4.2919,4.2919,4.2919,4.2919,4.2919,4.2919,4.2919,4.2919,4.2919,4.2919,4.2919,4.2919,4.2919,4.2919,4.2919,4.2919,4.2919,4.2919,4.2919,4.2899,4.2804,4.2725,4.2607,4.2407,4.2225,4.2079,4.1866,4.1626,4.1312,4.1076,4.0888,4.0624,4.0485,4.0345,4.0345,4.032,4.0271,4.0188,4.0213,4.0205,4.0467,4.0958,4.1691,5.0302,5.0302,5.0302,5.0302,5.0245,4.9805,4.9095,4.822,4.7358,4.6492,4.5688,4.5131,4.4895,4.484,4.4659,4.4551,4.4487,4.4314,4.4211,4.4165,4.4055,4.3878,4.3718,4.3651,4.3583,4.3496,4.3479,4.3479,4.3479,4.3479,4.3479,4.3479,4.3479,4.3479,4.3479,4.3479,4.3479,4.3479,4.3479,4.3479,4.3479,4.3479,4.3479,4.3479,4.3479,4.3479,4.3479,4.3479,4.3479,4.3479,4.3479,4.3479,4.3479,4.3479,4.3479,4.3479,4.3479,4.3479,4.3479,4.3479,4.3479,4.3497,4.3445,4.3429,4.3376,4.3323,4.3251,4.316,4.3123,4.3067,4.2994,4.2938,4.2919,4.2919,4.2919,4.2919,4.2919,4.2919,4.2919,4.2919,4.2919,4.2919,4.2919,4.2919,4.2919,4.2919,4.2919,4.2919,4.2919,4.2919,4.29,4.2899,4.2842,4.2746,4.2647,4.2488,4.2305,4.2163,4.1995,4.178,4.1515,4.1221,4.1012,4.0823,4.0728,4.0655,4.059,4.0541,4.0461,4.0412,4.0534,4.0651,4.0864,4.1459,4.2156,5.0302,5.0302,5.0302,5.0302,5.0302,5.0283,4.9748,4.8991,4.8029,4.7175,4.634,4.5411,4.4986,4.4895,4.4745,4.4646,4.451,4.4387,4.4255,4.4165,4.4055,4.3929,4.3769,4.3703,4.36,4.3496,4.3479,4.3479,4.3479,4.3479,4.3479,4.3479,4.3479,4.3479,4.3479,4.3479,4.3479,4.3479,4.3479,4.3479,4.3479,4.3479,4.3479,4.3479,4.3479,4.3479,4.3479,4.3479,4.3479,4.3479,4.3479,4.3479,4.3479,4.3479,4.3479,4.3479,4.3479,4.3479,4.3479,4.3479,4.3479,4.3479,4.3479,4.348,4.341,4.3394,4.3358,4.3233,4.316,4.3141,4.3104,4.3012,4.2957,4.2938,4.2919,4.2919,4.2919,4.2919,4.2919,4.2919,4.2919,4.2919,4.2919,4.2919,4.2919,4.2919,4.2919,4.2919,4.2919,4.2919,4.2919,4.29,4.2843,4.2765,4.2686,4.2586,4.2407,4.2225,4.2097,4.1905,4.1688,4.1403,4.118,4.1018,4.0924,4.0813,4.0717,4.0645,4.0614,4.0662,4.0806,4.0885,4.1051,4.1978,4.277,5.0302,5.0302,5.0302,5.0302,5.0302,5.0283,4.9843,4.906,4.8189,4.7361,4.6439,4.5514,4.5083,4.4967,4.4821,4.4738,4.46,4.4454,4.4266,4.4036,4.4039,4.3929,4.382,4.3771,4.3669,4.3549,4.3479,4.3479,4.3479,4.3479,4.3479,4.3479,4.3479,4.3479,4.3479,4.3479,4.3479,4.3479,4.3479,4.3479,4.3479,4.3479,4.3479,4.3479,4.3479,4.3479,4.3479,4.3479,4.3479,4.3479,4.3479,4.3479,4.3479,4.3479,4.3479,4.3479,4.3479,4.3479,4.3479,4.3479,4.3479,4.3479,4.3479,4.3479,4.3462,4.3463,4.3428,4.3376,4.334,4.3269,4.3178,4.3105,4.3068,4.3031,4.2975,4.2919,4.2919,4.2919,4.2919,4.2919,4.2919,4.2919,4.2919,4.2919,4.2919,4.2919,4.2919,4.2919,4.2919,4.2919,4.2919,4.2919,4.2881,4.2823,4.2745,4.2665,4.2508,4.2366,4.2222,4.2097,4.1862,4.1666,4.1453,4.1277,4.114,4.1047,4.0931,4.0977,4.0954,4.1024,4.1134,4.1418,4.1864,4.2671,4.3422,5.0302,5.0302,5.0302,5.0302,5.0302,5.0302,5.0073,4.9557,4.8774,4.7918,4.7011,4.6096,4.5449,4.4998,4.4821,4.4738,4.4659,4.4454,4.4237,4.4055,4.3989,4.3929,4.382,4.3788,4.3686,4.3513,4.3479,4.3479,4.3479,4.3479,4.3479,4.3479,4.3479,4.3479,4.3479,4.3479,4.3479,4.3479,4.3479,4.3479,4.3479,4.3479,4.3479,4.3479,4.3479,4.3479,4.3479,4.3479,4.3479,4.3479,4.3479,4.3479,4.3479,4.3479,4.3479,4.3479,4.3479,4.3479,4.3479,4.3479,4.3479,4.3479,4.3479,4.3479,4.3479,4.3479,4.348,4.3445,4.3411,4.334,4.3214,4.3178,4.3142,4.3123,4.3068,4.2994,4.2994,4.2938,4.2919,4.2919,4.2919,4.2919,4.2919,4.2919,4.2919,4.2919,4.2919,4.2919,4.2919,4.2919,4.2919,4.2919,4.2919,4.288,4.2803,4.2724,4.2607,4.2488,4.2387,4.2284,4.2139,4.1931,4.174,4.1565,4.1386,4.1255,4.1186,4.1232,4.1312,4.1359,4.1556,4.2049,4.2741,4.3641,4.4284,5.0302,5.0302,5.0302,5.0302,5.0302,5.0302,5.0283,5.0168,4.9442,4.8587,4.7792,4.6889,4.5886,4.5266,4.4852,4.4712,4.4592,4.4397,4.4162,4.402,4.4005,4.3913,4.3818,4.3788,4.3703,4.3496,4.3479,4.3479,4.3479,4.3479,4.3479,4.3479,4.3479,4.3479,4.3479,4.3479,4.3479,4.3479,4.3479,4.3479,4.3479,4.3479,4.3479,4.3479,4.3479,4.3479,4.3479,4.3479,4.3479,4.3479,4.3479,4.3479,4.3479,4.3479,4.3479,4.3479,4.3479,4.3479,4.3479,4.3479,4.3479,4.3479,4.3479,4.3479,4.3479,4.3479,4.3479,4.3462,4.3445,4.3394,4.3269,4.3251,4.3233,4.3214,4.316,4.3123,4.3086,4.2994,4.2938,4.2919,4.2919,4.2919,4.2919,4.2919,4.2919,4.2919,4.2919,4.2919,4.2919,4.2919,4.2919,4.2919,4.2919,4.2919,4.2842,4.2802,4.2686,4.2627,4.2548,4.2447,4.2366,4.2222,4.2016,4.1801,4.1626,4.1538,4.1493,4.1498,4.159,4.1651,4.2139,4.2743,4.3595,4.4579,4.5156,5.0302,5.0302,5.0302,5.0302,5.0302,5.0302,5.0302,5.0168,4.948,4.9007,4.8555,4.7162,4.6364,4.5829,4.5098,4.4704,4.4505,4.4285,4.415,4.402,4.4008,4.3913,4.3802,4.3771,4.3686,4.3549,4.3479,4.3479,4.3479,4.3479,4.3479,4.3479,4.3479,4.3479,4.3479,4.3479,4.3479,4.3479,4.3479,4.3479,4.3479,4.3479,4.3479,4.3479,4.3479,4.3479,4.3479,4.3479,4.3479,4.3479,4.3479,4.3479,4.3479,4.3479,4.3479,4.3479,4.3479,4.3479,4.3479,4.3479,4.3479,4.3479,4.3479,4.3479,4.3479,4.3479,4.3479,4.3479,4.3479,4.3463,4.3463,4.3375,4.3358,4.3323,4.3251,4.3178,4.3123,4.3086,4.3012,4.2938,4.2919,4.2919,4.2919,4.2919,4.2919,4.2919,4.2919,4.2919,4.2919,4.2919,4.2919,4.2919,4.2919,4.2919,4.29,4.2841,4.2764,4.2745,4.2686,4.2607,4.2528,4.2486,4.2323,4.2097,4.1962,4.1911,4.1872,4.1881,4.2256,4.2626,4.3063,4.3536,4.4462,4.5409,4.5922,5.0302,5.0302,5.0302,5.0302,5.0302,5.0302,5.0302,5.0233,4.9847,4.9399,4.8824,4.8009,4.7017,4.624,4.5709,4.5071,4.4462,4.4259,4.4119,4.402,4.3976,4.3915,4.3822,4.3754,4.3617,4.3513,4.3479,4.3533,4.3479,4.3479,4.3479,4.3479,4.3479,4.3479,4.3479,4.3479,4.3479,4.3479,4.3479,4.3479,4.3479,4.3479,4.3479,4.3479,4.3479,4.3479,4.3479,4.3479,4.3479,4.3479,4.3479,4.3479,4.3479,4.3479,4.3479,4.3479,4.3479,4.3479,4.3479,4.3479,4.3479,4.3479,4.3479,4.3479,4.3479,4.3479,4.3479,4.3479,4.3479,4.3479,4.3479,4.3463,4.3445,4.3428,4.3358,4.3287,4.3233,4.3215,4.3123,4.2994,4.2957,4.2938,4.2919,4.2919,4.2919,4.2919,4.2919,4.2919,4.2919,4.2919,4.2919,4.2919,4.2919,4.2919,4.2919,4.288,4.2841,4.2822,4.2803,4.2725,4.2667,4.2607,4.2528,4.2369,4.2299,4.231,4.2483,4.2612,4.3125,4.3655,4.4232,4.4809,4.5468,4.6146,4.6606,5.0302,5.0302,5.0302,5.0302,5.0302,5.0302,5.029,5.0278,5.0193,4.9789,4.915,4.8751,4.7789,4.6541,4.5747,4.5078,4.427,4.4199,4.4085,4.4005,4.3947,4.3904,4.4009,4.3944,4.4006,4.4286,4.4176,4.3808,4.3497,4.3479,4.3479,4.3479,4.3479,4.3479,4.3479,4.3479,4.3479,4.3479,4.3479,4.3479,4.3479,4.3479,4.3479,4.3479,4.3479,4.3479,4.3479,4.3479,4.3479,4.3479,4.3479,4.3479,4.3479,4.3479,4.3479,4.3479,4.3479,4.3479,4.3479,4.3479,4.3479,4.3479,4.3479,4.3479,4.3479,4.3479,4.3479,4.3479,4.3479,4.3479,4.3479,4.3479,4.3479,4.3497,4.3464,4.3412,4.3358,4.3305,4.3215,4.3105,4.3031,4.2957,4.2938,4.2919,4.2919,4.2919,4.2919,4.2919,4.2919,4.2919,4.2919,4.2919,4.2919,4.2919,4.2919,4.2919,4.2899,4.288,4.2861,4.2823,4.2765,4.2725,4.2667,4.2641,4.2823,4.2894,4.3102,4.3411,4.3882,4.4485,4.5329,4.598,4.6382,4.6663,4.6994,5.0302,5.0302,5.0302,5.0302,5.029,5.029,5.0267,5.0219,5.0207,5.0095,4.9701,4.9047,4.8145,4.6962,4.5317,4.4561,4.4326,4.4309,4.4302,4.4308,4.4209,4.4426,4.4766,4.4718,4.4926,4.5185,4.5388,4.4745,4.4048,4.3736,4.3588,4.3625,4.3626,4.3479,4.3497,4.3479,4.3479,4.3479,4.3479,4.3479,4.3479,4.3479,4.3479,4.3479,4.3479,4.3479,4.3479,4.3479,4.3479,4.3479,4.3479,4.3479,4.3479,4.3479,4.3479,4.3479,4.3479,4.3479,4.3479,4.3479,4.3479,4.3479,4.3479,4.3479,4.3479,4.3479,4.3479,4.3479,4.3479,4.3479,4.3479,4.3479,4.3479,4.3479,4.348,4.3446,4.3411,4.3394,4.3304,4.3233,4.316,4.3031,4.2975,4.2938,4.2919,4.2919,4.2919,4.2919,4.2919,4.2919,4.2919,4.2919,4.2919,4.2919,4.2919,4.2919,4.2919,4.2919,4.29,4.288,4.2861,4.2822,4.2893,4.2923,4.3165,4.3625,4.4047,4.4387,4.4683,4.5272,4.6115,4.6639,4.706,4.7288,4.7385,5.0302,5.0302,5.0302,5.0278,5.0255,5.0255,5.0207,5.0126,5.007,5.0005,4.9868,4.9466,4.8668,4.7496,4.6183,4.5646,4.5547,4.5308,4.528,4.521,4.5183,4.5303,4.5527,4.5495,4.5681,4.5883,4.5865,4.5626,4.4947,4.48,4.469,4.4195,4.414,4.392,4.3699,4.3516,4.3479,4.3479,4.3479,4.3479,4.3479,4.3479,4.3479,4.3479,4.3479,4.3479,4.3479,4.3479,4.3479,4.3479,4.3479,4.3479,4.3479,4.3479,4.3479,4.3479,4.3479,4.3479,4.3479,4.3479,4.3479,4.3479,4.3479,4.3479,4.3479,4.3479,4.3479,4.3479,4.3479,4.3479,4.3479,4.3479,4.3479,4.3479,4.3479,4.3462,4.3445,4.3445,4.341,4.3358,4.3305,4.3196,4.3105,4.3068,4.3012,4.2938,4.2919,4.2919,4.2919,4.2919,4.2919,4.2919,4.2919,4.2919,4.2919,4.2919,4.2919,4.2919,4.2919,4.29,4.29,4.2917,4.3097,4.3386,4.3743,4.4263,4.4931,4.5317,4.5558,4.619,4.6877,4.7151,4.7392,4.7493,4.7572,5.0278,5.0278,5.0278,5.0255,5.0207,5.0175,5.0114,5.0044,4.9952,4.9866,4.9712,4.9355,4.8708,4.7953,4.7005,4.6403,4.645,4.6372,4.6288,4.6238,4.6207,4.6192,4.6304,4.6287,4.6342,4.6471,4.6728,4.6599,4.6562,4.6397,4.6012,4.5057,4.5002,4.4727,4.425,4.3956,4.3828,4.3479,4.3479,4.3479,4.3479,4.3479,4.3479,4.3479,4.3479,4.3479,4.3479,4.3479,4.3479,4.3479,4.3479,4.3479,4.3479,4.3479,4.3479,4.3479,4.3479,4.3479,4.3479,4.3479,4.3479,4.3479,4.3479,4.3479,4.3479,4.3479,4.3479,4.3479,4.3479,4.3479,4.3479,4.3479,4.3479,4.3479,4.3479,4.3479,4.3479,4.3462,4.348,4.3428,4.3375,4.334,4.3269,4.3215,4.3123,4.2994,4.2938,4.2938,4.2919,4.2938,4.2919,4.2919,4.2919,4.2919,4.2919,4.2919,4.2919,4.2919,4.2919,4.2936,4.2955,4.3226,4.3515,4.386,4.4331,4.5035,4.5789,4.614,4.647,4.693,4.7316,4.7406,4.7575,4.7657,4.7696,5.02,5.02,5.0219,5.0188,5.0175,5.0114,5.0025,4.9906,4.9879,4.9774,4.9495,4.8765,4.8274,4.7774,4.7278,4.6733,4.6431,4.6323,4.6459,4.639,4.6192,4.6672,4.6948,4.7169,4.7333,4.7847,4.7774,4.7829,4.8031,4.7719,4.7021,4.6049,4.5902,4.581,4.5424,4.4837,4.425,4.3846,4.3681,4.3588,4.3516,4.3479,4.3479,4.3479,4.3479,4.3479,4.3479,4.3479,4.3479,4.3479,4.3479,4.3479,4.3479,4.3479,4.3479,4.3479,4.3479,4.3479,4.3479,4.3479,4.3479,4.3479,4.3479,4.3479,4.3479,4.3479,4.3479,4.3479,4.3479,4.3479,4.3479,4.3479,4.3479,4.3479,4.3479,4.3479,4.3479,4.3479,4.3479,4.3497,4.3463,4.341,4.3393,4.334,4.3215,4.3087,4.305,4.3031,4.2975,4.2975,4.2938,4.2938,4.2919,4.2919,4.2919,4.2919,4.2919,4.2919,4.2919,4.2973,4.3045,4.3407,4.3842,4.4639,4.52,4.5924,4.6504,4.6711,4.6997,4.7419,4.7675,4.7636,4.7636,4.7678,4.7717,5.0163,5.0145,5.005,5.0038,5.0082,4.9999,4.9925,4.9816,4.9688,4.948,4.9279,4.8863,4.8615,4.8382,4.8204,4.7911,4.7825,4.7682,4.7591,4.7574,4.7611,4.7665,4.7866,4.7866,4.7993,4.8269,4.8324,4.8324,4.8269,4.8324,4.8104,4.7407,4.6874,4.6305,4.592,4.5626,4.5021,4.447,4.4176,4.4048,4.3516,4.3479,4.3479,4.3479,4.3479,4.3479,4.3479,4.3479,4.3479,4.3479,4.3479,4.3479,4.3479,4.3479,4.3479,4.3479,4.3479,4.3479,4.3479,4.3479,4.3479,4.3479,4.3479,4.3479,4.3479,4.3479,4.3479,4.3479,4.3479,4.3479,4.3479,4.3479,4.3479,4.3479,4.3479,4.3479,4.3479,4.3479,4.3479,4.3479,4.3479,4.3462,4.3444,4.3427,4.3322,4.3196,4.316,4.3123,4.3087,4.3031,4.3013,4.2975,4.2957,4.2938,4.2938,4.2919,4.2937,4.2992,4.3046,4.3317,4.357,4.3679,4.4204,4.511,4.5961,4.6522,4.6939,4.7153,4.7388,4.7624,4.7717,4.7678,4.7678,4.7699,4.7699,5.0089,5.0031,4.9925,4.9912,4.9965,4.9885,4.9792,4.9659,4.9491,4.9292,4.9101,4.9068,4.8979,4.8892,4.8803,4.8677,4.8531,4.844,4.8421,4.8328,4.8216,4.8324,4.8324,4.8288,4.8233,4.8324,4.8324,4.8324,4.8324,4.8324,4.8214,4.8031,4.7755,4.7168,4.6819,4.6305,4.5865,4.5259,4.5002,4.4654,4.3993,4.3883,4.3644,4.3589,4.3479,4.3479,4.3479,4.3479,4.3479,4.3479,4.3479,4.3479,4.3479,4.3479,4.3479,4.3479,4.3479,4.3479,4.3479,4.3479,4.3479,4.3479,4.3479,4.3479,4.3479,4.3479,4.3479,4.3479,4.3479,4.3479,4.3479,4.3479,4.3479,4.3479,4.3479,4.3479,4.3479,4.3479,4.3479,4.3479,4.3497,4.3516,4.3534,4.3535,4.3539,4.3378,4.3214,4.3178,4.3142,4.3105,4.3123,4.3068,4.3031,4.3012,4.2957,4.3264,4.3553,4.3643,4.3769,4.4095,4.4313,4.444,4.482,4.5743,4.6504,4.7047,4.7319,4.7446,4.7554,4.7681,4.7699,4.7699,4.7699,4.7699,4.7699,4.9978,4.9912,4.9835,4.983,4.9852,4.9764,4.96,4.9446,4.9384,4.926,4.9066,4.8962,4.8892,4.8822,4.8769,4.8679,4.855,4.8494,4.842,4.8325,4.8324,4.8324,4.8324,4.8324,4.8324,4.8324,4.8324,4.8324,4.8324,4.8324,4.8324,4.8324,4.8141,4.8049,4.8104,4.7443,4.6672,4.5993,4.5902,4.5406,4.4856,4.4599,4.4158,4.3846,4.3534,4.3497,4.3479,4.3479,4.3479,4.3479,4.3479,4.3479,4.3479,4.3479,4.3479,4.3479,4.3479,4.3479,4.3479,4.3479,4.3479,4.3479,4.3479,4.3479,4.3479,4.3479,4.3479,4.3479,4.3479,4.3479,4.3479,4.3479,4.3479,4.3516,4.3534,4.3718,4.3754,4.4048,4.4158,4.425,4.3846,4.3571,4.3606,4.3626,4.3701,4.3595,4.3342,4.3251,4.3287,4.3233,4.3233,4.3306,4.3306,4.3451,4.3541,4.3901,4.417,4.4278,4.4495,4.4823,4.5238,4.5544,4.5997,4.6576,4.6957,4.7409,4.7572,4.7681,4.7699,4.7699,4.7699,4.7699,4.7699,4.7699,4.7699,4.9871,4.9764,4.9615,4.9551,4.9566,4.9521,4.943,4.9321,4.9228,4.9098,4.8979,4.8875,4.8822,4.8769,4.8679,4.855,4.8494,4.8382,4.8325,4.8306,4.8324,4.8324,4.8324,4.8324,4.8324,4.8324,4.8324,4.8324,4.8324,4.8324,4.8324,4.8324,4.8324,4.8324,4.8251,4.7921,4.7517,4.6856,4.6617,4.6305,4.5553,4.5057,4.4618,4.4287,4.3846,4.3571,4.3552,4.3571,4.3479,4.3479,4.3479,4.3479,4.3479,4.3479,4.3479,4.3479,4.3479,4.3479,4.3479,4.3479,4.3479,4.3479,4.3479,4.3479,4.3479,4.3479,4.3479,4.3479,4.3479,4.3479,4.3479,4.3497,4.3551,4.368,4.3791,4.4232,4.447,4.4984,4.5278,4.5314,4.5094,4.4929,4.4874,4.4599,4.4544,4.4361,4.418,4.3741,4.3649,4.3468,4.3395,4.356,4.367,4.3871,4.4162,4.465,4.4975,4.5101,4.5263,4.5461,4.5931,4.6454,4.6778,4.7122,4.7409,4.7699,4.7699,4.7699,4.7699,4.7699,4.7699,4.7699,4.7699,4.7699,4.7699,4.9282,4.919,4.9317,4.9355,4.9308,4.9305,4.9292,4.9214,4.91,4.8962,4.8875,4.8822,4.8751,4.8661,4.8587,4.8457,4.842,4.8363,4.8306,4.8324,4.8324,4.8324,4.8324,4.8324,4.8324,4.8324,4.8324,4.8324,4.8324,4.8324,4.8324,4.8324,4.8324,4.8324,4.8288,4.8177,4.8049,4.759,4.7443,4.7131,4.6415,4.5883,4.5461,4.5002,4.447,4.3938,4.3846,4.3699,4.3497,4.3497,4.3479,4.3479,4.3479,4.3479,4.3479,4.3479,4.3479,4.3479,4.3479,4.3479,4.3479,4.3479,4.3479,4.3479,4.3479,4.3479,4.3479,4.3479,4.3479,4.3516,4.3534,4.3552,4.392,4.4066,4.4525,4.4966,4.5223,4.5718,4.5883,4.5975,4.603,4.6012,4.6012,4.581,4.5553,4.5296,4.5039,4.4653,4.4286,4.4105,4.4051,4.4217,4.4437,4.4748,4.5112,4.5566,4.5819,4.5925,4.6142,4.6377,4.6721,4.7245,4.7456,4.7596,4.7666,4.7699,4.7699,4.7699,4.7699,4.7699,4.7699,4.7699,4.7699,4.7699,4.7699,4.8231,4.8288,4.8946,4.9139,4.9061,4.9108,4.9131,4.9084,4.8962,4.8856,4.8805,4.8769,4.8679,4.8532,4.8494,4.8401,4.8325,4.8306,4.8324,4.8324,4.8324,4.8324,4.8324,4.8324,4.8324,4.8324,4.8324,4.8324,4.8324,4.8324,4.8324,4.8324,4.8324,4.8324,4.8324,4.8306,4.8233,4.8104,4.8031,4.7681,4.7149,4.6892,4.6415,4.5883,4.5223,4.4709,4.4415,4.4048,4.3681,4.3534,4.3479,4.3479,4.3479,4.3479,4.3479,4.3479,4.3479,4.3479,4.3479,4.3479,4.3479,4.3479,4.3479,4.3479,4.3479,4.3479,4.3479,4.3479,4.3479,4.3571,4.3626,4.4121,4.4599,4.5002,4.5498,4.5773,4.592,4.614,4.6232,4.6305,4.6361,4.6397,4.6507,4.6397,4.6526,4.6471,4.6305,4.6214,4.5828,4.5314,4.5278,4.5315,4.5535,4.5736,4.6101,4.6465,4.6737,4.6881,4.7226,4.7499,4.7806,4.7783,4.7797,4.7772,4.7744,4.772,4.7699,4.7699,4.7699,4.7699,4.7699,4.7699,4.7699,4.7699,4.7699,4.7282,4.7202,4.793,4.8203,4.8265,4.8702,4.8892,4.8875,4.884,4.8768,4.866,4.8606,4.855,4.8494,4.8401,4.8343,4.8324,4.8324,4.8324,4.8324,4.8324,4.8324,4.8324,4.8324,4.8324,4.8324,4.8324,4.8324,4.8324,4.8324,4.8324,4.8324,4.8324,4.8324,4.8324,4.8324,4.8324,4.8324,4.8324,4.8103,4.7773,4.7443,4.7076,4.6617,4.5993,4.5461,4.4892,4.4525,4.4103,4.3643,4.3516,4.3479,4.3479,4.3479,4.3479,4.3479,4.3479,4.3479,4.3479,4.3479,4.3479,4.3479,4.3479,4.3479,4.3479,4.3479,4.3479,4.3479,4.3644,4.3791,4.4176,4.469,4.5186,4.5718,4.6232,4.6654,4.6819,4.7021,4.7113,4.7168,4.7186,4.7186,4.7241,4.7352,4.748,4.7553,4.7553,4.7443,4.7205,4.6636,4.6379,4.6397,4.6507,4.6671,4.6965,4.7294,4.7585,4.7857,4.8038,4.8092,4.7995,4.7955,4.797,4.7947,4.7866,4.7783,4.7699,4.7699,4.7738,4.7699,4.7699,4.7699,4.7699,4.7699,4.7699,4.6289,4.6309,4.698,4.7266,4.733,4.7952,4.8216,4.8253,4.8567,4.8642,4.8569,4.8532,4.8475,4.8401,4.8343,4.8324,4.8324,4.8324,4.8324,4.8324,4.8324,4.8324,4.8324,4.8324,4.8324,4.8324,4.8324,4.8324,4.8324,4.8324,4.8324,4.8324,4.8324,4.8324,4.8324,4.8324,4.8324,4.8324,4.8324,4.8324,4.8085,4.781,4.7663,4.7369,4.6764,4.6104,4.5553,4.5241,4.4452,4.3938,4.3791,4.3479,4.3479,4.3479,4.3479,4.3479,4.3479,4.3479,4.3479,4.3479,4.3479,4.3479,4.3479,4.3479,4.3479,4.3479,4.3479,4.3516,4.3828,4.4176,4.4727,4.5241,4.5792,4.6324,4.6911,4.7498,4.7755,4.8012,4.8122,4.8196,4.8214,4.8177,4.8233,4.8324,4.8288,4.8104,4.8031,4.7994,4.7847,4.7553,4.7333,4.7315,4.7443,4.759,4.781,4.7865,4.7992,4.8099,4.8154,4.817,4.8111,4.8072,4.807,4.8028,4.7968,4.7886,4.7806,4.7801,4.7801,4.778,4.772,4.772,4.7699,4.7699,4.7699,4.5301,4.5342,4.6081,4.639,4.6399,4.7052,4.7277,4.7297,4.7923,4.8403,4.8402,4.8476,4.8401,4.8325,4.8324,4.8324,4.8324,4.8324,4.8324,4.8324,4.8324,4.8324,4.8324,4.8324,4.8324,4.8324,4.8324,4.8324,4.8324,4.8324,4.8324,4.8324,4.8324,4.8324,4.8324,4.8324,4.8324,4.8324,4.8324,4.8324,4.8324,4.8288,4.8306,4.8141,4.7608,4.7039,4.6654,4.5902,4.4819,4.4507,4.414,4.3681,4.3497,4.3479,4.3479,4.3479,4.3479,4.3479,4.3479,4.3479,4.3479,4.3479,4.3479,4.3479,4.3479,4.3479,4.3479,4.3864,4.4232,4.4856,4.5425,4.603,4.6599,4.7058,4.7571,4.792,4.8067,4.8233,4.8251,4.8324,4.8324,4.8324,4.8324,4.8324,4.8324,4.8324,4.8324,4.8324,4.8251,4.8086,4.8031,4.7976,4.7976,4.8012,4.8104,4.814,4.8214,4.8287,4.8287,4.8267,4.8209,4.8189,4.8149,4.8108,4.8068,4.801,4.7951,4.7927,4.7884,4.7884,4.7824,4.7762,4.7741,4.7741,4.7699,4.4433,4.4408,4.5129,4.5714,4.6221,4.6355,4.6394,4.6377,4.647,4.7261,4.8179,4.8307,4.8325,4.8306,4.8324,4.8324,4.8324,4.8324,4.8324,4.8324,4.8324,4.8324,4.8324,4.8324,4.8324,4.8324,4.8324,4.8324,4.8324,4.8324,4.8324,4.8324,4.8324,4.8324,4.8324,4.8324,4.8324,4.8324,4.8324,4.8324,4.8324,4.8324,4.8306,4.8269,4.7957,4.7608,4.7223,4.6801,4.57,4.4911,4.4617,4.4103,4.3534,4.3516,4.3497,4.3479,4.3479,4.3479,4.3479,4.3479,4.3479,4.3533,4.3533,4.3497,4.3479,4.3479,4.3736,4.4232,4.4837,4.5517,4.6159,4.6782,4.7351,4.7773,4.814,4.8233,4.8324,4.8324,4.8324,4.8324,4.8324,4.8324,4.8324,4.8324,4.8324,4.8324,4.8324,4.8324,4.8324,4.8233,4.8214,4.8177,4.8214,4.8251,4.8324,4.8324,4.8324,4.8324,4.8305,4.8305,4.8324,4.8267,4.8228,4.8187,4.8148,4.811,4.8052,4.7992,4.797,4.7988,4.7947,4.7868,4.7866,4.7886,4.7783,4.4039,4.3998,4.4295,4.4674,4.5047,4.5347,4.5477,4.5533,4.5755,4.6379,4.7241,4.7609,4.7938,4.8233,4.8324,4.8324,4.8324,4.8324,4.8324,4.8324,4.8324,4.8324,4.8324,4.8324,4.8324,4.8324,4.8324,4.8324,4.8324,4.8324,4.8324,4.8324,4.8324,4.8324,4.8324,4.8324,4.8324,4.8324,4.8324,4.8324,4.8324,4.8324,4.8324,4.8324,4.8214,4.7938,4.77,4.7351,4.6636,4.5828,4.5498,4.4819,4.4323,4.4121,4.3846,4.3608,4.3479,4.3479,4.3534,4.3571,4.3608,4.368,4.3975,4.4103,4.4268,4.4323,4.447,4.4966,4.5773,4.6489,4.6801,4.7333,4.7718,4.8141,4.8233,4.8288,4.8324,4.8324,4.8324,4.8324,4.8324,4.8324,4.8324,4.8324,4.8324,4.8324,4.8324,4.8324,4.8324,4.8324,4.8324,4.8324,4.8324,4.8324,4.8324,4.8324,4.8324,4.8324,4.8324,4.8324,4.8324,4.8324,4.8286,4.8247,4.8246,4.8228,4.817,4.8092,4.809,4.8108,4.8068,4.7972,4.799,4.8008,4.7927,4.3945,4.3849,4.3684,4.3617,4.3692,4.4285,4.4562,4.4672,4.5259,4.5626,4.5883,4.647,4.7259,4.7901,4.8306,4.8324,4.8324,4.8324,4.8324,4.8324,4.8324,4.8324,4.8324,4.8324,4.8324,4.8324,4.8324,4.8324,4.8324,4.8324,4.8324,4.8324,4.8324,4.8324,4.8324,4.8324,4.8324,4.8324,4.8324,4.8324,4.8324,4.8324,4.8324,4.8324,4.8324,4.8324,4.8048,4.7736,4.7296,4.6727,4.6159,4.5535,4.5094,4.4837,4.4544,4.4268,4.4176,4.414,4.4065,4.4121,4.4047,4.4121,4.4562,4.4874,4.5039,4.5278,4.5424,4.5847,4.6654,4.7131,4.7424,4.77,4.8086,4.8288,4.8306,4.8324,4.8324,4.8324,4.8324,4.8324,4.8324,4.8324,4.8324,4.8324,4.8324,4.8324,4.8324,4.8324,4.8324,4.8324,4.8324,4.8324,4.8324,4.8324,4.8324,4.8324,4.8324,4.8324,4.8324,4.8324,4.8324,4.8324,4.8324,4.8305,4.8286,4.8286,4.8267,4.8228,4.8226,4.8225,4.8169,4.8111,4.811,4.809,4.805,4.3816,4.3667,4.3599,4.3565,4.355,4.3717,4.3735,4.3772,4.3901,4.4287,4.4874,4.5131,4.5902,4.7369,4.8067,4.8306,4.8324,4.8324,4.8324,4.8324,4.8324,4.8324,4.8324,4.8324,4.8324,4.8324,4.8324,4.8324,4.8324,4.8324,4.8324,4.8324,4.8324,4.8324,4.8324,4.8324,4.8324,4.8324,4.8324,4.8324,4.8324,4.8324,4.8324,4.8324,4.8324,4.8324,4.8233,4.8159,4.7681,4.7076,4.647,4.6049,4.5773,4.5645,4.5424,4.5149,4.5057,4.5094,4.5039,4.5039,4.5002,4.5094,4.5516,4.5663,4.5957,4.6416,4.6544,4.6654,4.7278,4.7535,4.781,4.8012,4.8306,4.8306,4.8324,4.8324,4.8324,4.8324,4.8324,4.8324,4.8324,4.8324,4.8324,4.8324,4.8324,4.8324,4.8324,4.8324,4.8324,4.8324,4.8324,4.8324,4.8324,4.8324,4.8324,4.8324,4.8324,4.8324,4.8324,4.8324,4.8324,4.8324,4.8324,4.8324,4.8324,4.8305,4.8286,4.8396,4.8341,4.834,4.8304,4.8267,4.8228,4.8189,4.8169]}]]